<?xml version="1.0" encoding="UTF-8" standalone="no" ?>
<gpx xmlns="http://www.topografix.com/GPX/1/1" xmlns:xsi="http://www.w3.org/2001/XMLSchema-instance" xsi:schemaLocation="http://www.topografix.com/GPX/1/1 http://www.topografix.com/GPX/1/1/gpx.xsd" version="1.1" creator="VisuGPX - https://www.visugpx.com">
  <metadata>
    <name>Bignan - Plumelec</name>
    <desc><![CDATA[boucle au départ de kerguevel en Bignan en direction de Plumelec]]></desc>
  </metadata>
  <trk>
    <name><![CDATA[OR-6927154--Bignan:Kerguével (Bignan) - Plumelec]]></name>
    <trkseg>
      <trkpt lat="47.8522" lon="-2.79058">
        <ele>106</ele>
        <time>2017-01-13T22:14:46Z</time>
      </trkpt>
      <trkpt lat="47.85221" lon="-2.79052">
        <ele>106</ele>
        <time>2017-01-13T22:16:46Z</time>
      </trkpt>
      <trkpt lat="47.85221" lon="-2.7905">
        <ele>106</ele>
        <time>2017-01-13T22:18:46Z</time>
      </trkpt>
      <trkpt lat="47.8522" lon="-2.79051">
        <ele>106</ele>
        <time>2017-01-13T22:20:46Z</time>
      </trkpt>
      <trkpt lat="47.85221" lon="-2.7905">
        <ele>106</ele>
        <time>2017-01-13T22:22:46Z</time>
      </trkpt>
      <trkpt lat="47.85217" lon="-2.79041">
        <ele>106</ele>
        <time>2017-01-13T22:24:46Z</time>
      </trkpt>
      <trkpt lat="47.85218" lon="-2.7904">
        <ele>106</ele>
        <time>2017-01-13T22:26:46Z</time>
      </trkpt>
      <trkpt lat="47.85219" lon="-2.79039">
        <ele>106</ele>
        <time>2017-01-13T22:28:46Z</time>
      </trkpt>
      <trkpt lat="47.85223" lon="-2.79037">
        <ele>106</ele>
        <time>2017-01-13T22:30:46Z</time>
      </trkpt>
      <trkpt lat="47.85226" lon="-2.79036">
        <ele>106</ele>
        <time>2017-01-13T22:32:46Z</time>
      </trkpt>
      <trkpt lat="47.85232" lon="-2.79038">
        <ele>107</ele>
        <time>2017-01-13T22:34:46Z</time>
      </trkpt>
      <trkpt lat="47.85233" lon="-2.79039">
        <ele>107</ele>
        <time>2017-01-13T22:36:46Z</time>
      </trkpt>
      <trkpt lat="47.85234" lon="-2.79039">
        <ele>107</ele>
        <time>2017-01-13T22:38:46Z</time>
      </trkpt>
      <trkpt lat="47.85238" lon="-2.79043">
        <ele>108</ele>
        <time>2017-01-13T22:40:46Z</time>
      </trkpt>
      <trkpt lat="47.8524" lon="-2.79047">
        <ele>108</ele>
        <time>2017-01-13T22:42:46Z</time>
      </trkpt>
      <trkpt lat="47.85242" lon="-2.79054">
        <ele>108</ele>
        <time>2017-01-13T22:44:46Z</time>
      </trkpt>
      <trkpt lat="47.85243" lon="-2.79059">
        <ele>109</ele>
        <time>2017-01-13T22:46:46Z</time>
      </trkpt>
      <trkpt lat="47.85247" lon="-2.79058">
        <ele>109</ele>
        <time>2017-01-13T22:48:46Z</time>
      </trkpt>
      <trkpt lat="47.8525" lon="-2.79059">
        <ele>109</ele>
        <time>2017-01-13T22:50:46Z</time>
      </trkpt>
      <trkpt lat="47.8525" lon="-2.79059">
        <ele>109</ele>
        <time>2017-01-13T22:52:46Z</time>
      </trkpt>
      <trkpt lat="47.85249" lon="-2.7906">
        <ele>109</ele>
        <time>2017-01-13T22:54:46Z</time>
      </trkpt>
      <trkpt lat="47.85249" lon="-2.79059">
        <ele>109</ele>
        <time>2017-01-13T22:56:46Z</time>
      </trkpt>
      <trkpt lat="47.8525" lon="-2.7906">
        <ele>109</ele>
        <time>2017-01-13T22:58:46Z</time>
      </trkpt>
      <trkpt lat="47.85252" lon="-2.79061">
        <ele>110</ele>
        <time>2017-01-13T23:00:46Z</time>
      </trkpt>
      <trkpt lat="47.85251" lon="-2.79058">
        <ele>110</ele>
        <time>2017-01-13T23:02:46Z</time>
      </trkpt>
      <trkpt lat="47.85251" lon="-2.7906">
        <ele>110</ele>
        <time>2017-01-13T23:04:46Z</time>
      </trkpt>
      <trkpt lat="47.85252" lon="-2.79058">
        <ele>110</ele>
        <time>2017-01-13T23:06:46Z</time>
      </trkpt>
      <trkpt lat="47.85253" lon="-2.79058">
        <ele>110</ele>
        <time>2017-01-13T23:08:46Z</time>
      </trkpt>
      <trkpt lat="47.85253" lon="-2.7906">
        <ele>110</ele>
        <time>2017-01-13T23:10:46Z</time>
      </trkpt>
      <trkpt lat="47.85251" lon="-2.79058">
        <ele>110</ele>
        <time>2017-01-13T23:12:46Z</time>
      </trkpt>
      <trkpt lat="47.85248" lon="-2.79056">
        <ele>109</ele>
        <time>2017-01-13T23:14:46Z</time>
      </trkpt>
      <trkpt lat="47.85249" lon="-2.79055">
        <ele>109</ele>
        <time>2017-01-13T23:16:46Z</time>
      </trkpt>
      <trkpt lat="47.85247" lon="-2.79055">
        <ele>109</ele>
        <time>2017-01-13T23:18:46Z</time>
      </trkpt>
      <trkpt lat="47.85245" lon="-2.7905">
        <ele>109</ele>
        <time>2017-01-13T23:20:46Z</time>
      </trkpt>
      <trkpt lat="47.8524" lon="-2.79042">
        <ele>108</ele>
        <time>2017-01-13T23:22:46Z</time>
      </trkpt>
      <trkpt lat="47.85232" lon="-2.79039">
        <ele>107</ele>
        <time>2017-01-13T23:24:46Z</time>
      </trkpt>
      <trkpt lat="47.8522" lon="-2.79041">
        <ele>106</ele>
        <time>2017-01-13T23:26:46Z</time>
      </trkpt>
      <trkpt lat="47.85203" lon="-2.79019">
        <ele>104</ele>
        <time>2017-01-13T23:28:46Z</time>
      </trkpt>
      <trkpt lat="47.85199" lon="-2.79001">
        <ele>104</ele>
        <time>2017-01-13T23:30:46Z</time>
      </trkpt>
      <trkpt lat="47.85199" lon="-2.78989">
        <ele>104</ele>
        <time>2017-01-13T23:32:46Z</time>
      </trkpt>
      <trkpt lat="47.85199" lon="-2.78979">
        <ele>104</ele>
        <time>2017-01-13T23:34:46Z</time>
      </trkpt>
      <trkpt lat="47.85196" lon="-2.78951">
        <ele>104</ele>
        <time>2017-01-13T23:36:46Z</time>
      </trkpt>
      <trkpt lat="47.85199" lon="-2.78922">
        <ele>105</ele>
        <time>2017-01-13T23:38:46Z</time>
      </trkpt>
      <trkpt lat="47.85198" lon="-2.78904">
        <ele>105</ele>
        <time>2017-01-13T23:40:46Z</time>
      </trkpt>
      <trkpt lat="47.85197" lon="-2.78892">
        <ele>105</ele>
        <time>2017-01-13T23:42:46Z</time>
      </trkpt>
      <trkpt lat="47.852" lon="-2.78882">
        <ele>105</ele>
        <time>2017-01-13T23:44:46Z</time>
      </trkpt>
      <trkpt lat="47.85208" lon="-2.78876">
        <ele>106</ele>
        <time>2017-01-13T23:46:46Z</time>
      </trkpt>
      <trkpt lat="47.85227" lon="-2.78878">
        <ele>107</ele>
        <time>2017-01-13T23:48:46Z</time>
      </trkpt>
      <trkpt lat="47.85259" lon="-2.78876">
        <ele>111</ele>
        <time>2017-01-13T23:50:46Z</time>
      </trkpt>
      <trkpt lat="47.85275" lon="-2.78873">
        <ele>113</ele>
        <time>2017-01-13T23:52:46Z</time>
      </trkpt>
      <trkpt lat="47.85286" lon="-2.78869">
        <ele>115</ele>
        <time>2017-01-13T23:54:46Z</time>
      </trkpt>
      <trkpt lat="47.85302" lon="-2.78856">
        <ele>117</ele>
        <time>2017-01-13T23:56:46Z</time>
      </trkpt>
      <trkpt lat="47.85314" lon="-2.78841">
        <ele>119</ele>
        <time>2017-01-13T23:58:46Z</time>
      </trkpt>
      <trkpt lat="47.85329" lon="-2.78828">
        <ele>121</ele>
        <time>2017-01-14T00:00:46Z</time>
      </trkpt>
      <trkpt lat="47.85342" lon="-2.78808">
        <ele>122</ele>
        <time>2017-01-14T00:02:46Z</time>
      </trkpt>
      <trkpt lat="47.85357" lon="-2.78797">
        <ele>125</ele>
        <time>2017-01-14T00:04:46Z</time>
      </trkpt>
      <trkpt lat="47.8536" lon="-2.78794">
        <ele>126</ele>
        <time>2017-01-14T00:06:46Z</time>
      </trkpt>
      <trkpt lat="47.85364" lon="-2.78794">
        <ele>127</ele>
        <time>2017-01-14T00:08:46Z</time>
      </trkpt>
      <trkpt lat="47.85365" lon="-2.78793">
        <ele>127</ele>
        <time>2017-01-14T00:10:46Z</time>
      </trkpt>
      <trkpt lat="47.85365" lon="-2.78793">
        <ele>127</ele>
        <time>2017-01-14T00:12:46Z</time>
      </trkpt>
      <trkpt lat="47.8537" lon="-2.78791">
        <ele>128</ele>
        <time>2017-01-14T00:14:46Z</time>
      </trkpt>
      <trkpt lat="47.85377" lon="-2.78784">
        <ele>129</ele>
        <time>2017-01-14T00:16:46Z</time>
      </trkpt>
      <trkpt lat="47.85384" lon="-2.78776">
        <ele>130</ele>
        <time>2017-01-14T00:18:46Z</time>
      </trkpt>
      <trkpt lat="47.85394" lon="-2.78746">
        <ele>131</ele>
        <time>2017-01-14T00:20:46Z</time>
      </trkpt>
      <trkpt lat="47.85403" lon="-2.78713">
        <ele>130</ele>
        <time>2017-01-14T00:22:46Z</time>
      </trkpt>
      <trkpt lat="47.85411" lon="-2.7868">
        <ele>130</ele>
        <time>2017-01-14T00:24:46Z</time>
      </trkpt>
      <trkpt lat="47.85412" lon="-2.78656">
        <ele>128</ele>
        <time>2017-01-14T00:26:46Z</time>
      </trkpt>
      <trkpt lat="47.8543" lon="-2.78581">
        <ele>128</ele>
        <time>2017-01-14T00:28:46Z</time>
      </trkpt>
      <trkpt lat="47.85429" lon="-2.78546">
        <ele>127</ele>
        <time>2017-01-14T00:30:46Z</time>
      </trkpt>
      <trkpt lat="47.85431" lon="-2.78527">
        <ele>127</ele>
        <time>2017-01-14T00:32:46Z</time>
      </trkpt>
      <trkpt lat="47.8543" lon="-2.78524">
        <ele>127</ele>
        <time>2017-01-14T00:34:46Z</time>
      </trkpt>
      <trkpt lat="47.85429" lon="-2.78514">
        <ele>126</ele>
        <time>2017-01-14T00:36:46Z</time>
      </trkpt>
      <trkpt lat="47.85426" lon="-2.78497">
        <ele>125</ele>
        <time>2017-01-14T00:38:46Z</time>
      </trkpt>
      <trkpt lat="47.85433" lon="-2.78458">
        <ele>124</ele>
        <time>2017-01-14T00:40:46Z</time>
      </trkpt>
      <trkpt lat="47.85454" lon="-2.78412">
        <ele>126</ele>
        <time>2017-01-14T00:42:46Z</time>
      </trkpt>
      <trkpt lat="47.85462" lon="-2.78397">
        <ele>127</ele>
        <time>2017-01-14T00:44:46Z</time>
      </trkpt>
      <trkpt lat="47.85467" lon="-2.78379">
        <ele>126</ele>
        <time>2017-01-14T00:46:46Z</time>
      </trkpt>
      <trkpt lat="47.85466" lon="-2.78374">
        <ele>125</ele>
        <time>2017-01-14T00:48:46Z</time>
      </trkpt>
      <trkpt lat="47.85467" lon="-2.78358">
        <ele>124</ele>
        <time>2017-01-14T00:50:46Z</time>
      </trkpt>
      <trkpt lat="47.85468" lon="-2.78342">
        <ele>123</ele>
        <time>2017-01-14T00:52:46Z</time>
      </trkpt>
      <trkpt lat="47.8547" lon="-2.78326">
        <ele>122</ele>
        <time>2017-01-14T00:54:46Z</time>
      </trkpt>
      <trkpt lat="47.8547" lon="-2.78315">
        <ele>122</ele>
        <time>2017-01-14T00:56:46Z</time>
      </trkpt>
      <trkpt lat="47.85468" lon="-2.78287">
        <ele>120</ele>
        <time>2017-01-14T00:58:46Z</time>
      </trkpt>
      <trkpt lat="47.8547" lon="-2.78285">
        <ele>120</ele>
        <time>2017-01-14T01:00:46Z</time>
      </trkpt>
      <trkpt lat="47.85478" lon="-2.78273">
        <ele>122</ele>
        <time>2017-01-14T01:02:46Z</time>
      </trkpt>
      <trkpt lat="47.85485" lon="-2.78233">
        <ele>122</ele>
        <time>2017-01-14T01:04:46Z</time>
      </trkpt>
      <trkpt lat="47.85495" lon="-2.78204">
        <ele>123</ele>
        <time>2017-01-14T01:06:46Z</time>
      </trkpt>
      <trkpt lat="47.85501" lon="-2.78184">
        <ele>123</ele>
        <time>2017-01-14T01:08:46Z</time>
      </trkpt>
      <trkpt lat="47.85507" lon="-2.78171">
        <ele>124</ele>
        <time>2017-01-14T01:10:46Z</time>
      </trkpt>
      <trkpt lat="47.85516" lon="-2.78141">
        <ele>125</ele>
        <time>2017-01-14T01:12:46Z</time>
      </trkpt>
      <trkpt lat="47.85519" lon="-2.78135">
        <ele>125</ele>
        <time>2017-01-14T01:14:46Z</time>
      </trkpt>
      <trkpt lat="47.8552" lon="-2.78128">
        <ele>125</ele>
        <time>2017-01-14T01:16:46Z</time>
      </trkpt>
      <trkpt lat="47.85534" lon="-2.78093">
        <ele>126</ele>
        <time>2017-01-14T01:18:46Z</time>
      </trkpt>
      <trkpt lat="47.85541" lon="-2.78059">
        <ele>126</ele>
        <time>2017-01-14T01:20:46Z</time>
      </trkpt>
      <trkpt lat="47.8555" lon="-2.7803">
        <ele>126</ele>
        <time>2017-01-14T01:22:46Z</time>
      </trkpt>
      <trkpt lat="47.85551" lon="-2.78027">
        <ele>126</ele>
        <time>2017-01-14T01:24:46Z</time>
      </trkpt>
      <trkpt lat="47.85559" lon="-2.78007">
        <ele>126</ele>
        <time>2017-01-14T01:26:46Z</time>
      </trkpt>
      <trkpt lat="47.85567" lon="-2.77994">
        <ele>126</ele>
        <time>2017-01-14T01:28:46Z</time>
      </trkpt>
      <trkpt lat="47.85579" lon="-2.77976">
        <ele>125</ele>
        <time>2017-01-14T01:30:46Z</time>
      </trkpt>
      <trkpt lat="47.85579" lon="-2.77974">
        <ele>125</ele>
        <time>2017-01-14T01:32:46Z</time>
      </trkpt>
      <trkpt lat="47.85589" lon="-2.77962">
        <ele>125</ele>
        <time>2017-01-14T01:34:46Z</time>
      </trkpt>
      <trkpt lat="47.8561" lon="-2.7794">
        <ele>125</ele>
        <time>2017-01-14T01:36:46Z</time>
      </trkpt>
      <trkpt lat="47.85626" lon="-2.77921">
        <ele>124</ele>
        <time>2017-01-14T01:38:46Z</time>
      </trkpt>
      <trkpt lat="47.85634" lon="-2.77913">
        <ele>123</ele>
        <time>2017-01-14T01:40:46Z</time>
      </trkpt>
      <trkpt lat="47.85649" lon="-2.779">
        <ele>123</ele>
        <time>2017-01-14T01:42:46Z</time>
      </trkpt>
      <trkpt lat="47.85691" lon="-2.7787">
        <ele>120</ele>
        <time>2017-01-14T01:44:46Z</time>
      </trkpt>
      <trkpt lat="47.85701" lon="-2.77863">
        <ele>118</ele>
        <time>2017-01-14T01:46:46Z</time>
      </trkpt>
      <trkpt lat="47.85721" lon="-2.77857">
        <ele>118</ele>
        <time>2017-01-14T01:48:46Z</time>
      </trkpt>
      <trkpt lat="47.85742" lon="-2.77853">
        <ele>117</ele>
        <time>2017-01-14T01:50:46Z</time>
      </trkpt>
      <trkpt lat="47.8575" lon="-2.77844">
        <ele>115</ele>
        <time>2017-01-14T01:52:46Z</time>
      </trkpt>
      <trkpt lat="47.8576" lon="-2.7783">
        <ele>113</ele>
        <time>2017-01-14T01:54:46Z</time>
      </trkpt>
      <trkpt lat="47.85763" lon="-2.77824">
        <ele>113</ele>
        <time>2017-01-14T01:56:46Z</time>
      </trkpt>
      <trkpt lat="47.85771" lon="-2.77804">
        <ele>110</ele>
        <time>2017-01-14T01:58:46Z</time>
      </trkpt>
      <trkpt lat="47.85773" lon="-2.77789">
        <ele>108</ele>
        <time>2017-01-14T02:00:46Z</time>
      </trkpt>
      <trkpt lat="47.85753" lon="-2.77779">
        <ele>105</ele>
        <time>2017-01-14T02:02:46Z</time>
      </trkpt>
      <trkpt lat="47.85727" lon="-2.77774">
        <ele>103</ele>
        <time>2017-01-14T02:04:46Z</time>
      </trkpt>
      <trkpt lat="47.85718" lon="-2.77767">
        <ele>102</ele>
        <time>2017-01-14T02:06:46Z</time>
      </trkpt>
      <trkpt lat="47.85694" lon="-2.77755">
        <ele>100</ele>
        <time>2017-01-14T02:08:46Z</time>
      </trkpt>
      <trkpt lat="47.85649" lon="-2.77743">
        <ele>98</ele>
        <time>2017-01-14T02:10:46Z</time>
      </trkpt>
      <trkpt lat="47.85639" lon="-2.77741">
        <ele>99</ele>
        <time>2017-01-14T02:12:46Z</time>
      </trkpt>
      <trkpt lat="47.85615" lon="-2.77739">
        <ele>100</ele>
        <time>2017-01-14T02:14:46Z</time>
      </trkpt>
      <trkpt lat="47.8557" lon="-2.77738">
        <ele>101</ele>
        <time>2017-01-14T02:16:46Z</time>
      </trkpt>
      <trkpt lat="47.85553" lon="-2.77722">
        <ele>100</ele>
        <time>2017-01-14T02:18:46Z</time>
      </trkpt>
      <trkpt lat="47.85557" lon="-2.77698">
        <ele>100</ele>
        <time>2017-01-14T02:20:46Z</time>
      </trkpt>
      <trkpt lat="47.85559" lon="-2.77682">
        <ele>100</ele>
        <time>2017-01-14T02:22:46Z</time>
      </trkpt>
      <trkpt lat="47.85566" lon="-2.77632">
        <ele>98</ele>
        <time>2017-01-14T02:24:46Z</time>
      </trkpt>
      <trkpt lat="47.85567" lon="-2.77623">
        <ele>98</ele>
        <time>2017-01-14T02:26:46Z</time>
      </trkpt>
      <trkpt lat="47.85556" lon="-2.77597">
        <ele>97</ele>
        <time>2017-01-14T02:28:46Z</time>
      </trkpt>
      <trkpt lat="47.8553" lon="-2.77585">
        <ele>97</ele>
        <time>2017-01-14T02:30:46Z</time>
      </trkpt>
      <trkpt lat="47.85479" lon="-2.77554">
        <ele>96</ele>
        <time>2017-01-14T02:32:46Z</time>
      </trkpt>
      <trkpt lat="47.85459" lon="-2.77543">
        <ele>97</ele>
        <time>2017-01-14T02:34:46Z</time>
      </trkpt>
      <trkpt lat="47.85438" lon="-2.77528">
        <ele>97</ele>
        <time>2017-01-14T02:36:46Z</time>
      </trkpt>
      <trkpt lat="47.85418" lon="-2.77517">
        <ele>98</ele>
        <time>2017-01-14T02:38:46Z</time>
      </trkpt>
      <trkpt lat="47.85395" lon="-2.77504">
        <ele>99</ele>
        <time>2017-01-14T02:40:46Z</time>
      </trkpt>
      <trkpt lat="47.85372" lon="-2.7749">
        <ele>99</ele>
        <time>2017-01-14T02:42:46Z</time>
      </trkpt>
      <trkpt lat="47.85351" lon="-2.77476">
        <ele>99</ele>
        <time>2017-01-14T02:44:46Z</time>
      </trkpt>
      <trkpt lat="47.85335" lon="-2.77467">
        <ele>99</ele>
        <time>2017-01-14T02:46:46Z</time>
      </trkpt>
      <trkpt lat="47.85311" lon="-2.77458">
        <ele>98</ele>
        <time>2017-01-14T02:48:46Z</time>
      </trkpt>
      <trkpt lat="47.85292" lon="-2.77455">
        <ele>97</ele>
        <time>2017-01-14T02:50:46Z</time>
      </trkpt>
      <trkpt lat="47.85271" lon="-2.77451">
        <ele>97</ele>
        <time>2017-01-14T02:52:46Z</time>
      </trkpt>
      <trkpt lat="47.85251" lon="-2.77447">
        <ele>96</ele>
        <time>2017-01-14T02:54:46Z</time>
      </trkpt>
      <trkpt lat="47.85219" lon="-2.77442">
        <ele>93</ele>
        <time>2017-01-14T02:56:46Z</time>
      </trkpt>
      <trkpt lat="47.85212" lon="-2.77441">
        <ele>92</ele>
        <time>2017-01-14T02:58:46Z</time>
      </trkpt>
      <trkpt lat="47.8519" lon="-2.7744">
        <ele>91</ele>
        <time>2017-01-14T03:00:46Z</time>
      </trkpt>
      <trkpt lat="47.85183" lon="-2.77436">
        <ele>90</ele>
        <time>2017-01-14T03:02:46Z</time>
      </trkpt>
      <trkpt lat="47.85167" lon="-2.77439">
        <ele>89</ele>
        <time>2017-01-14T03:04:46Z</time>
      </trkpt>
      <trkpt lat="47.85159" lon="-2.77439">
        <ele>89</ele>
        <time>2017-01-14T03:06:46Z</time>
      </trkpt>
      <trkpt lat="47.85141" lon="-2.77435">
        <ele>89</ele>
        <time>2017-01-14T03:08:46Z</time>
      </trkpt>
      <trkpt lat="47.8514" lon="-2.77435">
        <ele>89</ele>
        <time>2017-01-14T03:10:46Z</time>
      </trkpt>
      <trkpt lat="47.85137" lon="-2.77432">
        <ele>89</ele>
        <time>2017-01-14T03:12:46Z</time>
      </trkpt>
      <trkpt lat="47.85136" lon="-2.77421">
        <ele>89</ele>
        <time>2017-01-14T03:14:46Z</time>
      </trkpt>
      <trkpt lat="47.85136" lon="-2.77403">
        <ele>88</ele>
        <time>2017-01-14T03:16:46Z</time>
      </trkpt>
      <trkpt lat="47.85134" lon="-2.77397">
        <ele>88</ele>
        <time>2017-01-14T03:18:46Z</time>
      </trkpt>
      <trkpt lat="47.85131" lon="-2.774">
        <ele>89</ele>
        <time>2017-01-14T03:20:46Z</time>
      </trkpt>
      <trkpt lat="47.85118" lon="-2.77414">
        <ele>89</ele>
        <time>2017-01-14T03:22:46Z</time>
      </trkpt>
      <trkpt lat="47.85107" lon="-2.7742">
        <ele>89</ele>
        <time>2017-01-14T03:24:46Z</time>
      </trkpt>
      <trkpt lat="47.85102" lon="-2.77419">
        <ele>90</ele>
        <time>2017-01-14T03:26:46Z</time>
      </trkpt>
      <trkpt lat="47.851" lon="-2.77419">
        <ele>90</ele>
        <time>2017-01-14T03:28:46Z</time>
      </trkpt>
      <trkpt lat="47.85097" lon="-2.77413">
        <ele>90</ele>
        <time>2017-01-14T03:30:46Z</time>
      </trkpt>
      <trkpt lat="47.85099" lon="-2.77389">
        <ele>90</ele>
        <time>2017-01-14T03:32:46Z</time>
      </trkpt>
      <trkpt lat="47.85104" lon="-2.77364">
        <ele>90</ele>
        <time>2017-01-14T03:34:46Z</time>
      </trkpt>
      <trkpt lat="47.85104" lon="-2.77358">
        <ele>90</ele>
        <time>2017-01-14T03:36:46Z</time>
      </trkpt>
      <trkpt lat="47.85111" lon="-2.77337">
        <ele>89</ele>
        <time>2017-01-14T03:38:46Z</time>
      </trkpt>
      <trkpt lat="47.85113" lon="-2.77325">
        <ele>89</ele>
        <time>2017-01-14T03:40:46Z</time>
      </trkpt>
      <trkpt lat="47.85114" lon="-2.77311">
        <ele>89</ele>
        <time>2017-01-14T03:42:46Z</time>
      </trkpt>
      <trkpt lat="47.85115" lon="-2.77303">
        <ele>88</ele>
        <time>2017-01-14T03:44:46Z</time>
      </trkpt>
      <trkpt lat="47.85117" lon="-2.77269">
        <ele>87</ele>
        <time>2017-01-14T03:46:46Z</time>
      </trkpt>
      <trkpt lat="47.85119" lon="-2.77257">
        <ele>87</ele>
        <time>2017-01-14T03:48:46Z</time>
      </trkpt>
      <trkpt lat="47.85119" lon="-2.77227">
        <ele>85</ele>
        <time>2017-01-14T03:50:46Z</time>
      </trkpt>
      <trkpt lat="47.85122" lon="-2.77205">
        <ele>84</ele>
        <time>2017-01-14T03:52:46Z</time>
      </trkpt>
      <trkpt lat="47.85125" lon="-2.77179">
        <ele>82</ele>
        <time>2017-01-14T03:54:46Z</time>
      </trkpt>
      <trkpt lat="47.85123" lon="-2.7716">
        <ele>81</ele>
        <time>2017-01-14T03:56:46Z</time>
      </trkpt>
      <trkpt lat="47.85123" lon="-2.77143">
        <ele>79</ele>
        <time>2017-01-14T03:58:46Z</time>
      </trkpt>
      <trkpt lat="47.85131" lon="-2.77107">
        <ele>76</ele>
        <time>2017-01-14T04:00:46Z</time>
      </trkpt>
      <trkpt lat="47.85133" lon="-2.77079">
        <ele>73</ele>
        <time>2017-01-14T04:02:46Z</time>
      </trkpt>
      <trkpt lat="47.85139" lon="-2.77041">
        <ele>71</ele>
        <time>2017-01-14T04:04:46Z</time>
      </trkpt>
      <trkpt lat="47.85145" lon="-2.77003">
        <ele>69</ele>
        <time>2017-01-14T04:06:46Z</time>
      </trkpt>
      <trkpt lat="47.8515" lon="-2.76963">
        <ele>69</ele>
        <time>2017-01-14T04:08:46Z</time>
      </trkpt>
      <trkpt lat="47.85147" lon="-2.76933">
        <ele>69</ele>
        <time>2017-01-14T04:10:46Z</time>
      </trkpt>
      <trkpt lat="47.85141" lon="-2.76902">
        <ele>70</ele>
        <time>2017-01-14T04:12:46Z</time>
      </trkpt>
      <trkpt lat="47.85139" lon="-2.76863">
        <ele>71</ele>
        <time>2017-01-14T04:14:46Z</time>
      </trkpt>
      <trkpt lat="47.8514" lon="-2.76852">
        <ele>71</ele>
        <time>2017-01-14T04:16:46Z</time>
      </trkpt>
      <trkpt lat="47.85142" lon="-2.7684">
        <ele>71</ele>
        <time>2017-01-14T04:18:46Z</time>
      </trkpt>
      <trkpt lat="47.85147" lon="-2.7681">
        <ele>73</ele>
        <time>2017-01-14T04:20:46Z</time>
      </trkpt>
      <trkpt lat="47.85149" lon="-2.76774">
        <ele>74</ele>
        <time>2017-01-14T04:22:46Z</time>
      </trkpt>
      <trkpt lat="47.8515" lon="-2.76749">
        <ele>75</ele>
        <time>2017-01-14T04:24:46Z</time>
      </trkpt>
      <trkpt lat="47.85157" lon="-2.76712">
        <ele>76</ele>
        <time>2017-01-14T04:26:46Z</time>
      </trkpt>
      <trkpt lat="47.85159" lon="-2.76693">
        <ele>77</ele>
        <time>2017-01-14T04:28:46Z</time>
      </trkpt>
      <trkpt lat="47.85166" lon="-2.76656">
        <ele>78</ele>
        <time>2017-01-14T04:30:46Z</time>
      </trkpt>
      <trkpt lat="47.85168" lon="-2.76621">
        <ele>78</ele>
        <time>2017-01-14T04:32:46Z</time>
      </trkpt>
      <trkpt lat="47.85168" lon="-2.76604">
        <ele>78</ele>
        <time>2017-01-14T04:34:46Z</time>
      </trkpt>
      <trkpt lat="47.85171" lon="-2.76561">
        <ele>79</ele>
        <time>2017-01-14T04:36:46Z</time>
      </trkpt>
      <trkpt lat="47.85181" lon="-2.76488">
        <ele>81</ele>
        <time>2017-01-14T04:38:46Z</time>
      </trkpt>
      <trkpt lat="47.85187" lon="-2.76451">
        <ele>82</ele>
        <time>2017-01-14T04:40:46Z</time>
      </trkpt>
      <trkpt lat="47.85193" lon="-2.76422">
        <ele>83</ele>
        <time>2017-01-14T04:42:46Z</time>
      </trkpt>
      <trkpt lat="47.85197" lon="-2.76413">
        <ele>83</ele>
        <time>2017-01-14T04:44:46Z</time>
      </trkpt>
      <trkpt lat="47.85197" lon="-2.7641">
        <ele>83</ele>
        <time>2017-01-14T04:46:46Z</time>
      </trkpt>
      <trkpt lat="47.8521" lon="-2.76389">
        <ele>84</ele>
        <time>2017-01-14T04:48:46Z</time>
      </trkpt>
      <trkpt lat="47.85216" lon="-2.76381">
        <ele>84</ele>
        <time>2017-01-14T04:50:46Z</time>
      </trkpt>
      <trkpt lat="47.85224" lon="-2.7637">
        <ele>85</ele>
        <time>2017-01-14T04:52:46Z</time>
      </trkpt>
      <trkpt lat="47.85229" lon="-2.76365">
        <ele>85</ele>
        <time>2017-01-14T04:54:46Z</time>
      </trkpt>
      <trkpt lat="47.85242" lon="-2.76346">
        <ele>86</ele>
        <time>2017-01-14T04:56:46Z</time>
      </trkpt>
      <trkpt lat="47.85248" lon="-2.76332">
        <ele>86</ele>
        <time>2017-01-14T04:58:46Z</time>
      </trkpt>
      <trkpt lat="47.85252" lon="-2.76323">
        <ele>85</ele>
        <time>2017-01-14T05:00:46Z</time>
      </trkpt>
      <trkpt lat="47.85251" lon="-2.76311">
        <ele>85</ele>
        <time>2017-01-14T05:02:46Z</time>
      </trkpt>
      <trkpt lat="47.85206" lon="-2.76302">
        <ele>80</ele>
        <time>2017-01-14T05:04:46Z</time>
      </trkpt>
      <trkpt lat="47.85184" lon="-2.76305">
        <ele>79</ele>
        <time>2017-01-14T05:06:46Z</time>
      </trkpt>
      <trkpt lat="47.85182" lon="-2.76313">
        <ele>79</ele>
        <time>2017-01-14T05:08:46Z</time>
      </trkpt>
      <trkpt lat="47.85182" lon="-2.76312">
        <ele>79</ele>
        <time>2017-01-14T05:10:46Z</time>
      </trkpt>
      <trkpt lat="47.85175" lon="-2.7631">
        <ele>78</ele>
        <time>2017-01-14T05:12:46Z</time>
      </trkpt>
      <trkpt lat="47.85166" lon="-2.76311">
        <ele>78</ele>
        <time>2017-01-14T05:14:46Z</time>
      </trkpt>
      <trkpt lat="47.85141" lon="-2.76316">
        <ele>76</ele>
        <time>2017-01-14T05:16:46Z</time>
      </trkpt>
      <trkpt lat="47.85117" lon="-2.76324">
        <ele>74</ele>
        <time>2017-01-14T05:18:46Z</time>
      </trkpt>
      <trkpt lat="47.85095" lon="-2.76337">
        <ele>73</ele>
        <time>2017-01-14T05:20:46Z</time>
      </trkpt>
      <trkpt lat="47.85072" lon="-2.76362">
        <ele>71</ele>
        <time>2017-01-14T05:22:46Z</time>
      </trkpt>
      <trkpt lat="47.85049" lon="-2.76388">
        <ele>70</ele>
        <time>2017-01-14T05:24:46Z</time>
      </trkpt>
      <trkpt lat="47.85027" lon="-2.76406">
        <ele>69</ele>
        <time>2017-01-14T05:26:46Z</time>
      </trkpt>
      <trkpt lat="47.85019" lon="-2.7641">
        <ele>69</ele>
        <time>2017-01-14T05:28:46Z</time>
      </trkpt>
      <trkpt lat="47.85016" lon="-2.7641">
        <ele>69</ele>
        <time>2017-01-14T05:30:46Z</time>
      </trkpt>
      <trkpt lat="47.85009" lon="-2.76414">
        <ele>68</ele>
        <time>2017-01-14T05:32:46Z</time>
      </trkpt>
      <trkpt lat="47.85001" lon="-2.76416">
        <ele>68</ele>
        <time>2017-01-14T05:34:46Z</time>
      </trkpt>
      <trkpt lat="47.84995" lon="-2.76415">
        <ele>68</ele>
        <time>2017-01-14T05:36:46Z</time>
      </trkpt>
      <trkpt lat="47.84986" lon="-2.76415">
        <ele>67</ele>
        <time>2017-01-14T05:38:46Z</time>
      </trkpt>
      <trkpt lat="47.84982" lon="-2.76412">
        <ele>66</ele>
        <time>2017-01-14T05:40:46Z</time>
      </trkpt>
      <trkpt lat="47.8497" lon="-2.76403">
        <ele>65</ele>
        <time>2017-01-14T05:42:46Z</time>
      </trkpt>
      <trkpt lat="47.84961" lon="-2.76401">
        <ele>64</ele>
        <time>2017-01-14T05:44:46Z</time>
      </trkpt>
      <trkpt lat="47.84954" lon="-2.76398">
        <ele>64</ele>
        <time>2017-01-14T05:46:46Z</time>
      </trkpt>
      <trkpt lat="47.84943" lon="-2.76396">
        <ele>63</ele>
        <time>2017-01-14T05:48:46Z</time>
      </trkpt>
      <trkpt lat="47.84935" lon="-2.76393">
        <ele>62</ele>
        <time>2017-01-14T05:50:46Z</time>
      </trkpt>
      <trkpt lat="47.84911" lon="-2.76396">
        <ele>61</ele>
        <time>2017-01-14T05:52:46Z</time>
      </trkpt>
      <trkpt lat="47.84907" lon="-2.7643">
        <ele>61</ele>
        <time>2017-01-14T05:54:46Z</time>
      </trkpt>
      <trkpt lat="47.84909" lon="-2.76496">
        <ele>61</ele>
        <time>2017-01-14T05:56:46Z</time>
      </trkpt>
      <trkpt lat="47.84899" lon="-2.76528">
        <ele>61</ele>
        <time>2017-01-14T05:58:46Z</time>
      </trkpt>
      <trkpt lat="47.84885" lon="-2.76564">
        <ele>61</ele>
        <time>2017-01-14T06:00:46Z</time>
      </trkpt>
      <trkpt lat="47.84874" lon="-2.76599">
        <ele>61</ele>
        <time>2017-01-14T06:02:46Z</time>
      </trkpt>
      <trkpt lat="47.84871" lon="-2.76611">
        <ele>61</ele>
        <time>2017-01-14T06:04:46Z</time>
      </trkpt>
      <trkpt lat="47.8486" lon="-2.76642">
        <ele>63</ele>
        <time>2017-01-14T06:06:46Z</time>
      </trkpt>
      <trkpt lat="47.84858" lon="-2.76644">
        <ele>63</ele>
        <time>2017-01-14T06:08:46Z</time>
      </trkpt>
      <trkpt lat="47.84847" lon="-2.76681">
        <ele>64</ele>
        <time>2017-01-14T06:10:46Z</time>
      </trkpt>
      <trkpt lat="47.84836" lon="-2.76715">
        <ele>65</ele>
        <time>2017-01-14T06:12:46Z</time>
      </trkpt>
      <trkpt lat="47.84833" lon="-2.76727">
        <ele>65</ele>
        <time>2017-01-14T06:14:46Z</time>
      </trkpt>
      <trkpt lat="47.8483" lon="-2.76739">
        <ele>65</ele>
        <time>2017-01-14T06:16:46Z</time>
      </trkpt>
      <trkpt lat="47.84825" lon="-2.76755">
        <ele>65</ele>
        <time>2017-01-14T06:18:46Z</time>
      </trkpt>
      <trkpt lat="47.84816" lon="-2.76791">
        <ele>65</ele>
        <time>2017-01-14T06:20:46Z</time>
      </trkpt>
      <trkpt lat="47.84797" lon="-2.76863">
        <ele>64</ele>
        <time>2017-01-14T06:22:46Z</time>
      </trkpt>
      <trkpt lat="47.84785" lon="-2.76895">
        <ele>64</ele>
        <time>2017-01-14T06:24:46Z</time>
      </trkpt>
      <trkpt lat="47.84774" lon="-2.76922">
        <ele>64</ele>
        <time>2017-01-14T06:26:46Z</time>
      </trkpt>
      <trkpt lat="47.84768" lon="-2.76937">
        <ele>64</ele>
        <time>2017-01-14T06:28:46Z</time>
      </trkpt>
      <trkpt lat="47.8475" lon="-2.76961">
        <ele>65</ele>
        <time>2017-01-14T06:30:46Z</time>
      </trkpt>
      <trkpt lat="47.84737" lon="-2.7698">
        <ele>65</ele>
        <time>2017-01-14T06:32:46Z</time>
      </trkpt>
      <trkpt lat="47.84732" lon="-2.76985">
        <ele>65</ele>
        <time>2017-01-14T06:34:46Z</time>
      </trkpt>
      <trkpt lat="47.84726" lon="-2.76991">
        <ele>65</ele>
        <time>2017-01-14T06:36:46Z</time>
      </trkpt>
      <trkpt lat="47.84701" lon="-2.77019">
        <ele>66</ele>
        <time>2017-01-14T06:38:46Z</time>
      </trkpt>
      <trkpt lat="47.84701" lon="-2.77018">
        <ele>66</ele>
        <time>2017-01-14T06:40:46Z</time>
      </trkpt>
      <trkpt lat="47.84702" lon="-2.77017">
        <ele>66</ele>
        <time>2017-01-14T06:42:46Z</time>
      </trkpt>
      <trkpt lat="47.84701" lon="-2.77015">
        <ele>66</ele>
        <time>2017-01-14T06:44:46Z</time>
      </trkpt>
      <trkpt lat="47.84701" lon="-2.77017">
        <ele>66</ele>
        <time>2017-01-14T06:46:46Z</time>
      </trkpt>
      <trkpt lat="47.847" lon="-2.77019">
        <ele>66</ele>
        <time>2017-01-14T06:48:46Z</time>
      </trkpt>
      <trkpt lat="47.84699" lon="-2.77019">
        <ele>66</ele>
        <time>2017-01-14T06:50:46Z</time>
      </trkpt>
      <trkpt lat="47.84686" lon="-2.77013">
        <ele>65</ele>
        <time>2017-01-14T06:52:46Z</time>
      </trkpt>
      <trkpt lat="47.84676" lon="-2.76999">
        <ele>63</ele>
        <time>2017-01-14T06:54:46Z</time>
      </trkpt>
      <trkpt lat="47.84663" lon="-2.76979">
        <ele>62</ele>
        <time>2017-01-14T06:56:46Z</time>
      </trkpt>
      <trkpt lat="47.8466" lon="-2.76976">
        <ele>62</ele>
        <time>2017-01-14T06:58:46Z</time>
      </trkpt>
      <trkpt lat="47.84646" lon="-2.76961">
        <ele>62</ele>
        <time>2017-01-14T07:00:46Z</time>
      </trkpt>
      <trkpt lat="47.84638" lon="-2.76952">
        <ele>62</ele>
        <time>2017-01-14T07:02:46Z</time>
      </trkpt>
      <trkpt lat="47.84621" lon="-2.76931">
        <ele>63</ele>
        <time>2017-01-14T07:04:46Z</time>
      </trkpt>
      <trkpt lat="47.8461" lon="-2.76921">
        <ele>64</ele>
        <time>2017-01-14T07:06:46Z</time>
      </trkpt>
      <trkpt lat="47.8459" lon="-2.76909">
        <ele>66</ele>
        <time>2017-01-14T07:08:46Z</time>
      </trkpt>
      <trkpt lat="47.84573" lon="-2.76938">
        <ele>66</ele>
        <time>2017-01-14T07:10:46Z</time>
      </trkpt>
      <trkpt lat="47.8457" lon="-2.76942">
        <ele>66</ele>
        <time>2017-01-14T07:12:46Z</time>
      </trkpt>
      <trkpt lat="47.8451" lon="-2.76985">
        <ele>68</ele>
        <time>2017-01-14T07:14:46Z</time>
      </trkpt>
      <trkpt lat="47.84475" lon="-2.76998">
        <ele>69</ele>
        <time>2017-01-14T07:16:46Z</time>
      </trkpt>
      <trkpt lat="47.84409" lon="-2.77002">
        <ele>69</ele>
        <time>2017-01-14T07:18:46Z</time>
      </trkpt>
      <trkpt lat="47.8436" lon="-2.77005">
        <ele>66</ele>
        <time>2017-01-14T07:20:46Z</time>
      </trkpt>
      <trkpt lat="47.8434" lon="-2.76986">
        <ele>66</ele>
        <time>2017-01-14T07:22:46Z</time>
      </trkpt>
      <trkpt lat="47.84341" lon="-2.76963">
        <ele>68</ele>
        <time>2017-01-14T07:24:46Z</time>
      </trkpt>
      <trkpt lat="47.84344" lon="-2.7695">
        <ele>69</ele>
        <time>2017-01-14T07:26:46Z</time>
      </trkpt>
      <trkpt lat="47.84347" lon="-2.76934">
        <ele>70</ele>
        <time>2017-01-14T07:28:46Z</time>
      </trkpt>
      <trkpt lat="47.84351" lon="-2.76909">
        <ele>72</ele>
        <time>2017-01-14T07:30:46Z</time>
      </trkpt>
      <trkpt lat="47.84353" lon="-2.76901">
        <ele>73</ele>
        <time>2017-01-14T07:32:46Z</time>
      </trkpt>
      <trkpt lat="47.84355" lon="-2.76893">
        <ele>74</ele>
        <time>2017-01-14T07:34:46Z</time>
      </trkpt>
      <trkpt lat="47.84361" lon="-2.76856">
        <ele>76</ele>
        <time>2017-01-14T07:36:46Z</time>
      </trkpt>
      <trkpt lat="47.84367" lon="-2.76806">
        <ele>78</ele>
        <time>2017-01-14T07:38:46Z</time>
      </trkpt>
      <trkpt lat="47.84371" lon="-2.76759">
        <ele>80</ele>
        <time>2017-01-14T07:40:46Z</time>
      </trkpt>
      <trkpt lat="47.84373" lon="-2.76738">
        <ele>81</ele>
        <time>2017-01-14T07:42:46Z</time>
      </trkpt>
      <trkpt lat="47.84384" lon="-2.76663">
        <ele>85</ele>
        <time>2017-01-14T07:44:46Z</time>
      </trkpt>
      <trkpt lat="47.84389" lon="-2.76631">
        <ele>87</ele>
        <time>2017-01-14T07:46:46Z</time>
      </trkpt>
      <trkpt lat="47.84392" lon="-2.76611">
        <ele>89</ele>
        <time>2017-01-14T07:48:46Z</time>
      </trkpt>
      <trkpt lat="47.84395" lon="-2.76592">
        <ele>90</ele>
        <time>2017-01-14T07:50:46Z</time>
      </trkpt>
      <trkpt lat="47.84398" lon="-2.76574">
        <ele>91</ele>
        <time>2017-01-14T07:52:46Z</time>
      </trkpt>
      <trkpt lat="47.84403" lon="-2.76535">
        <ele>92</ele>
        <time>2017-01-14T07:54:46Z</time>
      </trkpt>
      <trkpt lat="47.84403" lon="-2.76519">
        <ele>93</ele>
        <time>2017-01-14T07:56:46Z</time>
      </trkpt>
      <trkpt lat="47.84402" lon="-2.76512">
        <ele>93</ele>
        <time>2017-01-14T07:58:46Z</time>
      </trkpt>
      <trkpt lat="47.844" lon="-2.76507">
        <ele>93</ele>
        <time>2017-01-14T08:00:46Z</time>
      </trkpt>
      <trkpt lat="47.84396" lon="-2.76504">
        <ele>93</ele>
        <time>2017-01-14T08:02:46Z</time>
      </trkpt>
      <trkpt lat="47.84386" lon="-2.765">
        <ele>94</ele>
        <time>2017-01-14T08:04:46Z</time>
      </trkpt>
      <trkpt lat="47.8436" lon="-2.76489">
        <ele>95</ele>
        <time>2017-01-14T08:06:46Z</time>
      </trkpt>
      <trkpt lat="47.84339" lon="-2.76478">
        <ele>96</ele>
        <time>2017-01-14T08:08:46Z</time>
      </trkpt>
      <trkpt lat="47.84333" lon="-2.76475">
        <ele>96</ele>
        <time>2017-01-14T08:10:46Z</time>
      </trkpt>
      <trkpt lat="47.84322" lon="-2.76469">
        <ele>96</ele>
        <time>2017-01-14T08:12:46Z</time>
      </trkpt>
      <trkpt lat="47.84277" lon="-2.7645">
        <ele>97</ele>
        <time>2017-01-14T08:14:46Z</time>
      </trkpt>
      <trkpt lat="47.84244" lon="-2.76431">
        <ele>98</ele>
        <time>2017-01-14T08:16:46Z</time>
      </trkpt>
      <trkpt lat="47.84241" lon="-2.76426">
        <ele>98</ele>
        <time>2017-01-14T08:18:46Z</time>
      </trkpt>
      <trkpt lat="47.84239" lon="-2.76421">
        <ele>98</ele>
        <time>2017-01-14T08:20:46Z</time>
      </trkpt>
      <trkpt lat="47.84235" lon="-2.76385">
        <ele>99</ele>
        <time>2017-01-14T08:22:46Z</time>
      </trkpt>
      <trkpt lat="47.84234" lon="-2.76379">
        <ele>99</ele>
        <time>2017-01-14T08:24:46Z</time>
      </trkpt>
      <trkpt lat="47.84235" lon="-2.76369">
        <ele>99</ele>
        <time>2017-01-14T08:26:46Z</time>
      </trkpt>
      <trkpt lat="47.84234" lon="-2.76365">
        <ele>99</ele>
        <time>2017-01-14T08:28:46Z</time>
      </trkpt>
      <trkpt lat="47.84234" lon="-2.76362">
        <ele>99</ele>
        <time>2017-01-14T08:30:46Z</time>
      </trkpt>
      <trkpt lat="47.84234" lon="-2.76359">
        <ele>99</ele>
        <time>2017-01-14T08:32:46Z</time>
      </trkpt>
      <trkpt lat="47.84234" lon="-2.76356">
        <ele>99</ele>
        <time>2017-01-14T08:34:46Z</time>
      </trkpt>
      <trkpt lat="47.84233" lon="-2.76353">
        <ele>99</ele>
        <time>2017-01-14T08:36:46Z</time>
      </trkpt>
      <trkpt lat="47.84232" lon="-2.76347">
        <ele>99</ele>
        <time>2017-01-14T08:38:46Z</time>
      </trkpt>
      <trkpt lat="47.84224" lon="-2.76319">
        <ele>100</ele>
        <time>2017-01-14T08:40:46Z</time>
      </trkpt>
      <trkpt lat="47.84223" lon="-2.76317">
        <ele>100</ele>
        <time>2017-01-14T08:42:46Z</time>
      </trkpt>
      <trkpt lat="47.8422" lon="-2.76279">
        <ele>101</ele>
        <time>2017-01-14T08:44:46Z</time>
      </trkpt>
      <trkpt lat="47.84215" lon="-2.76243">
        <ele>102</ele>
        <time>2017-01-14T08:46:46Z</time>
      </trkpt>
      <trkpt lat="47.84208" lon="-2.76205">
        <ele>103</ele>
        <time>2017-01-14T08:48:46Z</time>
      </trkpt>
      <trkpt lat="47.84187" lon="-2.762">
        <ele>102</ele>
        <time>2017-01-14T08:50:46Z</time>
      </trkpt>
      <trkpt lat="47.84166" lon="-2.76192">
        <ele>102</ele>
        <time>2017-01-14T08:52:46Z</time>
      </trkpt>
      <trkpt lat="47.84168" lon="-2.76162">
        <ele>103</ele>
        <time>2017-01-14T08:54:46Z</time>
      </trkpt>
      <trkpt lat="47.84169" lon="-2.7616">
        <ele>103</ele>
        <time>2017-01-14T08:56:46Z</time>
      </trkpt>
      <trkpt lat="47.84186" lon="-2.76122">
        <ele>104</ele>
        <time>2017-01-14T08:58:46Z</time>
      </trkpt>
      <trkpt lat="47.84196" lon="-2.761">
        <ele>104</ele>
        <time>2017-01-14T09:00:46Z</time>
      </trkpt>
      <trkpt lat="47.84196" lon="-2.76098">
        <ele>104</ele>
        <time>2017-01-14T09:02:46Z</time>
      </trkpt>
      <trkpt lat="47.84206" lon="-2.76074">
        <ele>105</ele>
        <time>2017-01-14T09:04:46Z</time>
      </trkpt>
      <trkpt lat="47.84209" lon="-2.76063">
        <ele>105</ele>
        <time>2017-01-14T09:06:46Z</time>
      </trkpt>
      <trkpt lat="47.8421" lon="-2.76059">
        <ele>105</ele>
        <time>2017-01-14T09:08:46Z</time>
      </trkpt>
      <trkpt lat="47.84213" lon="-2.7604">
        <ele>105</ele>
        <time>2017-01-14T09:10:46Z</time>
      </trkpt>
      <trkpt lat="47.84214" lon="-2.76038">
        <ele>105</ele>
        <time>2017-01-14T09:12:46Z</time>
      </trkpt>
      <trkpt lat="47.84217" lon="-2.76034">
        <ele>105</ele>
        <time>2017-01-14T09:14:46Z</time>
      </trkpt>
      <trkpt lat="47.8422" lon="-2.7603">
        <ele>105</ele>
        <time>2017-01-14T09:16:46Z</time>
      </trkpt>
      <trkpt lat="47.84234" lon="-2.76002">
        <ele>105</ele>
        <time>2017-01-14T09:18:46Z</time>
      </trkpt>
      <trkpt lat="47.84234" lon="-2.75998">
        <ele>105</ele>
        <time>2017-01-14T09:20:46Z</time>
      </trkpt>
      <trkpt lat="47.84235" lon="-2.75996">
        <ele>105</ele>
        <time>2017-01-14T09:22:46Z</time>
      </trkpt>
      <trkpt lat="47.84237" lon="-2.75989">
        <ele>105</ele>
        <time>2017-01-14T09:24:46Z</time>
      </trkpt>
      <trkpt lat="47.84239" lon="-2.75984">
        <ele>105</ele>
        <time>2017-01-14T09:26:46Z</time>
      </trkpt>
      <trkpt lat="47.84251" lon="-2.75954">
        <ele>105</ele>
        <time>2017-01-14T09:28:46Z</time>
      </trkpt>
      <trkpt lat="47.84252" lon="-2.75952">
        <ele>105</ele>
        <time>2017-01-14T09:30:46Z</time>
      </trkpt>
      <trkpt lat="47.84256" lon="-2.75944">
        <ele>105</ele>
        <time>2017-01-14T09:32:46Z</time>
      </trkpt>
      <trkpt lat="47.84257" lon="-2.75942">
        <ele>105</ele>
        <time>2017-01-14T09:34:46Z</time>
      </trkpt>
      <trkpt lat="47.84269" lon="-2.75915">
        <ele>105</ele>
        <time>2017-01-14T09:36:46Z</time>
      </trkpt>
      <trkpt lat="47.84274" lon="-2.75883">
        <ele>105</ele>
        <time>2017-01-14T09:38:46Z</time>
      </trkpt>
      <trkpt lat="47.84252" lon="-2.75866">
        <ele>106</ele>
        <time>2017-01-14T09:40:46Z</time>
      </trkpt>
      <trkpt lat="47.84245" lon="-2.75862">
        <ele>106</ele>
        <time>2017-01-14T09:42:46Z</time>
      </trkpt>
      <trkpt lat="47.84246" lon="-2.75863">
        <ele>106</ele>
        <time>2017-01-14T09:44:46Z</time>
      </trkpt>
      <trkpt lat="47.84244" lon="-2.75862">
        <ele>106</ele>
        <time>2017-01-14T09:46:46Z</time>
      </trkpt>
      <trkpt lat="47.84199" lon="-2.75831">
        <ele>105</ele>
        <time>2017-01-14T09:48:46Z</time>
      </trkpt>
      <trkpt lat="47.84175" lon="-2.75816">
        <ele>105</ele>
        <time>2017-01-14T09:50:46Z</time>
      </trkpt>
      <trkpt lat="47.84152" lon="-2.75799">
        <ele>105</ele>
        <time>2017-01-14T09:52:46Z</time>
      </trkpt>
      <trkpt lat="47.84132" lon="-2.75785">
        <ele>105</ele>
        <time>2017-01-14T09:54:46Z</time>
      </trkpt>
      <trkpt lat="47.84112" lon="-2.75777">
        <ele>104</ele>
        <time>2017-01-14T09:56:46Z</time>
      </trkpt>
      <trkpt lat="47.84087" lon="-2.75773">
        <ele>103</ele>
        <time>2017-01-14T09:58:46Z</time>
      </trkpt>
      <trkpt lat="47.84062" lon="-2.75775">
        <ele>102</ele>
        <time>2017-01-14T10:00:46Z</time>
      </trkpt>
      <trkpt lat="47.84035" lon="-2.75776">
        <ele>100</ele>
        <time>2017-01-14T10:02:46Z</time>
      </trkpt>
      <trkpt lat="47.8401" lon="-2.75777">
        <ele>99</ele>
        <time>2017-01-14T10:04:46Z</time>
      </trkpt>
      <trkpt lat="47.84" lon="-2.75777">
        <ele>98</ele>
        <time>2017-01-14T10:06:46Z</time>
      </trkpt>
      <trkpt lat="47.83998" lon="-2.75776">
        <ele>98</ele>
        <time>2017-01-14T10:08:46Z</time>
      </trkpt>
      <trkpt lat="47.83997" lon="-2.75776">
        <ele>98</ele>
        <time>2017-01-14T10:10:46Z</time>
      </trkpt>
      <trkpt lat="47.83995" lon="-2.75777">
        <ele>98</ele>
        <time>2017-01-14T10:12:46Z</time>
      </trkpt>
      <trkpt lat="47.83989" lon="-2.75777">
        <ele>98</ele>
        <time>2017-01-14T10:14:46Z</time>
      </trkpt>
      <trkpt lat="47.83988" lon="-2.75777">
        <ele>98</ele>
        <time>2017-01-14T10:16:46Z</time>
      </trkpt>
      <trkpt lat="47.83963" lon="-2.75776">
        <ele>96</ele>
        <time>2017-01-14T10:18:46Z</time>
      </trkpt>
      <trkpt lat="47.83935" lon="-2.75775">
        <ele>94</ele>
        <time>2017-01-14T10:20:46Z</time>
      </trkpt>
      <trkpt lat="47.83931" lon="-2.75775">
        <ele>94</ele>
        <time>2017-01-14T10:22:46Z</time>
      </trkpt>
      <trkpt lat="47.83891" lon="-2.75772">
        <ele>92</ele>
        <time>2017-01-14T10:24:46Z</time>
      </trkpt>
      <trkpt lat="47.83889" lon="-2.7577">
        <ele>92</ele>
        <time>2017-01-14T10:26:46Z</time>
      </trkpt>
      <trkpt lat="47.83871" lon="-2.7576">
        <ele>91</ele>
        <time>2017-01-14T10:28:46Z</time>
      </trkpt>
      <trkpt lat="47.83855" lon="-2.75737">
        <ele>90</ele>
        <time>2017-01-14T10:30:46Z</time>
      </trkpt>
      <trkpt lat="47.83845" lon="-2.75696">
        <ele>89</ele>
        <time>2017-01-14T10:32:46Z</time>
      </trkpt>
      <trkpt lat="47.83844" lon="-2.75662">
        <ele>89</ele>
        <time>2017-01-14T10:34:46Z</time>
      </trkpt>
      <trkpt lat="47.83842" lon="-2.75623">
        <ele>89</ele>
        <time>2017-01-14T10:36:46Z</time>
      </trkpt>
      <trkpt lat="47.83841" lon="-2.75553">
        <ele>87</ele>
        <time>2017-01-14T10:38:46Z</time>
      </trkpt>
      <trkpt lat="47.8384" lon="-2.75519">
        <ele>86</ele>
        <time>2017-01-14T10:40:46Z</time>
      </trkpt>
      <trkpt lat="47.83835" lon="-2.7545">
        <ele>82</ele>
        <time>2017-01-14T10:42:46Z</time>
      </trkpt>
      <trkpt lat="47.83822" lon="-2.75419">
        <ele>80</ele>
        <time>2017-01-14T10:44:46Z</time>
      </trkpt>
      <trkpt lat="47.83805" lon="-2.75397">
        <ele>80</ele>
        <time>2017-01-14T10:46:46Z</time>
      </trkpt>
      <trkpt lat="47.83785" lon="-2.75373">
        <ele>80</ele>
        <time>2017-01-14T10:48:46Z</time>
      </trkpt>
      <trkpt lat="47.8377" lon="-2.75348">
        <ele>80</ele>
        <time>2017-01-14T10:50:46Z</time>
      </trkpt>
      <trkpt lat="47.83756" lon="-2.75316">
        <ele>79</ele>
        <time>2017-01-14T10:52:46Z</time>
      </trkpt>
      <trkpt lat="47.83746" lon="-2.75282">
        <ele>78</ele>
        <time>2017-01-14T10:54:46Z</time>
      </trkpt>
      <trkpt lat="47.83737" lon="-2.75253">
        <ele>78</ele>
        <time>2017-01-14T10:56:46Z</time>
      </trkpt>
      <trkpt lat="47.83722" lon="-2.75226">
        <ele>78</ele>
        <time>2017-01-14T10:58:46Z</time>
      </trkpt>
      <trkpt lat="47.83696" lon="-2.75196">
        <ele>76</ele>
        <time>2017-01-14T11:00:46Z</time>
      </trkpt>
      <trkpt lat="47.83682" lon="-2.75185">
        <ele>75</ele>
        <time>2017-01-14T11:02:46Z</time>
      </trkpt>
      <trkpt lat="47.83669" lon="-2.75179">
        <ele>74</ele>
        <time>2017-01-14T11:04:46Z</time>
      </trkpt>
      <trkpt lat="47.83654" lon="-2.75169">
        <ele>72</ele>
        <time>2017-01-14T11:06:46Z</time>
      </trkpt>
      <trkpt lat="47.83647" lon="-2.75168">
        <ele>72</ele>
        <time>2017-01-14T11:08:46Z</time>
      </trkpt>
      <trkpt lat="47.83643" lon="-2.75167">
        <ele>72</ele>
        <time>2017-01-14T11:10:46Z</time>
      </trkpt>
      <trkpt lat="47.8364" lon="-2.75167">
        <ele>71</ele>
        <time>2017-01-14T11:12:46Z</time>
      </trkpt>
      <trkpt lat="47.83606" lon="-2.75143">
        <ele>71</ele>
        <time>2017-01-14T11:14:46Z</time>
      </trkpt>
      <trkpt lat="47.83551" lon="-2.75129">
        <ele>66</ele>
        <time>2017-01-14T11:16:46Z</time>
      </trkpt>
      <trkpt lat="47.83514" lon="-2.75127">
        <ele>61</ele>
        <time>2017-01-14T11:18:46Z</time>
      </trkpt>
      <trkpt lat="47.83495" lon="-2.75112">
        <ele>59</ele>
        <time>2017-01-14T11:20:46Z</time>
      </trkpt>
      <trkpt lat="47.83498" lon="-2.75084">
        <ele>59</ele>
        <time>2017-01-14T11:22:46Z</time>
      </trkpt>
      <trkpt lat="47.83496" lon="-2.75049">
        <ele>59</ele>
        <time>2017-01-14T11:24:46Z</time>
      </trkpt>
      <trkpt lat="47.83492" lon="-2.75011">
        <ele>59</ele>
        <time>2017-01-14T11:26:46Z</time>
      </trkpt>
      <trkpt lat="47.83485" lon="-2.74966">
        <ele>60</ele>
        <time>2017-01-14T11:28:46Z</time>
      </trkpt>
      <trkpt lat="47.8348" lon="-2.74947">
        <ele>60</ele>
        <time>2017-01-14T11:30:46Z</time>
      </trkpt>
      <trkpt lat="47.83476" lon="-2.74922">
        <ele>60</ele>
        <time>2017-01-14T11:32:46Z</time>
      </trkpt>
      <trkpt lat="47.83471" lon="-2.749">
        <ele>59</ele>
        <time>2017-01-14T11:34:46Z</time>
      </trkpt>
      <trkpt lat="47.83472" lon="-2.74888">
        <ele>59</ele>
        <time>2017-01-14T11:36:46Z</time>
      </trkpt>
      <trkpt lat="47.83469" lon="-2.74849">
        <ele>58</ele>
        <time>2017-01-14T11:38:46Z</time>
      </trkpt>
      <trkpt lat="47.83472" lon="-2.74832">
        <ele>58</ele>
        <time>2017-01-14T11:40:46Z</time>
      </trkpt>
      <trkpt lat="47.83473" lon="-2.74827">
        <ele>58</ele>
        <time>2017-01-14T11:42:46Z</time>
      </trkpt>
      <trkpt lat="47.83478" lon="-2.74815">
        <ele>58</ele>
        <time>2017-01-14T11:44:46Z</time>
      </trkpt>
      <trkpt lat="47.83498" lon="-2.74804">
        <ele>60</ele>
        <time>2017-01-14T11:46:46Z</time>
      </trkpt>
      <trkpt lat="47.83512" lon="-2.74803">
        <ele>62</ele>
        <time>2017-01-14T11:48:46Z</time>
      </trkpt>
      <trkpt lat="47.83518" lon="-2.74804">
        <ele>63</ele>
        <time>2017-01-14T11:50:46Z</time>
      </trkpt>
      <trkpt lat="47.83522" lon="-2.74805">
        <ele>63</ele>
        <time>2017-01-14T11:52:46Z</time>
      </trkpt>
      <trkpt lat="47.83559" lon="-2.74806">
        <ele>69</ele>
        <time>2017-01-14T11:54:46Z</time>
      </trkpt>
      <trkpt lat="47.8358" lon="-2.74807">
        <ele>72</ele>
        <time>2017-01-14T11:56:46Z</time>
      </trkpt>
      <trkpt lat="47.836" lon="-2.74808">
        <ele>74</ele>
        <time>2017-01-14T11:58:46Z</time>
      </trkpt>
      <trkpt lat="47.83611" lon="-2.74812">
        <ele>76</ele>
        <time>2017-01-14T12:00:46Z</time>
      </trkpt>
      <trkpt lat="47.83616" lon="-2.74815">
        <ele>77</ele>
        <time>2017-01-14T12:02:46Z</time>
      </trkpt>
      <trkpt lat="47.8364" lon="-2.74812">
        <ele>80</ele>
        <time>2017-01-14T12:04:46Z</time>
      </trkpt>
      <trkpt lat="47.83662" lon="-2.74813">
        <ele>83</ele>
        <time>2017-01-14T12:06:46Z</time>
      </trkpt>
      <trkpt lat="47.83683" lon="-2.74818">
        <ele>84</ele>
        <time>2017-01-14T12:08:46Z</time>
      </trkpt>
      <trkpt lat="47.83709" lon="-2.7482">
        <ele>86</ele>
        <time>2017-01-14T12:10:46Z</time>
      </trkpt>
      <trkpt lat="47.83719" lon="-2.74823">
        <ele>87</ele>
        <time>2017-01-14T12:12:46Z</time>
      </trkpt>
      <trkpt lat="47.83745" lon="-2.74826">
        <ele>89</ele>
        <time>2017-01-14T12:14:46Z</time>
      </trkpt>
      <trkpt lat="47.83773" lon="-2.74827">
        <ele>90</ele>
        <time>2017-01-14T12:16:46Z</time>
      </trkpt>
      <trkpt lat="47.83787" lon="-2.74828">
        <ele>91</ele>
        <time>2017-01-14T12:18:46Z</time>
      </trkpt>
      <trkpt lat="47.83789" lon="-2.74828">
        <ele>91</ele>
        <time>2017-01-14T12:20:46Z</time>
      </trkpt>
      <trkpt lat="47.83802" lon="-2.7483">
        <ele>92</ele>
        <time>2017-01-14T12:22:46Z</time>
      </trkpt>
      <trkpt lat="47.83831" lon="-2.74834">
        <ele>94</ele>
        <time>2017-01-14T12:24:46Z</time>
      </trkpt>
      <trkpt lat="47.83835" lon="-2.74835">
        <ele>94</ele>
        <time>2017-01-14T12:26:46Z</time>
      </trkpt>
      <trkpt lat="47.83864" lon="-2.7484">
        <ele>96</ele>
        <time>2017-01-14T12:28:46Z</time>
      </trkpt>
      <trkpt lat="47.83885" lon="-2.74846">
        <ele>97</ele>
        <time>2017-01-14T12:30:46Z</time>
      </trkpt>
      <trkpt lat="47.83909" lon="-2.74849">
        <ele>99</ele>
        <time>2017-01-14T12:32:46Z</time>
      </trkpt>
      <trkpt lat="47.83929" lon="-2.74847">
        <ele>100</ele>
        <time>2017-01-14T12:34:46Z</time>
      </trkpt>
      <trkpt lat="47.83931" lon="-2.74848">
        <ele>100</ele>
        <time>2017-01-14T12:36:46Z</time>
      </trkpt>
      <trkpt lat="47.83955" lon="-2.74849">
        <ele>101</ele>
        <time>2017-01-14T12:38:46Z</time>
      </trkpt>
      <trkpt lat="47.83983" lon="-2.74851">
        <ele>103</ele>
        <time>2017-01-14T12:40:46Z</time>
      </trkpt>
      <trkpt lat="47.84" lon="-2.74847">
        <ele>104</ele>
        <time>2017-01-14T12:42:46Z</time>
      </trkpt>
      <trkpt lat="47.8401" lon="-2.74812">
        <ele>104</ele>
        <time>2017-01-14T12:44:46Z</time>
      </trkpt>
      <trkpt lat="47.84011" lon="-2.74777">
        <ele>104</ele>
        <time>2017-01-14T12:46:46Z</time>
      </trkpt>
      <trkpt lat="47.84014" lon="-2.74742">
        <ele>105</ele>
        <time>2017-01-14T12:48:46Z</time>
      </trkpt>
      <trkpt lat="47.84017" lon="-2.74705">
        <ele>105</ele>
        <time>2017-01-14T12:50:46Z</time>
      </trkpt>
      <trkpt lat="47.84019" lon="-2.74667">
        <ele>105</ele>
        <time>2017-01-14T12:52:46Z</time>
      </trkpt>
      <trkpt lat="47.84022" lon="-2.74633">
        <ele>106</ele>
        <time>2017-01-14T12:54:46Z</time>
      </trkpt>
      <trkpt lat="47.84032" lon="-2.74565">
        <ele>108</ele>
        <time>2017-01-14T12:56:46Z</time>
      </trkpt>
      <trkpt lat="47.84035" lon="-2.74519">
        <ele>108</ele>
        <time>2017-01-14T12:58:46Z</time>
      </trkpt>
      <trkpt lat="47.84039" lon="-2.74451">
        <ele>107</ele>
        <time>2017-01-14T13:00:46Z</time>
      </trkpt>
      <trkpt lat="47.84043" lon="-2.74407">
        <ele>107</ele>
        <time>2017-01-14T13:02:46Z</time>
      </trkpt>
      <trkpt lat="47.84045" lon="-2.74372">
        <ele>107</ele>
        <time>2017-01-14T13:04:46Z</time>
      </trkpt>
      <trkpt lat="47.84047" lon="-2.74326">
        <ele>106</ele>
        <time>2017-01-14T13:06:46Z</time>
      </trkpt>
      <trkpt lat="47.84046" lon="-2.74313">
        <ele>106</ele>
        <time>2017-01-14T13:08:46Z</time>
      </trkpt>
      <trkpt lat="47.84039" lon="-2.74314">
        <ele>106</ele>
        <time>2017-01-14T13:10:46Z</time>
      </trkpt>
      <trkpt lat="47.8401" lon="-2.74318">
        <ele>104</ele>
        <time>2017-01-14T13:12:46Z</time>
      </trkpt>
      <trkpt lat="47.83982" lon="-2.74324">
        <ele>103</ele>
        <time>2017-01-14T13:14:46Z</time>
      </trkpt>
      <trkpt lat="47.83972" lon="-2.74326">
        <ele>102</ele>
        <time>2017-01-14T13:16:46Z</time>
      </trkpt>
      <trkpt lat="47.83948" lon="-2.74332">
        <ele>101</ele>
        <time>2017-01-14T13:18:46Z</time>
      </trkpt>
      <trkpt lat="47.83943" lon="-2.74331">
        <ele>101</ele>
        <time>2017-01-14T13:20:46Z</time>
      </trkpt>
      <trkpt lat="47.83954" lon="-2.74318">
        <ele>101</ele>
        <time>2017-01-14T13:22:46Z</time>
      </trkpt>
      <trkpt lat="47.8398" lon="-2.74312">
        <ele>103</ele>
        <time>2017-01-14T13:24:46Z</time>
      </trkpt>
      <trkpt lat="47.83987" lon="-2.74311">
        <ele>103</ele>
        <time>2017-01-14T13:26:46Z</time>
      </trkpt>
      <trkpt lat="47.83994" lon="-2.7431">
        <ele>103</ele>
        <time>2017-01-14T13:28:46Z</time>
      </trkpt>
      <trkpt lat="47.84001" lon="-2.7431">
        <ele>104</ele>
        <time>2017-01-14T13:30:46Z</time>
      </trkpt>
      <trkpt lat="47.84032" lon="-2.74302">
        <ele>105</ele>
        <time>2017-01-14T13:32:46Z</time>
      </trkpt>
      <trkpt lat="47.84067" lon="-2.74294">
        <ele>106</ele>
        <time>2017-01-14T13:34:46Z</time>
      </trkpt>
      <trkpt lat="47.84094" lon="-2.74291">
        <ele>108</ele>
        <time>2017-01-14T13:36:46Z</time>
      </trkpt>
      <trkpt lat="47.84126" lon="-2.74281">
        <ele>109</ele>
        <time>2017-01-14T13:38:46Z</time>
      </trkpt>
      <trkpt lat="47.84131" lon="-2.74243">
        <ele>109</ele>
        <time>2017-01-14T13:40:46Z</time>
      </trkpt>
      <trkpt lat="47.84131" lon="-2.74215">
        <ele>110</ele>
        <time>2017-01-14T13:42:46Z</time>
      </trkpt>
      <trkpt lat="47.84132" lon="-2.74205">
        <ele>110</ele>
        <time>2017-01-14T13:44:46Z</time>
      </trkpt>
      <trkpt lat="47.84133" lon="-2.74182">
        <ele>110</ele>
        <time>2017-01-14T13:46:46Z</time>
      </trkpt>
      <trkpt lat="47.84135" lon="-2.74143">
        <ele>111</ele>
        <time>2017-01-14T13:48:46Z</time>
      </trkpt>
      <trkpt lat="47.8414" lon="-2.7408">
        <ele>113</ele>
        <time>2017-01-14T13:50:46Z</time>
      </trkpt>
      <trkpt lat="47.84136" lon="-2.74047">
        <ele>113</ele>
        <time>2017-01-14T13:52:46Z</time>
      </trkpt>
      <trkpt lat="47.84135" lon="-2.74027">
        <ele>114</ele>
        <time>2017-01-14T13:54:46Z</time>
      </trkpt>
      <trkpt lat="47.84137" lon="-2.73976">
        <ele>116</ele>
        <time>2017-01-14T13:56:46Z</time>
      </trkpt>
      <trkpt lat="47.84133" lon="-2.73942">
        <ele>116</ele>
        <time>2017-01-14T13:58:46Z</time>
      </trkpt>
      <trkpt lat="47.84131" lon="-2.73932">
        <ele>117</ele>
        <time>2017-01-14T14:00:46Z</time>
      </trkpt>
      <trkpt lat="47.8413" lon="-2.73921">
        <ele>117</ele>
        <time>2017-01-14T14:02:46Z</time>
      </trkpt>
      <trkpt lat="47.84129" lon="-2.7389">
        <ele>118</ele>
        <time>2017-01-14T14:04:46Z</time>
      </trkpt>
      <trkpt lat="47.84133" lon="-2.73851">
        <ele>120</ele>
        <time>2017-01-14T14:06:46Z</time>
      </trkpt>
      <trkpt lat="47.84139" lon="-2.73825">
        <ele>121</ele>
        <time>2017-01-14T14:08:46Z</time>
      </trkpt>
      <trkpt lat="47.84138" lon="-2.73812">
        <ele>122</ele>
        <time>2017-01-14T14:10:46Z</time>
      </trkpt>
      <trkpt lat="47.84141" lon="-2.73777">
        <ele>122</ele>
        <time>2017-01-14T14:12:46Z</time>
      </trkpt>
      <trkpt lat="47.8414" lon="-2.73736">
        <ele>123</ele>
        <time>2017-01-14T14:14:46Z</time>
      </trkpt>
      <trkpt lat="47.8412" lon="-2.73682">
        <ele>123</ele>
        <time>2017-01-14T14:16:46Z</time>
      </trkpt>
      <trkpt lat="47.84122" lon="-2.73646">
        <ele>123</ele>
        <time>2017-01-14T14:18:46Z</time>
      </trkpt>
      <trkpt lat="47.84119" lon="-2.73617">
        <ele>124</ele>
        <time>2017-01-14T14:20:46Z</time>
      </trkpt>
      <trkpt lat="47.84124" lon="-2.7357">
        <ele>125</ele>
        <time>2017-01-14T14:22:46Z</time>
      </trkpt>
      <trkpt lat="47.84127" lon="-2.73535">
        <ele>126</ele>
        <time>2017-01-14T14:24:46Z</time>
      </trkpt>
      <trkpt lat="47.84128" lon="-2.73505">
        <ele>126</ele>
        <time>2017-01-14T14:26:46Z</time>
      </trkpt>
      <trkpt lat="47.84126" lon="-2.73489">
        <ele>126</ele>
        <time>2017-01-14T14:28:46Z</time>
      </trkpt>
      <trkpt lat="47.84123" lon="-2.73474">
        <ele>127</ele>
        <time>2017-01-14T14:30:46Z</time>
      </trkpt>
      <trkpt lat="47.84123" lon="-2.73438">
        <ele>128</ele>
        <time>2017-01-14T14:32:46Z</time>
      </trkpt>
      <trkpt lat="47.84129" lon="-2.73355">
        <ele>128</ele>
        <time>2017-01-14T14:34:46Z</time>
      </trkpt>
      <trkpt lat="47.84128" lon="-2.73331">
        <ele>128</ele>
        <time>2017-01-14T14:36:46Z</time>
      </trkpt>
      <trkpt lat="47.84128" lon="-2.73296">
        <ele>128</ele>
        <time>2017-01-14T14:38:46Z</time>
      </trkpt>
      <trkpt lat="47.84127" lon="-2.7326">
        <ele>129</ele>
        <time>2017-01-14T14:40:46Z</time>
      </trkpt>
      <trkpt lat="47.84121" lon="-2.73228">
        <ele>129</ele>
        <time>2017-01-14T14:42:46Z</time>
      </trkpt>
      <trkpt lat="47.84123" lon="-2.73195">
        <ele>130</ele>
        <time>2017-01-14T14:44:46Z</time>
      </trkpt>
      <trkpt lat="47.84123" lon="-2.73158">
        <ele>131</ele>
        <time>2017-01-14T14:46:46Z</time>
      </trkpt>
      <trkpt lat="47.84122" lon="-2.73147">
        <ele>132</ele>
        <time>2017-01-14T14:48:46Z</time>
      </trkpt>
      <trkpt lat="47.8413" lon="-2.73097">
        <ele>132</ele>
        <time>2017-01-14T14:50:46Z</time>
      </trkpt>
      <trkpt lat="47.84131" lon="-2.73056">
        <ele>133</ele>
        <time>2017-01-14T14:52:46Z</time>
      </trkpt>
      <trkpt lat="47.84137" lon="-2.73016">
        <ele>133</ele>
        <time>2017-01-14T14:54:46Z</time>
      </trkpt>
      <trkpt lat="47.84137" lon="-2.73013">
        <ele>133</ele>
        <time>2017-01-14T14:56:46Z</time>
      </trkpt>
      <trkpt lat="47.84139" lon="-2.72992">
        <ele>133</ele>
        <time>2017-01-14T14:58:46Z</time>
      </trkpt>
      <trkpt lat="47.84141" lon="-2.7298">
        <ele>133</ele>
        <time>2017-01-14T15:00:46Z</time>
      </trkpt>
      <trkpt lat="47.84142" lon="-2.72925">
        <ele>134</ele>
        <time>2017-01-14T15:02:46Z</time>
      </trkpt>
      <trkpt lat="47.84142" lon="-2.72915">
        <ele>134</ele>
        <time>2017-01-14T15:04:46Z</time>
      </trkpt>
      <trkpt lat="47.84143" lon="-2.72877">
        <ele>134</ele>
        <time>2017-01-14T15:06:46Z</time>
      </trkpt>
      <trkpt lat="47.8415" lon="-2.72806">
        <ele>134</ele>
        <time>2017-01-14T15:08:46Z</time>
      </trkpt>
      <trkpt lat="47.84147" lon="-2.72778">
        <ele>133</ele>
        <time>2017-01-14T15:10:46Z</time>
      </trkpt>
      <trkpt lat="47.84131" lon="-2.72742">
        <ele>134</ele>
        <time>2017-01-14T15:12:46Z</time>
      </trkpt>
      <trkpt lat="47.84121" lon="-2.72706">
        <ele>135</ele>
        <time>2017-01-14T15:14:46Z</time>
      </trkpt>
      <trkpt lat="47.84116" lon="-2.72694">
        <ele>135</ele>
        <time>2017-01-14T15:16:46Z</time>
      </trkpt>
      <trkpt lat="47.841" lon="-2.72656">
        <ele>136</ele>
        <time>2017-01-14T15:18:46Z</time>
      </trkpt>
      <trkpt lat="47.84097" lon="-2.72643">
        <ele>136</ele>
        <time>2017-01-14T15:20:46Z</time>
      </trkpt>
      <trkpt lat="47.84083" lon="-2.72632">
        <ele>138</ele>
        <time>2017-01-14T15:22:46Z</time>
      </trkpt>
      <trkpt lat="47.84083" lon="-2.72631">
        <ele>138</ele>
        <time>2017-01-14T15:24:46Z</time>
      </trkpt>
      <trkpt lat="47.84083" lon="-2.7263">
        <ele>138</ele>
        <time>2017-01-14T15:26:46Z</time>
      </trkpt>
      <trkpt lat="47.84083" lon="-2.72628">
        <ele>138</ele>
        <time>2017-01-14T15:28:46Z</time>
      </trkpt>
      <trkpt lat="47.84083" lon="-2.72632">
        <ele>138</ele>
        <time>2017-01-14T15:30:46Z</time>
      </trkpt>
      <trkpt lat="47.84084" lon="-2.72633">
        <ele>138</ele>
        <time>2017-01-14T15:32:46Z</time>
      </trkpt>
      <trkpt lat="47.84084" lon="-2.72635">
        <ele>138</ele>
        <time>2017-01-14T15:34:46Z</time>
      </trkpt>
      <trkpt lat="47.84084" lon="-2.72634">
        <ele>138</ele>
        <time>2017-01-14T15:36:46Z</time>
      </trkpt>
      <trkpt lat="47.84083" lon="-2.72633">
        <ele>138</ele>
        <time>2017-01-14T15:38:46Z</time>
      </trkpt>
      <trkpt lat="47.84083" lon="-2.72633">
        <ele>138</ele>
        <time>2017-01-14T15:40:46Z</time>
      </trkpt>
      <trkpt lat="47.84083" lon="-2.72632">
        <ele>138</ele>
        <time>2017-01-14T15:42:46Z</time>
      </trkpt>
      <trkpt lat="47.84084" lon="-2.7263">
        <ele>137</ele>
        <time>2017-01-14T15:44:46Z</time>
      </trkpt>
      <trkpt lat="47.84082" lon="-2.7261">
        <ele>137</ele>
        <time>2017-01-14T15:46:46Z</time>
      </trkpt>
      <trkpt lat="47.8408" lon="-2.72603">
        <ele>137</ele>
        <time>2017-01-14T15:48:46Z</time>
      </trkpt>
      <trkpt lat="47.84079" lon="-2.72599">
        <ele>137</ele>
        <time>2017-01-14T15:50:46Z</time>
      </trkpt>
      <trkpt lat="47.84077" lon="-2.72594">
        <ele>137</ele>
        <time>2017-01-14T15:52:46Z</time>
      </trkpt>
      <trkpt lat="47.84071" lon="-2.72562">
        <ele>136</ele>
        <time>2017-01-14T15:54:46Z</time>
      </trkpt>
      <trkpt lat="47.84072" lon="-2.72529">
        <ele>136</ele>
        <time>2017-01-14T15:56:46Z</time>
      </trkpt>
      <trkpt lat="47.84073" lon="-2.72496">
        <ele>136</ele>
        <time>2017-01-14T15:58:46Z</time>
      </trkpt>
      <trkpt lat="47.84072" lon="-2.72461">
        <ele>135</ele>
        <time>2017-01-14T16:00:46Z</time>
      </trkpt>
      <trkpt lat="47.84072" lon="-2.72428">
        <ele>134</ele>
        <time>2017-01-14T16:02:46Z</time>
      </trkpt>
      <trkpt lat="47.8407" lon="-2.72383">
        <ele>131</ele>
        <time>2017-01-14T16:04:46Z</time>
      </trkpt>
      <trkpt lat="47.84072" lon="-2.72366">
        <ele>130</ele>
        <time>2017-01-14T16:06:46Z</time>
      </trkpt>
      <trkpt lat="47.84075" lon="-2.72327">
        <ele>127</ele>
        <time>2017-01-14T16:08:46Z</time>
      </trkpt>
      <trkpt lat="47.84074" lon="-2.72288">
        <ele>124</ele>
        <time>2017-01-14T16:10:46Z</time>
      </trkpt>
      <trkpt lat="47.84069" lon="-2.72248">
        <ele>121</ele>
        <time>2017-01-14T16:12:46Z</time>
      </trkpt>
      <trkpt lat="47.84087" lon="-2.72225">
        <ele>120</ele>
        <time>2017-01-14T16:14:46Z</time>
      </trkpt>
      <trkpt lat="47.8411" lon="-2.72228">
        <ele>120</ele>
        <time>2017-01-14T16:16:46Z</time>
      </trkpt>
      <trkpt lat="47.84135" lon="-2.72218">
        <ele>118</ele>
        <time>2017-01-14T16:18:46Z</time>
      </trkpt>
      <trkpt lat="47.84144" lon="-2.72182">
        <ele>117</ele>
        <time>2017-01-14T16:20:46Z</time>
      </trkpt>
      <trkpt lat="47.84149" lon="-2.72113">
        <ele>115</ele>
        <time>2017-01-14T16:22:46Z</time>
      </trkpt>
      <trkpt lat="47.84156" lon="-2.72038">
        <ele>114</ele>
        <time>2017-01-14T16:24:46Z</time>
      </trkpt>
      <trkpt lat="47.84159" lon="-2.71993">
        <ele>113</ele>
        <time>2017-01-14T16:26:46Z</time>
      </trkpt>
      <trkpt lat="47.84151" lon="-2.71963">
        <ele>112</ele>
        <time>2017-01-14T16:28:46Z</time>
      </trkpt>
      <trkpt lat="47.8413" lon="-2.71949">
        <ele>111</ele>
        <time>2017-01-14T16:30:46Z</time>
      </trkpt>
      <trkpt lat="47.84122" lon="-2.71947">
        <ele>110</ele>
        <time>2017-01-14T16:32:46Z</time>
      </trkpt>
      <trkpt lat="47.84117" lon="-2.71944">
        <ele>110</ele>
        <time>2017-01-14T16:34:46Z</time>
      </trkpt>
      <trkpt lat="47.84103" lon="-2.71919">
        <ele>108</ele>
        <time>2017-01-14T16:36:46Z</time>
      </trkpt>
      <trkpt lat="47.841" lon="-2.71913">
        <ele>108</ele>
        <time>2017-01-14T16:38:46Z</time>
      </trkpt>
      <trkpt lat="47.84082" lon="-2.71885">
        <ele>107</ele>
        <time>2017-01-14T16:40:46Z</time>
      </trkpt>
      <trkpt lat="47.8408" lon="-2.71881">
        <ele>107</ele>
        <time>2017-01-14T16:42:46Z</time>
      </trkpt>
      <trkpt lat="47.84063" lon="-2.71854">
        <ele>107</ele>
        <time>2017-01-14T16:44:46Z</time>
      </trkpt>
      <trkpt lat="47.84044" lon="-2.71841">
        <ele>107</ele>
        <time>2017-01-14T16:46:46Z</time>
      </trkpt>
      <trkpt lat="47.84027" lon="-2.7183">
        <ele>108</ele>
        <time>2017-01-14T16:48:46Z</time>
      </trkpt>
      <trkpt lat="47.84025" lon="-2.71805">
        <ele>109</ele>
        <time>2017-01-14T16:50:46Z</time>
      </trkpt>
      <trkpt lat="47.84034" lon="-2.71741">
        <ele>113</ele>
        <time>2017-01-14T16:52:46Z</time>
      </trkpt>
      <trkpt lat="47.84039" lon="-2.71687">
        <ele>114</ele>
        <time>2017-01-14T16:54:46Z</time>
      </trkpt>
      <trkpt lat="47.8404" lon="-2.71679">
        <ele>115</ele>
        <time>2017-01-14T16:56:46Z</time>
      </trkpt>
      <trkpt lat="47.84026" lon="-2.71673">
        <ele>116</ele>
        <time>2017-01-14T16:58:46Z</time>
      </trkpt>
      <trkpt lat="47.84021" lon="-2.71673">
        <ele>116</ele>
        <time>2017-01-14T17:00:46Z</time>
      </trkpt>
      <trkpt lat="47.84007" lon="-2.71675">
        <ele>117</ele>
        <time>2017-01-14T17:02:46Z</time>
      </trkpt>
      <trkpt lat="47.84002" lon="-2.71677">
        <ele>117</ele>
        <time>2017-01-14T17:04:46Z</time>
      </trkpt>
      <trkpt lat="47.83999" lon="-2.71681">
        <ele>117</ele>
        <time>2017-01-14T17:06:46Z</time>
      </trkpt>
      <trkpt lat="47.83996" lon="-2.71685">
        <ele>118</ele>
        <time>2017-01-14T17:08:46Z</time>
      </trkpt>
      <trkpt lat="47.83993" lon="-2.71691">
        <ele>118</ele>
        <time>2017-01-14T17:10:46Z</time>
      </trkpt>
      <trkpt lat="47.83987" lon="-2.71704">
        <ele>118</ele>
        <time>2017-01-14T17:12:46Z</time>
      </trkpt>
      <trkpt lat="47.83985" lon="-2.71711">
        <ele>117</ele>
        <time>2017-01-14T17:14:46Z</time>
      </trkpt>
      <trkpt lat="47.83977" lon="-2.71727">
        <ele>117</ele>
        <time>2017-01-14T17:16:46Z</time>
      </trkpt>
      <trkpt lat="47.83973" lon="-2.71729">
        <ele>118</ele>
        <time>2017-01-14T17:18:46Z</time>
      </trkpt>
      <trkpt lat="47.83967" lon="-2.71727">
        <ele>118</ele>
        <time>2017-01-14T17:20:46Z</time>
      </trkpt>
      <trkpt lat="47.83954" lon="-2.71712">
        <ele>120</ele>
        <time>2017-01-14T17:22:46Z</time>
      </trkpt>
      <trkpt lat="47.83953" lon="-2.7171">
        <ele>121</ele>
        <time>2017-01-14T17:24:46Z</time>
      </trkpt>
      <trkpt lat="47.83946" lon="-2.71689">
        <ele>123</ele>
        <time>2017-01-14T17:26:46Z</time>
      </trkpt>
      <trkpt lat="47.83942" lon="-2.71672">
        <ele>124</ele>
        <time>2017-01-14T17:28:46Z</time>
      </trkpt>
      <trkpt lat="47.83927" lon="-2.71615">
        <ele>128</ele>
        <time>2017-01-14T17:30:46Z</time>
      </trkpt>
      <trkpt lat="47.83926" lon="-2.71601">
        <ele>129</ele>
        <time>2017-01-14T17:32:46Z</time>
      </trkpt>
      <trkpt lat="47.83925" lon="-2.71563">
        <ele>131</ele>
        <time>2017-01-14T17:34:46Z</time>
      </trkpt>
      <trkpt lat="47.83924" lon="-2.71557">
        <ele>131</ele>
        <time>2017-01-14T17:36:46Z</time>
      </trkpt>
      <trkpt lat="47.83923" lon="-2.71543">
        <ele>132</ele>
        <time>2017-01-14T17:38:46Z</time>
      </trkpt>
      <trkpt lat="47.83922" lon="-2.71516">
        <ele>134</ele>
        <time>2017-01-14T17:40:46Z</time>
      </trkpt>
      <trkpt lat="47.8392" lon="-2.71512">
        <ele>134</ele>
        <time>2017-01-14T17:42:46Z</time>
      </trkpt>
      <trkpt lat="47.83914" lon="-2.71485">
        <ele>136</ele>
        <time>2017-01-14T17:44:46Z</time>
      </trkpt>
      <trkpt lat="47.83906" lon="-2.71458">
        <ele>137</ele>
        <time>2017-01-14T17:46:46Z</time>
      </trkpt>
      <trkpt lat="47.83906" lon="-2.71438">
        <ele>138</ele>
        <time>2017-01-14T17:48:46Z</time>
      </trkpt>
      <trkpt lat="47.83906" lon="-2.71429">
        <ele>138</ele>
        <time>2017-01-14T17:50:46Z</time>
      </trkpt>
      <trkpt lat="47.83903" lon="-2.71418">
        <ele>138</ele>
        <time>2017-01-14T17:52:46Z</time>
      </trkpt>
      <trkpt lat="47.83894" lon="-2.71388">
        <ele>139</ele>
        <time>2017-01-14T17:54:46Z</time>
      </trkpt>
      <trkpt lat="47.83891" lon="-2.7138">
        <ele>139</ele>
        <time>2017-01-14T17:56:46Z</time>
      </trkpt>
      <trkpt lat="47.83877" lon="-2.71353">
        <ele>139</ele>
        <time>2017-01-14T17:58:46Z</time>
      </trkpt>
      <trkpt lat="47.83871" lon="-2.71346">
        <ele>139</ele>
        <time>2017-01-14T18:00:46Z</time>
      </trkpt>
      <trkpt lat="47.83866" lon="-2.7133">
        <ele>140</ele>
        <time>2017-01-14T18:02:46Z</time>
      </trkpt>
      <trkpt lat="47.83865" lon="-2.71325">
        <ele>140</ele>
        <time>2017-01-14T18:04:46Z</time>
      </trkpt>
      <trkpt lat="47.83871" lon="-2.7129">
        <ele>141</ele>
        <time>2017-01-14T18:06:46Z</time>
      </trkpt>
      <trkpt lat="47.83869" lon="-2.7127">
        <ele>142</ele>
        <time>2017-01-14T18:08:46Z</time>
      </trkpt>
      <trkpt lat="47.83868" lon="-2.71264">
        <ele>143</ele>
        <time>2017-01-14T18:10:46Z</time>
      </trkpt>
      <trkpt lat="47.83863" lon="-2.71252">
        <ele>143</ele>
        <time>2017-01-14T18:12:46Z</time>
      </trkpt>
      <trkpt lat="47.8385" lon="-2.71238">
        <ele>145</ele>
        <time>2017-01-14T18:14:46Z</time>
      </trkpt>
      <trkpt lat="47.83847" lon="-2.71231">
        <ele>145</ele>
        <time>2017-01-14T18:16:46Z</time>
      </trkpt>
      <trkpt lat="47.83846" lon="-2.71221">
        <ele>146</ele>
        <time>2017-01-14T18:18:46Z</time>
      </trkpt>
      <trkpt lat="47.83843" lon="-2.71208">
        <ele>146</ele>
        <time>2017-01-14T18:20:46Z</time>
      </trkpt>
      <trkpt lat="47.83837" lon="-2.71193">
        <ele>147</ele>
        <time>2017-01-14T18:22:46Z</time>
      </trkpt>
      <trkpt lat="47.83827" lon="-2.71165">
        <ele>148</ele>
        <time>2017-01-14T18:24:46Z</time>
      </trkpt>
      <trkpt lat="47.83821" lon="-2.71135">
        <ele>147</ele>
        <time>2017-01-14T18:26:46Z</time>
      </trkpt>
      <trkpt lat="47.83814" lon="-2.71107">
        <ele>147</ele>
        <time>2017-01-14T18:28:46Z</time>
      </trkpt>
      <trkpt lat="47.83813" lon="-2.71098">
        <ele>147</ele>
        <time>2017-01-14T18:30:46Z</time>
      </trkpt>
      <trkpt lat="47.83806" lon="-2.71066">
        <ele>146</ele>
        <time>2017-01-14T18:32:46Z</time>
      </trkpt>
      <trkpt lat="47.83805" lon="-2.71034">
        <ele>146</ele>
        <time>2017-01-14T18:34:46Z</time>
      </trkpt>
      <trkpt lat="47.83805" lon="-2.70999">
        <ele>147</ele>
        <time>2017-01-14T18:36:46Z</time>
      </trkpt>
      <trkpt lat="47.83805" lon="-2.70977">
        <ele>147</ele>
        <time>2017-01-14T18:38:46Z</time>
      </trkpt>
      <trkpt lat="47.83803" lon="-2.7096">
        <ele>147</ele>
        <time>2017-01-14T18:40:46Z</time>
      </trkpt>
      <trkpt lat="47.83808" lon="-2.70929">
        <ele>148</ele>
        <time>2017-01-14T18:42:46Z</time>
      </trkpt>
      <trkpt lat="47.83806" lon="-2.70917">
        <ele>148</ele>
        <time>2017-01-14T18:44:46Z</time>
      </trkpt>
      <trkpt lat="47.83795" lon="-2.70898">
        <ele>148</ele>
        <time>2017-01-14T18:46:46Z</time>
      </trkpt>
      <trkpt lat="47.83792" lon="-2.70889">
        <ele>148</ele>
        <time>2017-01-14T18:48:46Z</time>
      </trkpt>
      <trkpt lat="47.83799" lon="-2.70863">
        <ele>149</ele>
        <time>2017-01-14T18:50:46Z</time>
      </trkpt>
      <trkpt lat="47.83804" lon="-2.70848">
        <ele>149</ele>
        <time>2017-01-14T18:52:46Z</time>
      </trkpt>
      <trkpt lat="47.8381" lon="-2.70817">
        <ele>150</ele>
        <time>2017-01-14T18:54:46Z</time>
      </trkpt>
      <trkpt lat="47.83807" lon="-2.70808">
        <ele>150</ele>
        <time>2017-01-14T18:56:46Z</time>
      </trkpt>
      <trkpt lat="47.83804" lon="-2.70799">
        <ele>149</ele>
        <time>2017-01-14T18:58:46Z</time>
      </trkpt>
      <trkpt lat="47.83795" lon="-2.70768">
        <ele>148</ele>
        <time>2017-01-14T19:00:46Z</time>
      </trkpt>
      <trkpt lat="47.83796" lon="-2.70737">
        <ele>148</ele>
        <time>2017-01-14T19:02:46Z</time>
      </trkpt>
      <trkpt lat="47.83795" lon="-2.70732">
        <ele>148</ele>
        <time>2017-01-14T19:04:46Z</time>
      </trkpt>
      <trkpt lat="47.83775" lon="-2.70709">
        <ele>146</ele>
        <time>2017-01-14T19:06:46Z</time>
      </trkpt>
      <trkpt lat="47.83765" lon="-2.70683">
        <ele>145</ele>
        <time>2017-01-14T19:08:46Z</time>
      </trkpt>
      <trkpt lat="47.83763" lon="-2.70675">
        <ele>145</ele>
        <time>2017-01-14T19:10:46Z</time>
      </trkpt>
      <trkpt lat="47.83762" lon="-2.70672">
        <ele>145</ele>
        <time>2017-01-14T19:12:46Z</time>
      </trkpt>
      <trkpt lat="47.83758" lon="-2.70653">
        <ele>145</ele>
        <time>2017-01-14T19:14:46Z</time>
      </trkpt>
      <trkpt lat="47.83757" lon="-2.70617">
        <ele>145</ele>
        <time>2017-01-14T19:16:46Z</time>
      </trkpt>
      <trkpt lat="47.83755" lon="-2.70605">
        <ele>145</ele>
        <time>2017-01-14T19:18:46Z</time>
      </trkpt>
      <trkpt lat="47.83746" lon="-2.70603">
        <ele>145</ele>
        <time>2017-01-14T19:20:46Z</time>
      </trkpt>
      <trkpt lat="47.83739" lon="-2.70609">
        <ele>143</ele>
        <time>2017-01-14T19:22:46Z</time>
      </trkpt>
      <trkpt lat="47.83735" lon="-2.70606">
        <ele>143</ele>
        <time>2017-01-14T19:24:46Z</time>
      </trkpt>
      <trkpt lat="47.83733" lon="-2.70594">
        <ele>143</ele>
        <time>2017-01-14T19:26:46Z</time>
      </trkpt>
      <trkpt lat="47.83735" lon="-2.70587">
        <ele>143</ele>
        <time>2017-01-14T19:28:46Z</time>
      </trkpt>
      <trkpt lat="47.83735" lon="-2.70574">
        <ele>143</ele>
        <time>2017-01-14T19:30:46Z</time>
      </trkpt>
      <trkpt lat="47.8374" lon="-2.70542">
        <ele>145</ele>
        <time>2017-01-14T19:32:46Z</time>
      </trkpt>
      <trkpt lat="47.83735" lon="-2.70528">
        <ele>145</ele>
        <time>2017-01-14T19:34:46Z</time>
      </trkpt>
      <trkpt lat="47.83733" lon="-2.70509">
        <ele>145</ele>
        <time>2017-01-14T19:36:46Z</time>
      </trkpt>
      <trkpt lat="47.83732" lon="-2.70504">
        <ele>145</ele>
        <time>2017-01-14T19:38:46Z</time>
      </trkpt>
      <trkpt lat="47.83728" lon="-2.70471">
        <ele>145</ele>
        <time>2017-01-14T19:40:46Z</time>
      </trkpt>
      <trkpt lat="47.83721" lon="-2.70441">
        <ele>145</ele>
        <time>2017-01-14T19:42:46Z</time>
      </trkpt>
      <trkpt lat="47.83718" lon="-2.70417">
        <ele>145</ele>
        <time>2017-01-14T19:44:46Z</time>
      </trkpt>
      <trkpt lat="47.83707" lon="-2.70379">
        <ele>143</ele>
        <time>2017-01-14T19:46:46Z</time>
      </trkpt>
      <trkpt lat="47.83699" lon="-2.70352">
        <ele>141</ele>
        <time>2017-01-14T19:48:46Z</time>
      </trkpt>
      <trkpt lat="47.8369" lon="-2.7033">
        <ele>141</ele>
        <time>2017-01-14T19:50:46Z</time>
      </trkpt>
      <trkpt lat="47.83689" lon="-2.70323">
        <ele>141</ele>
        <time>2017-01-14T19:52:46Z</time>
      </trkpt>
      <trkpt lat="47.83679" lon="-2.70282">
        <ele>140</ele>
        <time>2017-01-14T19:54:46Z</time>
      </trkpt>
      <trkpt lat="47.83671" lon="-2.70248">
        <ele>140</ele>
        <time>2017-01-14T19:56:46Z</time>
      </trkpt>
      <trkpt lat="47.83664" lon="-2.70209">
        <ele>139</ele>
        <time>2017-01-14T19:58:46Z</time>
      </trkpt>
      <trkpt lat="47.83659" lon="-2.70176">
        <ele>138</ele>
        <time>2017-01-14T20:00:46Z</time>
      </trkpt>
      <trkpt lat="47.83654" lon="-2.70139">
        <ele>138</ele>
        <time>2017-01-14T20:02:46Z</time>
      </trkpt>
      <trkpt lat="47.83648" lon="-2.70105">
        <ele>139</ele>
        <time>2017-01-14T20:04:46Z</time>
      </trkpt>
      <trkpt lat="47.83647" lon="-2.70081">
        <ele>140</ele>
        <time>2017-01-14T20:06:46Z</time>
      </trkpt>
      <trkpt lat="47.83647" lon="-2.70054">
        <ele>141</ele>
        <time>2017-01-14T20:08:46Z</time>
      </trkpt>
      <trkpt lat="47.83663" lon="-2.70042">
        <ele>143</ele>
        <time>2017-01-14T20:10:46Z</time>
      </trkpt>
      <trkpt lat="47.83678" lon="-2.70022">
        <ele>143</ele>
        <time>2017-01-14T20:12:46Z</time>
      </trkpt>
      <trkpt lat="47.83687" lon="-2.7">
        <ele>143</ele>
        <time>2017-01-14T20:14:46Z</time>
      </trkpt>
      <trkpt lat="47.83681" lon="-2.6996">
        <ele>142</ele>
        <time>2017-01-14T20:16:46Z</time>
      </trkpt>
      <trkpt lat="47.83681" lon="-2.69956">
        <ele>142</ele>
        <time>2017-01-14T20:18:46Z</time>
      </trkpt>
      <trkpt lat="47.83684" lon="-2.69947">
        <ele>141</ele>
        <time>2017-01-14T20:20:46Z</time>
      </trkpt>
      <trkpt lat="47.83684" lon="-2.69923">
        <ele>140</ele>
        <time>2017-01-14T20:22:46Z</time>
      </trkpt>
      <trkpt lat="47.83681" lon="-2.69909">
        <ele>140</ele>
        <time>2017-01-14T20:24:46Z</time>
      </trkpt>
      <trkpt lat="47.83681" lon="-2.69892">
        <ele>139</ele>
        <time>2017-01-14T20:26:46Z</time>
      </trkpt>
      <trkpt lat="47.83678" lon="-2.69878">
        <ele>139</ele>
        <time>2017-01-14T20:28:46Z</time>
      </trkpt>
      <trkpt lat="47.83682" lon="-2.69843">
        <ele>136</ele>
        <time>2017-01-14T20:30:46Z</time>
      </trkpt>
      <trkpt lat="47.83684" lon="-2.69835">
        <ele>136</ele>
        <time>2017-01-14T20:32:46Z</time>
      </trkpt>
      <trkpt lat="47.83681" lon="-2.69825">
        <ele>135</ele>
        <time>2017-01-14T20:34:46Z</time>
      </trkpt>
      <trkpt lat="47.83675" lon="-2.69816">
        <ele>135</ele>
        <time>2017-01-14T20:36:46Z</time>
      </trkpt>
      <trkpt lat="47.8367" lon="-2.69802">
        <ele>135</ele>
        <time>2017-01-14T20:38:46Z</time>
      </trkpt>
      <trkpt lat="47.83657" lon="-2.69775">
        <ele>133</ele>
        <time>2017-01-14T20:40:46Z</time>
      </trkpt>
      <trkpt lat="47.8365" lon="-2.69767">
        <ele>132</ele>
        <time>2017-01-14T20:42:46Z</time>
      </trkpt>
      <trkpt lat="47.83646" lon="-2.69759">
        <ele>132</ele>
        <time>2017-01-14T20:44:46Z</time>
      </trkpt>
      <trkpt lat="47.83629" lon="-2.69732">
        <ele>131</ele>
        <time>2017-01-14T20:46:46Z</time>
      </trkpt>
      <trkpt lat="47.8362" lon="-2.69695">
        <ele>130</ele>
        <time>2017-01-14T20:48:46Z</time>
      </trkpt>
      <trkpt lat="47.83617" lon="-2.69652">
        <ele>130</ele>
        <time>2017-01-14T20:50:46Z</time>
      </trkpt>
      <trkpt lat="47.83611" lon="-2.69627">
        <ele>130</ele>
        <time>2017-01-14T20:52:46Z</time>
      </trkpt>
      <trkpt lat="47.83608" lon="-2.69618">
        <ele>130</ele>
        <time>2017-01-14T20:54:46Z</time>
      </trkpt>
      <trkpt lat="47.83602" lon="-2.69602">
        <ele>130</ele>
        <time>2017-01-14T20:56:46Z</time>
      </trkpt>
      <trkpt lat="47.836" lon="-2.69597">
        <ele>130</ele>
        <time>2017-01-14T20:58:46Z</time>
      </trkpt>
      <trkpt lat="47.83591" lon="-2.69589">
        <ele>130</ele>
        <time>2017-01-14T21:00:46Z</time>
      </trkpt>
      <trkpt lat="47.83584" lon="-2.69587">
        <ele>130</ele>
        <time>2017-01-14T21:02:46Z</time>
      </trkpt>
      <trkpt lat="47.83574" lon="-2.69547">
        <ele>129</ele>
        <time>2017-01-14T21:04:46Z</time>
      </trkpt>
      <trkpt lat="47.83568" lon="-2.69512">
        <ele>129</ele>
        <time>2017-01-14T21:06:46Z</time>
      </trkpt>
      <trkpt lat="47.83567" lon="-2.69472">
        <ele>129</ele>
        <time>2017-01-14T21:08:46Z</time>
      </trkpt>
      <trkpt lat="47.83555" lon="-2.69433">
        <ele>129</ele>
        <time>2017-01-14T21:10:46Z</time>
      </trkpt>
      <trkpt lat="47.8355" lon="-2.6942">
        <ele>130</ele>
        <time>2017-01-14T21:12:46Z</time>
      </trkpt>
      <trkpt lat="47.83547" lon="-2.69412">
        <ele>130</ele>
        <time>2017-01-14T21:14:46Z</time>
      </trkpt>
      <trkpt lat="47.83553" lon="-2.69377">
        <ele>129</ele>
        <time>2017-01-14T21:16:46Z</time>
      </trkpt>
      <trkpt lat="47.83556" lon="-2.6934">
        <ele>129</ele>
        <time>2017-01-14T21:18:46Z</time>
      </trkpt>
      <trkpt lat="47.83558" lon="-2.69316">
        <ele>129</ele>
        <time>2017-01-14T21:20:46Z</time>
      </trkpt>
      <trkpt lat="47.83557" lon="-2.69305">
        <ele>128</ele>
        <time>2017-01-14T21:22:46Z</time>
      </trkpt>
      <trkpt lat="47.83558" lon="-2.69286">
        <ele>128</ele>
        <time>2017-01-14T21:24:46Z</time>
      </trkpt>
      <trkpt lat="47.83559" lon="-2.69247">
        <ele>127</ele>
        <time>2017-01-14T21:26:46Z</time>
      </trkpt>
      <trkpt lat="47.83559" lon="-2.69192">
        <ele>126</ele>
        <time>2017-01-14T21:28:46Z</time>
      </trkpt>
      <trkpt lat="47.83561" lon="-2.69181">
        <ele>126</ele>
        <time>2017-01-14T21:30:46Z</time>
      </trkpt>
      <trkpt lat="47.83553" lon="-2.69156">
        <ele>126</ele>
        <time>2017-01-14T21:32:46Z</time>
      </trkpt>
      <trkpt lat="47.83547" lon="-2.69131">
        <ele>126</ele>
        <time>2017-01-14T21:34:46Z</time>
      </trkpt>
      <trkpt lat="47.83547" lon="-2.69126">
        <ele>126</ele>
        <time>2017-01-14T21:36:46Z</time>
      </trkpt>
      <trkpt lat="47.83546" lon="-2.69121">
        <ele>126</ele>
        <time>2017-01-14T21:38:46Z</time>
      </trkpt>
      <trkpt lat="47.83528" lon="-2.69061">
        <ele>126</ele>
        <time>2017-01-14T21:40:46Z</time>
      </trkpt>
      <trkpt lat="47.83524" lon="-2.69043">
        <ele>125</ele>
        <time>2017-01-14T21:42:46Z</time>
      </trkpt>
      <trkpt lat="47.83518" lon="-2.69025">
        <ele>124</ele>
        <time>2017-01-14T21:44:46Z</time>
      </trkpt>
      <trkpt lat="47.83513" lon="-2.69007">
        <ele>124</ele>
        <time>2017-01-14T21:46:46Z</time>
      </trkpt>
      <trkpt lat="47.8351" lon="-2.69001">
        <ele>123</ele>
        <time>2017-01-14T21:48:46Z</time>
      </trkpt>
      <trkpt lat="47.83507" lon="-2.68997">
        <ele>123</ele>
        <time>2017-01-14T21:50:46Z</time>
      </trkpt>
      <trkpt lat="47.83498" lon="-2.68989">
        <ele>122</ele>
        <time>2017-01-14T21:52:46Z</time>
      </trkpt>
      <trkpt lat="47.83486" lon="-2.68953">
        <ele>120</ele>
        <time>2017-01-14T21:54:46Z</time>
      </trkpt>
      <trkpt lat="47.83485" lon="-2.68947">
        <ele>119</ele>
        <time>2017-01-14T21:56:46Z</time>
      </trkpt>
      <trkpt lat="47.83475" lon="-2.68917">
        <ele>117</ele>
        <time>2017-01-14T21:58:46Z</time>
      </trkpt>
      <trkpt lat="47.83473" lon="-2.68911">
        <ele>117</ele>
        <time>2017-01-14T22:00:46Z</time>
      </trkpt>
      <trkpt lat="47.83469" lon="-2.68902">
        <ele>117</ele>
        <time>2017-01-14T22:02:46Z</time>
      </trkpt>
      <trkpt lat="47.83464" lon="-2.68898">
        <ele>116</ele>
        <time>2017-01-14T22:04:46Z</time>
      </trkpt>
      <trkpt lat="47.83448" lon="-2.68893">
        <ele>115</ele>
        <time>2017-01-14T22:06:46Z</time>
      </trkpt>
      <trkpt lat="47.83432" lon="-2.68882">
        <ele>114</ele>
        <time>2017-01-14T22:08:46Z</time>
      </trkpt>
      <trkpt lat="47.83422" lon="-2.68872">
        <ele>113</ele>
        <time>2017-01-14T22:10:46Z</time>
      </trkpt>
      <trkpt lat="47.83416" lon="-2.68866">
        <ele>112</ele>
        <time>2017-01-14T22:12:46Z</time>
      </trkpt>
      <trkpt lat="47.8342" lon="-2.68863">
        <ele>113</ele>
        <time>2017-01-14T22:14:46Z</time>
      </trkpt>
      <trkpt lat="47.8344" lon="-2.68844">
        <ele>114</ele>
        <time>2017-01-14T22:16:46Z</time>
      </trkpt>
      <trkpt lat="47.83443" lon="-2.68844">
        <ele>114</ele>
        <time>2017-01-14T22:18:46Z</time>
      </trkpt>
      <trkpt lat="47.83444" lon="-2.68841">
        <ele>114</ele>
        <time>2017-01-14T22:20:46Z</time>
      </trkpt>
      <trkpt lat="47.83444" lon="-2.68835">
        <ele>114</ele>
        <time>2017-01-14T22:22:46Z</time>
      </trkpt>
      <trkpt lat="47.8344" lon="-2.68809">
        <ele>116</ele>
        <time>2017-01-14T22:24:46Z</time>
      </trkpt>
      <trkpt lat="47.8344" lon="-2.68805">
        <ele>116</ele>
        <time>2017-01-14T22:26:46Z</time>
      </trkpt>
      <trkpt lat="47.83444" lon="-2.6879">
        <ele>117</ele>
        <time>2017-01-14T22:28:46Z</time>
      </trkpt>
      <trkpt lat="47.83444" lon="-2.68744">
        <ele>120</ele>
        <time>2017-01-14T22:30:46Z</time>
      </trkpt>
      <trkpt lat="47.83446" lon="-2.68722">
        <ele>122</ele>
        <time>2017-01-14T22:32:46Z</time>
      </trkpt>
      <trkpt lat="47.8345" lon="-2.68713">
        <ele>123</ele>
        <time>2017-01-14T22:34:46Z</time>
      </trkpt>
      <trkpt lat="47.8345" lon="-2.68705">
        <ele>123</ele>
        <time>2017-01-14T22:36:46Z</time>
      </trkpt>
      <trkpt lat="47.83439" lon="-2.68692">
        <ele>123</ele>
        <time>2017-01-14T22:38:46Z</time>
      </trkpt>
      <trkpt lat="47.83429" lon="-2.68677">
        <ele>123</ele>
        <time>2017-01-14T22:40:46Z</time>
      </trkpt>
      <trkpt lat="47.8341" lon="-2.68667">
        <ele>121</ele>
        <time>2017-01-14T22:42:46Z</time>
      </trkpt>
      <trkpt lat="47.83398" lon="-2.68633">
        <ele>122</ele>
        <time>2017-01-14T22:44:46Z</time>
      </trkpt>
      <trkpt lat="47.83393" lon="-2.68606">
        <ele>122</ele>
        <time>2017-01-14T22:46:46Z</time>
      </trkpt>
      <trkpt lat="47.8339" lon="-2.68566">
        <ele>124</ele>
        <time>2017-01-14T22:48:46Z</time>
      </trkpt>
      <trkpt lat="47.8339" lon="-2.68554">
        <ele>124</ele>
        <time>2017-01-14T22:50:46Z</time>
      </trkpt>
      <trkpt lat="47.83389" lon="-2.68523">
        <ele>126</ele>
        <time>2017-01-14T22:52:46Z</time>
      </trkpt>
      <trkpt lat="47.83378" lon="-2.68458">
        <ele>125</ele>
        <time>2017-01-14T22:54:46Z</time>
      </trkpt>
      <trkpt lat="47.83377" lon="-2.68451">
        <ele>125</ele>
        <time>2017-01-14T22:56:46Z</time>
      </trkpt>
      <trkpt lat="47.83345" lon="-2.68351">
        <ele>121</ele>
        <time>2017-01-14T22:58:46Z</time>
      </trkpt>
      <trkpt lat="47.83344" lon="-2.68345">
        <ele>120</ele>
        <time>2017-01-14T23:00:46Z</time>
      </trkpt>
      <trkpt lat="47.83349" lon="-2.68269">
        <ele>121</ele>
        <time>2017-01-14T23:02:46Z</time>
      </trkpt>
      <trkpt lat="47.83336" lon="-2.68218">
        <ele>120</ele>
        <time>2017-01-14T23:04:46Z</time>
      </trkpt>
      <trkpt lat="47.83333" lon="-2.68212">
        <ele>120</ele>
        <time>2017-01-14T23:06:46Z</time>
      </trkpt>
      <trkpt lat="47.83326" lon="-2.68195">
        <ele>119</ele>
        <time>2017-01-14T23:08:46Z</time>
      </trkpt>
      <trkpt lat="47.83323" lon="-2.6819">
        <ele>118</ele>
        <time>2017-01-14T23:10:46Z</time>
      </trkpt>
      <trkpt lat="47.83301" lon="-2.6813">
        <ele>116</ele>
        <time>2017-01-14T23:12:46Z</time>
      </trkpt>
      <trkpt lat="47.83299" lon="-2.68124">
        <ele>115</ele>
        <time>2017-01-14T23:14:46Z</time>
      </trkpt>
      <trkpt lat="47.8329" lon="-2.68045">
        <ele>113</ele>
        <time>2017-01-14T23:16:46Z</time>
      </trkpt>
      <trkpt lat="47.83285" lon="-2.67965">
        <ele>112</ele>
        <time>2017-01-14T23:18:46Z</time>
      </trkpt>
      <trkpt lat="47.83277" lon="-2.67917">
        <ele>111</ele>
        <time>2017-01-14T23:20:46Z</time>
      </trkpt>
      <trkpt lat="47.83274" lon="-2.67888">
        <ele>111</ele>
        <time>2017-01-14T23:22:46Z</time>
      </trkpt>
      <trkpt lat="47.83275" lon="-2.67856">
        <ele>110</ele>
        <time>2017-01-14T23:24:46Z</time>
      </trkpt>
      <trkpt lat="47.83285" lon="-2.67854">
        <ele>111</ele>
        <time>2017-01-14T23:26:46Z</time>
      </trkpt>
      <trkpt lat="47.83288" lon="-2.67857">
        <ele>111</ele>
        <time>2017-01-14T23:28:46Z</time>
      </trkpt>
      <trkpt lat="47.83303" lon="-2.67861">
        <ele>112</ele>
        <time>2017-01-14T23:30:46Z</time>
      </trkpt>
      <trkpt lat="47.83328" lon="-2.67824">
        <ele>114</ele>
        <time>2017-01-14T23:32:46Z</time>
      </trkpt>
      <trkpt lat="47.83334" lon="-2.6778">
        <ele>114</ele>
        <time>2017-01-14T23:34:46Z</time>
      </trkpt>
      <trkpt lat="47.83329" lon="-2.67748">
        <ele>113</ele>
        <time>2017-01-14T23:36:46Z</time>
      </trkpt>
      <trkpt lat="47.83326" lon="-2.67739">
        <ele>113</ele>
        <time>2017-01-14T23:38:46Z</time>
      </trkpt>
      <trkpt lat="47.83316" lon="-2.67693">
        <ele>113</ele>
        <time>2017-01-14T23:40:46Z</time>
      </trkpt>
      <trkpt lat="47.83302" lon="-2.67645">
        <ele>112</ele>
        <time>2017-01-14T23:42:46Z</time>
      </trkpt>
      <trkpt lat="47.8329" lon="-2.67615">
        <ele>112</ele>
        <time>2017-01-14T23:44:46Z</time>
      </trkpt>
      <trkpt lat="47.83286" lon="-2.67601">
        <ele>111</ele>
        <time>2017-01-14T23:46:46Z</time>
      </trkpt>
      <trkpt lat="47.83286" lon="-2.67596">
        <ele>112</ele>
        <time>2017-01-14T23:48:46Z</time>
      </trkpt>
      <trkpt lat="47.8328" lon="-2.67552">
        <ele>110</ele>
        <time>2017-01-14T23:50:46Z</time>
      </trkpt>
      <trkpt lat="47.83267" lon="-2.67513">
        <ele>107</ele>
        <time>2017-01-14T23:52:46Z</time>
      </trkpt>
      <trkpt lat="47.83266" lon="-2.67505">
        <ele>106</ele>
        <time>2017-01-14T23:54:46Z</time>
      </trkpt>
      <trkpt lat="47.83259" lon="-2.67476">
        <ele>105</ele>
        <time>2017-01-14T23:56:46Z</time>
      </trkpt>
      <trkpt lat="47.83253" lon="-2.67433">
        <ele>103</ele>
        <time>2017-01-14T23:58:46Z</time>
      </trkpt>
      <trkpt lat="47.83249" lon="-2.67392">
        <ele>101</ele>
        <time>2017-01-15T00:00:46Z</time>
      </trkpt>
      <trkpt lat="47.83243" lon="-2.67344">
        <ele>100</ele>
        <time>2017-01-15T00:02:46Z</time>
      </trkpt>
      <trkpt lat="47.83237" lon="-2.673">
        <ele>97</ele>
        <time>2017-01-15T00:04:46Z</time>
      </trkpt>
      <trkpt lat="47.83233" lon="-2.67285">
        <ele>96</ele>
        <time>2017-01-15T00:06:46Z</time>
      </trkpt>
      <trkpt lat="47.8323" lon="-2.67264">
        <ele>95</ele>
        <time>2017-01-15T00:08:46Z</time>
      </trkpt>
      <trkpt lat="47.83226" lon="-2.67219">
        <ele>92</ele>
        <time>2017-01-15T00:10:46Z</time>
      </trkpt>
      <trkpt lat="47.83223" lon="-2.67197">
        <ele>91</ele>
        <time>2017-01-15T00:12:46Z</time>
      </trkpt>
      <trkpt lat="47.83223" lon="-2.6719">
        <ele>90</ele>
        <time>2017-01-15T00:14:46Z</time>
      </trkpt>
      <trkpt lat="47.83217" lon="-2.67148">
        <ele>89</ele>
        <time>2017-01-15T00:16:46Z</time>
      </trkpt>
      <trkpt lat="47.83213" lon="-2.67114">
        <ele>89</ele>
        <time>2017-01-15T00:18:46Z</time>
      </trkpt>
      <trkpt lat="47.83206" lon="-2.67075">
        <ele>89</ele>
        <time>2017-01-15T00:20:46Z</time>
      </trkpt>
      <trkpt lat="47.83199" lon="-2.67031">
        <ele>89</ele>
        <time>2017-01-15T00:22:46Z</time>
      </trkpt>
      <trkpt lat="47.83196" lon="-2.67014">
        <ele>89</ele>
        <time>2017-01-15T00:24:46Z</time>
      </trkpt>
      <trkpt lat="47.83188" lon="-2.66971">
        <ele>88</ele>
        <time>2017-01-15T00:26:46Z</time>
      </trkpt>
      <trkpt lat="47.83179" lon="-2.66929">
        <ele>86</ele>
        <time>2017-01-15T00:28:46Z</time>
      </trkpt>
      <trkpt lat="47.83166" lon="-2.6689">
        <ele>83</ele>
        <time>2017-01-15T00:30:46Z</time>
      </trkpt>
      <trkpt lat="47.83144" lon="-2.66852">
        <ele>80</ele>
        <time>2017-01-15T00:32:46Z</time>
      </trkpt>
      <trkpt lat="47.8312" lon="-2.6682">
        <ele>79</ele>
        <time>2017-01-15T00:34:46Z</time>
      </trkpt>
      <trkpt lat="47.83102" lon="-2.66798">
        <ele>81</ele>
        <time>2017-01-15T00:36:46Z</time>
      </trkpt>
      <trkpt lat="47.83044" lon="-2.66784">
        <ele>81</ele>
        <time>2017-01-15T00:38:46Z</time>
      </trkpt>
      <trkpt lat="47.83017" lon="-2.66778">
        <ele>80</ele>
        <time>2017-01-15T00:40:46Z</time>
      </trkpt>
      <trkpt lat="47.83" lon="-2.66773">
        <ele>80</ele>
        <time>2017-01-15T00:42:46Z</time>
      </trkpt>
      <trkpt lat="47.82994" lon="-2.66769">
        <ele>80</ele>
        <time>2017-01-15T00:44:46Z</time>
      </trkpt>
      <trkpt lat="47.82989" lon="-2.66762">
        <ele>81</ele>
        <time>2017-01-15T00:46:46Z</time>
      </trkpt>
      <trkpt lat="47.82986" lon="-2.66753">
        <ele>82</ele>
        <time>2017-01-15T00:48:46Z</time>
      </trkpt>
      <trkpt lat="47.82983" lon="-2.66744">
        <ele>83</ele>
        <time>2017-01-15T00:50:46Z</time>
      </trkpt>
      <trkpt lat="47.82981" lon="-2.66734">
        <ele>84</ele>
        <time>2017-01-15T00:52:46Z</time>
      </trkpt>
      <trkpt lat="47.82979" lon="-2.66725">
        <ele>84</ele>
        <time>2017-01-15T00:54:46Z</time>
      </trkpt>
      <trkpt lat="47.82963" lon="-2.66637">
        <ele>88</ele>
        <time>2017-01-15T00:56:46Z</time>
      </trkpt>
      <trkpt lat="47.82963" lon="-2.66634">
        <ele>88</ele>
        <time>2017-01-15T00:58:46Z</time>
      </trkpt>
      <trkpt lat="47.82964" lon="-2.66631">
        <ele>88</ele>
        <time>2017-01-15T01:00:46Z</time>
      </trkpt>
      <trkpt lat="47.82964" lon="-2.66618">
        <ele>89</ele>
        <time>2017-01-15T01:02:46Z</time>
      </trkpt>
      <trkpt lat="47.82963" lon="-2.66608">
        <ele>89</ele>
        <time>2017-01-15T01:04:46Z</time>
      </trkpt>
      <trkpt lat="47.82962" lon="-2.66572">
        <ele>90</ele>
        <time>2017-01-15T01:06:46Z</time>
      </trkpt>
      <trkpt lat="47.82964" lon="-2.66526">
        <ele>91</ele>
        <time>2017-01-15T01:08:46Z</time>
      </trkpt>
      <trkpt lat="47.82961" lon="-2.6648">
        <ele>91</ele>
        <time>2017-01-15T01:10:46Z</time>
      </trkpt>
      <trkpt lat="47.82978" lon="-2.66447">
        <ele>93</ele>
        <time>2017-01-15T01:12:46Z</time>
      </trkpt>
      <trkpt lat="47.83039" lon="-2.66382">
        <ele>96</ele>
        <time>2017-01-15T01:14:46Z</time>
      </trkpt>
      <trkpt lat="47.83043" lon="-2.66344">
        <ele>96</ele>
        <time>2017-01-15T01:16:46Z</time>
      </trkpt>
      <trkpt lat="47.83032" lon="-2.66309">
        <ele>95</ele>
        <time>2017-01-15T01:18:46Z</time>
      </trkpt>
      <trkpt lat="47.83018" lon="-2.6627">
        <ele>95</ele>
        <time>2017-01-15T01:20:46Z</time>
      </trkpt>
      <trkpt lat="47.83015" lon="-2.66221">
        <ele>95</ele>
        <time>2017-01-15T01:22:46Z</time>
      </trkpt>
      <trkpt lat="47.8302" lon="-2.66172">
        <ele>95</ele>
        <time>2017-01-15T01:24:46Z</time>
      </trkpt>
      <trkpt lat="47.83025" lon="-2.66131">
        <ele>96</ele>
        <time>2017-01-15T01:26:46Z</time>
      </trkpt>
      <trkpt lat="47.83028" lon="-2.66095">
        <ele>96</ele>
        <time>2017-01-15T01:28:46Z</time>
      </trkpt>
      <trkpt lat="47.83031" lon="-2.66052">
        <ele>95</ele>
        <time>2017-01-15T01:30:46Z</time>
      </trkpt>
      <trkpt lat="47.83038" lon="-2.66011">
        <ele>95</ele>
        <time>2017-01-15T01:32:46Z</time>
      </trkpt>
      <trkpt lat="47.83041" lon="-2.65992">
        <ele>95</ele>
        <time>2017-01-15T01:34:46Z</time>
      </trkpt>
      <trkpt lat="47.83042" lon="-2.65986">
        <ele>95</ele>
        <time>2017-01-15T01:36:46Z</time>
      </trkpt>
      <trkpt lat="47.83048" lon="-2.6595">
        <ele>94</ele>
        <time>2017-01-15T01:38:46Z</time>
      </trkpt>
      <trkpt lat="47.83052" lon="-2.65926">
        <ele>93</ele>
        <time>2017-01-15T01:40:46Z</time>
      </trkpt>
      <trkpt lat="47.83054" lon="-2.65915">
        <ele>93</ele>
        <time>2017-01-15T01:42:46Z</time>
      </trkpt>
      <trkpt lat="47.83062" lon="-2.65872">
        <ele>90</ele>
        <time>2017-01-15T01:44:46Z</time>
      </trkpt>
      <trkpt lat="47.83068" lon="-2.6583">
        <ele>88</ele>
        <time>2017-01-15T01:46:46Z</time>
      </trkpt>
      <trkpt lat="47.83074" lon="-2.65796">
        <ele>86</ele>
        <time>2017-01-15T01:48:46Z</time>
      </trkpt>
      <trkpt lat="47.83075" lon="-2.65785">
        <ele>85</ele>
        <time>2017-01-15T01:50:46Z</time>
      </trkpt>
      <trkpt lat="47.83077" lon="-2.65779">
        <ele>85</ele>
        <time>2017-01-15T01:52:46Z</time>
      </trkpt>
      <trkpt lat="47.83095" lon="-2.6577">
        <ele>87</ele>
        <time>2017-01-15T01:54:46Z</time>
      </trkpt>
      <trkpt lat="47.83096" lon="-2.65769">
        <ele>87</ele>
        <time>2017-01-15T01:56:46Z</time>
      </trkpt>
      <trkpt lat="47.83115" lon="-2.65757">
        <ele>89</ele>
        <time>2017-01-15T01:58:46Z</time>
      </trkpt>
      <trkpt lat="47.83134" lon="-2.65748">
        <ele>92</ele>
        <time>2017-01-15T02:00:46Z</time>
      </trkpt>
      <trkpt lat="47.83141" lon="-2.65749">
        <ele>93</ele>
        <time>2017-01-15T02:02:46Z</time>
      </trkpt>
      <trkpt lat="47.83149" lon="-2.65753">
        <ele>94</ele>
        <time>2017-01-15T02:04:46Z</time>
      </trkpt>
      <trkpt lat="47.83165" lon="-2.65766">
        <ele>97</ele>
        <time>2017-01-15T02:06:46Z</time>
      </trkpt>
      <trkpt lat="47.83171" lon="-2.65771">
        <ele>98</ele>
        <time>2017-01-15T02:08:46Z</time>
      </trkpt>
      <trkpt lat="47.83175" lon="-2.65774">
        <ele>99</ele>
        <time>2017-01-15T02:10:46Z</time>
      </trkpt>
      <trkpt lat="47.83204" lon="-2.65771">
        <ele>103</ele>
        <time>2017-01-15T02:12:46Z</time>
      </trkpt>
      <trkpt lat="47.83218" lon="-2.65782">
        <ele>105</ele>
        <time>2017-01-15T02:14:46Z</time>
      </trkpt>
      <trkpt lat="47.83228" lon="-2.65779">
        <ele>107</ele>
        <time>2017-01-15T02:16:46Z</time>
      </trkpt>
      <trkpt lat="47.83248" lon="-2.65764">
        <ele>109</ele>
        <time>2017-01-15T02:18:46Z</time>
      </trkpt>
      <trkpt lat="47.83256" lon="-2.6576">
        <ele>111</ele>
        <time>2017-01-15T02:20:46Z</time>
      </trkpt>
      <trkpt lat="47.83281" lon="-2.65755">
        <ele>115</ele>
        <time>2017-01-15T02:22:46Z</time>
      </trkpt>
      <trkpt lat="47.83307" lon="-2.65745">
        <ele>120</ele>
        <time>2017-01-15T02:24:46Z</time>
      </trkpt>
      <trkpt lat="47.83311" lon="-2.65738">
        <ele>121</ele>
        <time>2017-01-15T02:26:46Z</time>
      </trkpt>
      <trkpt lat="47.83289" lon="-2.65704">
        <ele>118</ele>
        <time>2017-01-15T02:28:46Z</time>
      </trkpt>
      <trkpt lat="47.83271" lon="-2.65679">
        <ele>116</ele>
        <time>2017-01-15T02:30:46Z</time>
      </trkpt>
      <trkpt lat="47.83266" lon="-2.65671">
        <ele>115</ele>
        <time>2017-01-15T02:32:46Z</time>
      </trkpt>
      <trkpt lat="47.83251" lon="-2.65645">
        <ele>115</ele>
        <time>2017-01-15T02:34:46Z</time>
      </trkpt>
      <trkpt lat="47.8325" lon="-2.65641">
        <ele>115</ele>
        <time>2017-01-15T02:36:46Z</time>
      </trkpt>
      <trkpt lat="47.83251" lon="-2.65634">
        <ele>116</ele>
        <time>2017-01-15T02:38:46Z</time>
      </trkpt>
      <trkpt lat="47.83251" lon="-2.656">
        <ele>119</ele>
        <time>2017-01-15T02:40:46Z</time>
      </trkpt>
      <trkpt lat="47.83251" lon="-2.65589">
        <ele>121</ele>
        <time>2017-01-15T02:42:46Z</time>
      </trkpt>
      <trkpt lat="47.83257" lon="-2.6556">
        <ele>124</ele>
        <time>2017-01-15T02:44:46Z</time>
      </trkpt>
      <trkpt lat="47.83253" lon="-2.65529">
        <ele>125</ele>
        <time>2017-01-15T02:46:46Z</time>
      </trkpt>
      <trkpt lat="47.8325" lon="-2.65503">
        <ele>126</ele>
        <time>2017-01-15T02:48:46Z</time>
      </trkpt>
      <trkpt lat="47.83248" lon="-2.65495">
        <ele>126</ele>
        <time>2017-01-15T02:50:46Z</time>
      </trkpt>
      <trkpt lat="47.83245" lon="-2.65472">
        <ele>126</ele>
        <time>2017-01-15T02:52:46Z</time>
      </trkpt>
      <trkpt lat="47.83227" lon="-2.65455">
        <ele>122</ele>
        <time>2017-01-15T02:54:46Z</time>
      </trkpt>
      <trkpt lat="47.83224" lon="-2.65437">
        <ele>122</ele>
        <time>2017-01-15T02:56:46Z</time>
      </trkpt>
      <trkpt lat="47.83222" lon="-2.65426">
        <ele>122</ele>
        <time>2017-01-15T02:58:46Z</time>
      </trkpt>
      <trkpt lat="47.83213" lon="-2.65411">
        <ele>121</ele>
        <time>2017-01-15T03:00:46Z</time>
      </trkpt>
      <trkpt lat="47.83215" lon="-2.65386">
        <ele>123</ele>
        <time>2017-01-15T03:02:46Z</time>
      </trkpt>
      <trkpt lat="47.83212" lon="-2.65342">
        <ele>124</ele>
        <time>2017-01-15T03:04:46Z</time>
      </trkpt>
      <trkpt lat="47.8321" lon="-2.65314">
        <ele>125</ele>
        <time>2017-01-15T03:06:46Z</time>
      </trkpt>
      <trkpt lat="47.83211" lon="-2.65296">
        <ele>126</ele>
        <time>2017-01-15T03:08:46Z</time>
      </trkpt>
      <trkpt lat="47.83213" lon="-2.6529">
        <ele>127</ele>
        <time>2017-01-15T03:10:46Z</time>
      </trkpt>
      <trkpt lat="47.83211" lon="-2.65269">
        <ele>127</ele>
        <time>2017-01-15T03:12:46Z</time>
      </trkpt>
      <trkpt lat="47.83212" lon="-2.65256">
        <ele>128</ele>
        <time>2017-01-15T03:14:46Z</time>
      </trkpt>
      <trkpt lat="47.83213" lon="-2.65231">
        <ele>130</ele>
        <time>2017-01-15T03:16:46Z</time>
      </trkpt>
      <trkpt lat="47.83214" lon="-2.65205">
        <ele>132</ele>
        <time>2017-01-15T03:18:46Z</time>
      </trkpt>
      <trkpt lat="47.83211" lon="-2.65197">
        <ele>132</ele>
        <time>2017-01-15T03:20:46Z</time>
      </trkpt>
      <trkpt lat="47.83202" lon="-2.65154">
        <ele>132</ele>
        <time>2017-01-15T03:22:46Z</time>
      </trkpt>
      <trkpt lat="47.83202" lon="-2.65109">
        <ele>136</ele>
        <time>2017-01-15T03:24:46Z</time>
      </trkpt>
      <trkpt lat="47.83203" lon="-2.65098">
        <ele>137</ele>
        <time>2017-01-15T03:26:46Z</time>
      </trkpt>
      <trkpt lat="47.83204" lon="-2.65092">
        <ele>137</ele>
        <time>2017-01-15T03:28:46Z</time>
      </trkpt>
      <trkpt lat="47.8321" lon="-2.65055">
        <ele>141</ele>
        <time>2017-01-15T03:30:46Z</time>
      </trkpt>
      <trkpt lat="47.83203" lon="-2.65063">
        <ele>139</ele>
        <time>2017-01-15T03:32:46Z</time>
      </trkpt>
      <trkpt lat="47.83201" lon="-2.65061">
        <ele>139</ele>
        <time>2017-01-15T03:34:46Z</time>
      </trkpt>
      <trkpt lat="47.83203" lon="-2.65061">
        <ele>139</ele>
        <time>2017-01-15T03:36:46Z</time>
      </trkpt>
      <trkpt lat="47.83205" lon="-2.65059">
        <ele>140</ele>
        <time>2017-01-15T03:38:46Z</time>
      </trkpt>
      <trkpt lat="47.83206" lon="-2.65058">
        <ele>140</ele>
        <time>2017-01-15T03:40:46Z</time>
      </trkpt>
      <trkpt lat="47.83206" lon="-2.65057">
        <ele>140</ele>
        <time>2017-01-15T03:42:46Z</time>
      </trkpt>
      <trkpt lat="47.83207" lon="-2.65056">
        <ele>140</ele>
        <time>2017-01-15T03:44:46Z</time>
      </trkpt>
      <trkpt lat="47.83212" lon="-2.65041">
        <ele>142</ele>
        <time>2017-01-15T03:46:46Z</time>
      </trkpt>
      <trkpt lat="47.83213" lon="-2.65013">
        <ele>144</ele>
        <time>2017-01-15T03:48:46Z</time>
      </trkpt>
      <trkpt lat="47.83216" lon="-2.64994">
        <ele>146</ele>
        <time>2017-01-15T03:50:46Z</time>
      </trkpt>
      <trkpt lat="47.83217" lon="-2.64961">
        <ele>147</ele>
        <time>2017-01-15T03:52:46Z</time>
      </trkpt>
      <trkpt lat="47.83219" lon="-2.64949">
        <ele>148</ele>
        <time>2017-01-15T03:54:46Z</time>
      </trkpt>
      <trkpt lat="47.83221" lon="-2.64942">
        <ele>148</ele>
        <time>2017-01-15T03:56:46Z</time>
      </trkpt>
      <trkpt lat="47.83222" lon="-2.64931">
        <ele>149</ele>
        <time>2017-01-15T03:58:46Z</time>
      </trkpt>
      <trkpt lat="47.83224" lon="-2.64899">
        <ele>150</ele>
        <time>2017-01-15T04:00:46Z</time>
      </trkpt>
      <trkpt lat="47.83228" lon="-2.64867">
        <ele>151</ele>
        <time>2017-01-15T04:02:46Z</time>
      </trkpt>
      <trkpt lat="47.83228" lon="-2.6483">
        <ele>151</ele>
        <time>2017-01-15T04:04:46Z</time>
      </trkpt>
      <trkpt lat="47.83229" lon="-2.64796">
        <ele>152</ele>
        <time>2017-01-15T04:06:46Z</time>
      </trkpt>
      <trkpt lat="47.83232" lon="-2.64766">
        <ele>154</ele>
        <time>2017-01-15T04:08:46Z</time>
      </trkpt>
      <trkpt lat="47.8323" lon="-2.64748">
        <ele>154</ele>
        <time>2017-01-15T04:10:46Z</time>
      </trkpt>
      <trkpt lat="47.8323" lon="-2.64736">
        <ele>154</ele>
        <time>2017-01-15T04:12:46Z</time>
      </trkpt>
      <trkpt lat="47.83232" lon="-2.64722">
        <ele>155</ele>
        <time>2017-01-15T04:14:46Z</time>
      </trkpt>
      <trkpt lat="47.83249" lon="-2.64705">
        <ele>158</ele>
        <time>2017-01-15T04:16:46Z</time>
      </trkpt>
      <trkpt lat="47.83252" lon="-2.64704">
        <ele>158</ele>
        <time>2017-01-15T04:18:46Z</time>
      </trkpt>
      <trkpt lat="47.83297" lon="-2.64662">
        <ele>160</ele>
        <time>2017-01-15T04:20:46Z</time>
      </trkpt>
      <trkpt lat="47.8332" lon="-2.64641">
        <ele>160</ele>
        <time>2017-01-15T04:22:46Z</time>
      </trkpt>
      <trkpt lat="47.83342" lon="-2.64627">
        <ele>159</ele>
        <time>2017-01-15T04:24:46Z</time>
      </trkpt>
      <trkpt lat="47.83363" lon="-2.64625">
        <ele>157</ele>
        <time>2017-01-15T04:26:46Z</time>
      </trkpt>
      <trkpt lat="47.83395" lon="-2.6456">
        <ele>155</ele>
        <time>2017-01-15T04:28:46Z</time>
      </trkpt>
      <trkpt lat="47.83412" lon="-2.64535">
        <ele>155</ele>
        <time>2017-01-15T04:30:46Z</time>
      </trkpt>
      <trkpt lat="47.83429" lon="-2.64516">
        <ele>155</ele>
        <time>2017-01-15T04:32:46Z</time>
      </trkpt>
      <trkpt lat="47.8345" lon="-2.64498">
        <ele>155</ele>
        <time>2017-01-15T04:34:46Z</time>
      </trkpt>
      <trkpt lat="47.83475" lon="-2.64478">
        <ele>154</ele>
        <time>2017-01-15T04:36:46Z</time>
      </trkpt>
      <trkpt lat="47.83496" lon="-2.64463">
        <ele>154</ele>
        <time>2017-01-15T04:38:46Z</time>
      </trkpt>
      <trkpt lat="47.83501" lon="-2.64457">
        <ele>154</ele>
        <time>2017-01-15T04:40:46Z</time>
      </trkpt>
      <trkpt lat="47.83504" lon="-2.64455">
        <ele>154</ele>
        <time>2017-01-15T04:42:46Z</time>
      </trkpt>
      <trkpt lat="47.83509" lon="-2.64452">
        <ele>154</ele>
        <time>2017-01-15T04:44:46Z</time>
      </trkpt>
      <trkpt lat="47.83524" lon="-2.64427">
        <ele>154</ele>
        <time>2017-01-15T04:46:46Z</time>
      </trkpt>
      <trkpt lat="47.83533" lon="-2.64401">
        <ele>154</ele>
        <time>2017-01-15T04:48:46Z</time>
      </trkpt>
      <trkpt lat="47.83546" lon="-2.64376">
        <ele>154</ele>
        <time>2017-01-15T04:50:46Z</time>
      </trkpt>
      <trkpt lat="47.83558" lon="-2.64355">
        <ele>153</ele>
        <time>2017-01-15T04:52:46Z</time>
      </trkpt>
      <trkpt lat="47.8356" lon="-2.64345">
        <ele>153</ele>
        <time>2017-01-15T04:54:46Z</time>
      </trkpt>
      <trkpt lat="47.83558" lon="-2.64344">
        <ele>153</ele>
        <time>2017-01-15T04:56:46Z</time>
      </trkpt>
      <trkpt lat="47.83559" lon="-2.64342">
        <ele>153</ele>
        <time>2017-01-15T04:58:46Z</time>
      </trkpt>
      <trkpt lat="47.83559" lon="-2.64342">
        <ele>153</ele>
        <time>2017-01-15T05:00:46Z</time>
      </trkpt>
      <trkpt lat="47.83561" lon="-2.64342">
        <ele>153</ele>
        <time>2017-01-15T05:02:46Z</time>
      </trkpt>
      <trkpt lat="47.83572" lon="-2.64332">
        <ele>153</ele>
        <time>2017-01-15T05:04:46Z</time>
      </trkpt>
      <trkpt lat="47.83574" lon="-2.64328">
        <ele>153</ele>
        <time>2017-01-15T05:06:46Z</time>
      </trkpt>
      <trkpt lat="47.83577" lon="-2.64323">
        <ele>153</ele>
        <time>2017-01-15T05:08:46Z</time>
      </trkpt>
      <trkpt lat="47.83594" lon="-2.64315">
        <ele>152</ele>
        <time>2017-01-15T05:10:46Z</time>
      </trkpt>
      <trkpt lat="47.836" lon="-2.64311">
        <ele>152</ele>
        <time>2017-01-15T05:12:46Z</time>
      </trkpt>
      <trkpt lat="47.83617" lon="-2.64301">
        <ele>153</ele>
        <time>2017-01-15T05:14:46Z</time>
      </trkpt>
      <trkpt lat="47.83631" lon="-2.64289">
        <ele>153</ele>
        <time>2017-01-15T05:16:46Z</time>
      </trkpt>
      <trkpt lat="47.83651" lon="-2.64243">
        <ele>153</ele>
        <time>2017-01-15T05:18:46Z</time>
      </trkpt>
      <trkpt lat="47.8366" lon="-2.64215">
        <ele>152</ele>
        <time>2017-01-15T05:20:46Z</time>
      </trkpt>
      <trkpt lat="47.8367" lon="-2.64191">
        <ele>152</ele>
        <time>2017-01-15T05:22:46Z</time>
      </trkpt>
      <trkpt lat="47.83678" lon="-2.64165">
        <ele>152</ele>
        <time>2017-01-15T05:24:46Z</time>
      </trkpt>
      <trkpt lat="47.83686" lon="-2.64142">
        <ele>153</ele>
        <time>2017-01-15T05:26:46Z</time>
      </trkpt>
      <trkpt lat="47.83694" lon="-2.64119">
        <ele>153</ele>
        <time>2017-01-15T05:28:46Z</time>
      </trkpt>
      <trkpt lat="47.83706" lon="-2.64101">
        <ele>154</ele>
        <time>2017-01-15T05:30:46Z</time>
      </trkpt>
      <trkpt lat="47.83722" lon="-2.6409">
        <ele>155</ele>
        <time>2017-01-15T05:32:46Z</time>
      </trkpt>
      <trkpt lat="47.83737" lon="-2.64083">
        <ele>156</ele>
        <time>2017-01-15T05:34:46Z</time>
      </trkpt>
      <trkpt lat="47.83753" lon="-2.64077">
        <ele>157</ele>
        <time>2017-01-15T05:36:46Z</time>
      </trkpt>
      <trkpt lat="47.83759" lon="-2.64074">
        <ele>157</ele>
        <time>2017-01-15T05:38:46Z</time>
      </trkpt>
      <trkpt lat="47.83763" lon="-2.64074">
        <ele>157</ele>
        <time>2017-01-15T05:40:46Z</time>
      </trkpt>
      <trkpt lat="47.83768" lon="-2.64074">
        <ele>157</ele>
        <time>2017-01-15T05:42:46Z</time>
      </trkpt>
      <trkpt lat="47.83784" lon="-2.64063">
        <ele>156</ele>
        <time>2017-01-15T05:44:46Z</time>
      </trkpt>
      <trkpt lat="47.83802" lon="-2.64053">
        <ele>156</ele>
        <time>2017-01-15T05:46:46Z</time>
      </trkpt>
      <trkpt lat="47.83804" lon="-2.6405">
        <ele>156</ele>
        <time>2017-01-15T05:48:46Z</time>
      </trkpt>
      <trkpt lat="47.83807" lon="-2.64046">
        <ele>156</ele>
        <time>2017-01-15T05:50:46Z</time>
      </trkpt>
      <trkpt lat="47.83813" lon="-2.64043">
        <ele>156</ele>
        <time>2017-01-15T05:52:46Z</time>
      </trkpt>
      <trkpt lat="47.83829" lon="-2.64045">
        <ele>156</ele>
        <time>2017-01-15T05:54:46Z</time>
      </trkpt>
      <trkpt lat="47.8383" lon="-2.64045">
        <ele>156</ele>
        <time>2017-01-15T05:56:46Z</time>
      </trkpt>
      <trkpt lat="47.83841" lon="-2.6402">
        <ele>156</ele>
        <time>2017-01-15T05:58:46Z</time>
      </trkpt>
      <trkpt lat="47.83838" lon="-2.64015">
        <ele>156</ele>
        <time>2017-01-15T06:00:46Z</time>
      </trkpt>
      <trkpt lat="47.83838" lon="-2.64017">
        <ele>156</ele>
        <time>2017-01-15T06:02:46Z</time>
      </trkpt>
      <trkpt lat="47.83837" lon="-2.64018">
        <ele>156</ele>
        <time>2017-01-15T06:04:46Z</time>
      </trkpt>
      <trkpt lat="47.83837" lon="-2.64018">
        <ele>156</ele>
        <time>2017-01-15T06:06:46Z</time>
      </trkpt>
      <trkpt lat="47.83837" lon="-2.64018">
        <ele>156</ele>
        <time>2017-01-15T06:08:46Z</time>
      </trkpt>
      <trkpt lat="47.83836" lon="-2.64018">
        <ele>156</ele>
        <time>2017-01-15T06:10:46Z</time>
      </trkpt>
      <trkpt lat="47.83832" lon="-2.64011">
        <ele>156</ele>
        <time>2017-01-15T06:12:46Z</time>
      </trkpt>
      <trkpt lat="47.83826" lon="-2.64007">
        <ele>156</ele>
        <time>2017-01-15T06:14:46Z</time>
      </trkpt>
      <trkpt lat="47.83826" lon="-2.64004">
        <ele>156</ele>
        <time>2017-01-15T06:16:46Z</time>
      </trkpt>
      <trkpt lat="47.83825" lon="-2.64004">
        <ele>156</ele>
        <time>2017-01-15T06:18:46Z</time>
      </trkpt>
      <trkpt lat="47.83826" lon="-2.64007">
        <ele>156</ele>
        <time>2017-01-15T06:20:46Z</time>
      </trkpt>
      <trkpt lat="47.83832" lon="-2.64009">
        <ele>156</ele>
        <time>2017-01-15T06:22:46Z</time>
      </trkpt>
      <trkpt lat="47.83832" lon="-2.64007">
        <ele>156</ele>
        <time>2017-01-15T06:24:46Z</time>
      </trkpt>
      <trkpt lat="47.83834" lon="-2.64011">
        <ele>156</ele>
        <time>2017-01-15T06:26:46Z</time>
      </trkpt>
      <trkpt lat="47.83837" lon="-2.64015">
        <ele>156</ele>
        <time>2017-01-15T06:28:46Z</time>
      </trkpt>
      <trkpt lat="47.83834" lon="-2.64021">
        <ele>156</ele>
        <time>2017-01-15T06:30:46Z</time>
      </trkpt>
      <trkpt lat="47.83834" lon="-2.64023">
        <ele>156</ele>
        <time>2017-01-15T06:32:46Z</time>
      </trkpt>
      <trkpt lat="47.83834" lon="-2.64023">
        <ele>156</ele>
        <time>2017-01-15T06:34:46Z</time>
      </trkpt>
      <trkpt lat="47.83835" lon="-2.64032">
        <ele>156</ele>
        <time>2017-01-15T06:36:46Z</time>
      </trkpt>
      <trkpt lat="47.83838" lon="-2.64032">
        <ele>156</ele>
        <time>2017-01-15T06:38:46Z</time>
      </trkpt>
      <trkpt lat="47.83832" lon="-2.64041">
        <ele>156</ele>
        <time>2017-01-15T06:40:46Z</time>
      </trkpt>
      <trkpt lat="47.83826" lon="-2.64044">
        <ele>156</ele>
        <time>2017-01-15T06:42:46Z</time>
      </trkpt>
      <trkpt lat="47.83813" lon="-2.64047">
        <ele>156</ele>
        <time>2017-01-15T06:44:46Z</time>
      </trkpt>
      <trkpt lat="47.83805" lon="-2.64043">
        <ele>156</ele>
        <time>2017-01-15T06:46:46Z</time>
      </trkpt>
      <trkpt lat="47.838" lon="-2.64041">
        <ele>156</ele>
        <time>2017-01-15T06:48:46Z</time>
      </trkpt>
      <trkpt lat="47.83796" lon="-2.64044">
        <ele>156</ele>
        <time>2017-01-15T06:50:46Z</time>
      </trkpt>
      <trkpt lat="47.83796" lon="-2.64043">
        <ele>156</ele>
        <time>2017-01-15T06:52:46Z</time>
      </trkpt>
      <trkpt lat="47.83784" lon="-2.64047">
        <ele>156</ele>
        <time>2017-01-15T06:54:46Z</time>
      </trkpt>
      <trkpt lat="47.83772" lon="-2.64043">
        <ele>156</ele>
        <time>2017-01-15T06:56:46Z</time>
      </trkpt>
      <trkpt lat="47.83796" lon="-2.64047">
        <ele>156</ele>
        <time>2017-01-15T06:58:46Z</time>
      </trkpt>
      <trkpt lat="47.83797" lon="-2.64046">
        <ele>156</ele>
        <time>2017-01-15T07:00:46Z</time>
      </trkpt>
      <trkpt lat="47.83806" lon="-2.64044">
        <ele>156</ele>
        <time>2017-01-15T07:02:46Z</time>
      </trkpt>
      <trkpt lat="47.8381" lon="-2.64046">
        <ele>156</ele>
        <time>2017-01-15T07:04:46Z</time>
      </trkpt>
      <trkpt lat="47.83826" lon="-2.64045">
        <ele>156</ele>
        <time>2017-01-15T07:06:46Z</time>
      </trkpt>
      <trkpt lat="47.83833" lon="-2.64048">
        <ele>156</ele>
        <time>2017-01-15T07:08:46Z</time>
      </trkpt>
      <trkpt lat="47.83836" lon="-2.64019">
        <ele>156</ele>
        <time>2017-01-15T07:10:46Z</time>
      </trkpt>
      <trkpt lat="47.83835" lon="-2.64016">
        <ele>156</ele>
        <time>2017-01-15T07:12:46Z</time>
      </trkpt>
      <trkpt lat="47.83832" lon="-2.64016">
        <ele>156</ele>
        <time>2017-01-15T07:14:46Z</time>
      </trkpt>
      <trkpt lat="47.83833" lon="-2.64011">
        <ele>156</ele>
        <time>2017-01-15T07:16:46Z</time>
      </trkpt>
      <trkpt lat="47.83834" lon="-2.6401">
        <ele>156</ele>
        <time>2017-01-15T07:18:46Z</time>
      </trkpt>
      <trkpt lat="47.83833" lon="-2.64005">
        <ele>156</ele>
        <time>2017-01-15T07:20:46Z</time>
      </trkpt>
      <trkpt lat="47.83837" lon="-2.64016">
        <ele>156</ele>
        <time>2017-01-15T07:22:46Z</time>
      </trkpt>
      <trkpt lat="47.83837" lon="-2.64016">
        <ele>156</ele>
        <time>2017-01-15T07:24:46Z</time>
      </trkpt>
      <trkpt lat="47.83836" lon="-2.64015">
        <ele>156</ele>
        <time>2017-01-15T07:26:46Z</time>
      </trkpt>
      <trkpt lat="47.83836" lon="-2.64015">
        <ele>156</ele>
        <time>2017-01-15T07:28:46Z</time>
      </trkpt>
      <trkpt lat="47.83837" lon="-2.64015">
        <ele>156</ele>
        <time>2017-01-15T07:30:46Z</time>
      </trkpt>
      <trkpt lat="47.83836" lon="-2.64015">
        <ele>156</ele>
        <time>2017-01-15T07:32:46Z</time>
      </trkpt>
      <trkpt lat="47.83836" lon="-2.64015">
        <ele>156</ele>
        <time>2017-01-15T07:34:46Z</time>
      </trkpt>
      <trkpt lat="47.83836" lon="-2.64015">
        <ele>156</ele>
        <time>2017-01-15T07:36:46Z</time>
      </trkpt>
      <trkpt lat="47.83836" lon="-2.64015">
        <ele>156</ele>
        <time>2017-01-15T07:38:46Z</time>
      </trkpt>
      <trkpt lat="47.83836" lon="-2.64016">
        <ele>156</ele>
        <time>2017-01-15T07:40:46Z</time>
      </trkpt>
      <trkpt lat="47.83836" lon="-2.64015">
        <ele>156</ele>
        <time>2017-01-15T07:42:46Z</time>
      </trkpt>
      <trkpt lat="47.83836" lon="-2.64015">
        <ele>156</ele>
        <time>2017-01-15T07:44:46Z</time>
      </trkpt>
      <trkpt lat="47.83835" lon="-2.64015">
        <ele>156</ele>
        <time>2017-01-15T07:46:46Z</time>
      </trkpt>
      <trkpt lat="47.83835" lon="-2.64015">
        <ele>156</ele>
        <time>2017-01-15T07:48:46Z</time>
      </trkpt>
      <trkpt lat="47.83836" lon="-2.64015">
        <ele>156</ele>
        <time>2017-01-15T07:50:46Z</time>
      </trkpt>
      <trkpt lat="47.83836" lon="-2.64013">
        <ele>156</ele>
        <time>2017-01-15T07:52:46Z</time>
      </trkpt>
      <trkpt lat="47.83831" lon="-2.64009">
        <ele>156</ele>
        <time>2017-01-15T07:54:46Z</time>
      </trkpt>
      <trkpt lat="47.83831" lon="-2.6401">
        <ele>156</ele>
        <time>2017-01-15T07:56:46Z</time>
      </trkpt>
      <trkpt lat="47.83831" lon="-2.6401">
        <ele>156</ele>
        <time>2017-01-15T07:58:46Z</time>
      </trkpt>
      <trkpt lat="47.83831" lon="-2.64008">
        <ele>156</ele>
        <time>2017-01-15T08:00:46Z</time>
      </trkpt>
      <trkpt lat="47.8383" lon="-2.64005">
        <ele>156</ele>
        <time>2017-01-15T08:02:46Z</time>
      </trkpt>
      <trkpt lat="47.83829" lon="-2.64005">
        <ele>156</ele>
        <time>2017-01-15T08:04:46Z</time>
      </trkpt>
      <trkpt lat="47.83829" lon="-2.64004">
        <ele>156</ele>
        <time>2017-01-15T08:06:46Z</time>
      </trkpt>
      <trkpt lat="47.83828" lon="-2.64005">
        <ele>156</ele>
        <time>2017-01-15T08:08:46Z</time>
      </trkpt>
      <trkpt lat="47.83828" lon="-2.64005">
        <ele>156</ele>
        <time>2017-01-15T08:10:46Z</time>
      </trkpt>
      <trkpt lat="47.83828" lon="-2.64005">
        <ele>156</ele>
        <time>2017-01-15T08:12:46Z</time>
      </trkpt>
      <trkpt lat="47.83829" lon="-2.64004">
        <ele>156</ele>
        <time>2017-01-15T08:14:46Z</time>
      </trkpt>
      <trkpt lat="47.83828" lon="-2.64003">
        <ele>156</ele>
        <time>2017-01-15T08:16:46Z</time>
      </trkpt>
      <trkpt lat="47.83827" lon="-2.64003">
        <ele>156</ele>
        <time>2017-01-15T08:18:46Z</time>
      </trkpt>
      <trkpt lat="47.83827" lon="-2.64002">
        <ele>156</ele>
        <time>2017-01-15T08:20:46Z</time>
      </trkpt>
      <trkpt lat="47.83827" lon="-2.64003">
        <ele>156</ele>
        <time>2017-01-15T08:22:46Z</time>
      </trkpt>
      <trkpt lat="47.83827" lon="-2.64003">
        <ele>156</ele>
        <time>2017-01-15T08:24:46Z</time>
      </trkpt>
      <trkpt lat="47.83828" lon="-2.64005">
        <ele>156</ele>
        <time>2017-01-15T08:26:46Z</time>
      </trkpt>
      <trkpt lat="47.83832" lon="-2.64005">
        <ele>156</ele>
        <time>2017-01-15T08:28:46Z</time>
      </trkpt>
      <trkpt lat="47.83831" lon="-2.64003">
        <ele>156</ele>
        <time>2017-01-15T08:30:46Z</time>
      </trkpt>
      <trkpt lat="47.8383" lon="-2.64003">
        <ele>156</ele>
        <time>2017-01-15T08:32:46Z</time>
      </trkpt>
      <trkpt lat="47.83831" lon="-2.64003">
        <ele>156</ele>
        <time>2017-01-15T08:34:46Z</time>
      </trkpt>
      <trkpt lat="47.8383" lon="-2.64005">
        <ele>156</ele>
        <time>2017-01-15T08:36:46Z</time>
      </trkpt>
      <trkpt lat="47.8383" lon="-2.64004">
        <ele>156</ele>
        <time>2017-01-15T08:38:46Z</time>
      </trkpt>
      <trkpt lat="47.83832" lon="-2.64007">
        <ele>156</ele>
        <time>2017-01-15T08:40:46Z</time>
      </trkpt>
      <trkpt lat="47.83833" lon="-2.64019">
        <ele>156</ele>
        <time>2017-01-15T08:42:46Z</time>
      </trkpt>
      <trkpt lat="47.83835" lon="-2.64027">
        <ele>156</ele>
        <time>2017-01-15T08:44:46Z</time>
      </trkpt>
      <trkpt lat="47.8385" lon="-2.64041">
        <ele>156</ele>
        <time>2017-01-15T08:46:46Z</time>
      </trkpt>
      <trkpt lat="47.83882" lon="-2.64036">
        <ele>156</ele>
        <time>2017-01-15T08:48:46Z</time>
      </trkpt>
      <trkpt lat="47.83898" lon="-2.64036">
        <ele>156</ele>
        <time>2017-01-15T08:50:46Z</time>
      </trkpt>
      <trkpt lat="47.83914" lon="-2.64039">
        <ele>156</ele>
        <time>2017-01-15T08:52:46Z</time>
      </trkpt>
      <trkpt lat="47.83944" lon="-2.64038">
        <ele>155</ele>
        <time>2017-01-15T08:54:46Z</time>
      </trkpt>
      <trkpt lat="47.83957" lon="-2.64037">
        <ele>155</ele>
        <time>2017-01-15T08:56:46Z</time>
      </trkpt>
      <trkpt lat="47.83977" lon="-2.64039">
        <ele>154</ele>
        <time>2017-01-15T08:58:46Z</time>
      </trkpt>
      <trkpt lat="47.83985" lon="-2.64038">
        <ele>154</ele>
        <time>2017-01-15T09:00:46Z</time>
      </trkpt>
      <trkpt lat="47.83993" lon="-2.64036">
        <ele>153</ele>
        <time>2017-01-15T09:02:46Z</time>
      </trkpt>
      <trkpt lat="47.84006" lon="-2.64031">
        <ele>153</ele>
        <time>2017-01-15T09:04:46Z</time>
      </trkpt>
      <trkpt lat="47.84016" lon="-2.64026">
        <ele>153</ele>
        <time>2017-01-15T09:06:46Z</time>
      </trkpt>
      <trkpt lat="47.84033" lon="-2.64018">
        <ele>153</ele>
        <time>2017-01-15T09:08:46Z</time>
      </trkpt>
      <trkpt lat="47.84061" lon="-2.64">
        <ele>154</ele>
        <time>2017-01-15T09:10:46Z</time>
      </trkpt>
      <trkpt lat="47.84077" lon="-2.63989">
        <ele>153</ele>
        <time>2017-01-15T09:12:46Z</time>
      </trkpt>
      <trkpt lat="47.84085" lon="-2.63985">
        <ele>153</ele>
        <time>2017-01-15T09:14:46Z</time>
      </trkpt>
      <trkpt lat="47.841" lon="-2.63975">
        <ele>153</ele>
        <time>2017-01-15T09:16:46Z</time>
      </trkpt>
      <trkpt lat="47.84116" lon="-2.63963">
        <ele>152</ele>
        <time>2017-01-15T09:18:46Z</time>
      </trkpt>
      <trkpt lat="47.84129" lon="-2.63965">
        <ele>153</ele>
        <time>2017-01-15T09:20:46Z</time>
      </trkpt>
      <trkpt lat="47.84129" lon="-2.63965">
        <ele>153</ele>
        <time>2017-01-15T09:22:46Z</time>
      </trkpt>
      <trkpt lat="47.84136" lon="-2.63961">
        <ele>152</ele>
        <time>2017-01-15T09:24:46Z</time>
      </trkpt>
      <trkpt lat="47.84137" lon="-2.6396">
        <ele>152</ele>
        <time>2017-01-15T09:26:46Z</time>
      </trkpt>
      <trkpt lat="47.84161" lon="-2.63955">
        <ele>152</ele>
        <time>2017-01-15T09:28:46Z</time>
      </trkpt>
      <trkpt lat="47.84191" lon="-2.63946">
        <ele>152</ele>
        <time>2017-01-15T09:30:46Z</time>
      </trkpt>
      <trkpt lat="47.84213" lon="-2.63939">
        <ele>153</ele>
        <time>2017-01-15T09:32:46Z</time>
      </trkpt>
      <trkpt lat="47.84238" lon="-2.63931">
        <ele>153</ele>
        <time>2017-01-15T09:34:46Z</time>
      </trkpt>
      <trkpt lat="47.84263" lon="-2.63921">
        <ele>153</ele>
        <time>2017-01-15T09:36:46Z</time>
      </trkpt>
      <trkpt lat="47.84283" lon="-2.63907">
        <ele>153</ele>
        <time>2017-01-15T09:38:46Z</time>
      </trkpt>
      <trkpt lat="47.84298" lon="-2.63889">
        <ele>153</ele>
        <time>2017-01-15T09:40:46Z</time>
      </trkpt>
      <trkpt lat="47.84299" lon="-2.63847">
        <ele>153</ele>
        <time>2017-01-15T09:42:46Z</time>
      </trkpt>
      <trkpt lat="47.84298" lon="-2.63813">
        <ele>153</ele>
        <time>2017-01-15T09:44:46Z</time>
      </trkpt>
      <trkpt lat="47.84298" lon="-2.63772">
        <ele>152</ele>
        <time>2017-01-15T09:46:46Z</time>
      </trkpt>
      <trkpt lat="47.84296" lon="-2.63735">
        <ele>152</ele>
        <time>2017-01-15T09:48:46Z</time>
      </trkpt>
      <trkpt lat="47.84295" lon="-2.637">
        <ele>152</ele>
        <time>2017-01-15T09:50:46Z</time>
      </trkpt>
      <trkpt lat="47.84291" lon="-2.63656">
        <ele>153</ele>
        <time>2017-01-15T09:52:46Z</time>
      </trkpt>
      <trkpt lat="47.84287" lon="-2.63618">
        <ele>154</ele>
        <time>2017-01-15T09:54:46Z</time>
      </trkpt>
      <trkpt lat="47.84281" lon="-2.63581">
        <ele>155</ele>
        <time>2017-01-15T09:56:46Z</time>
      </trkpt>
      <trkpt lat="47.84274" lon="-2.63546">
        <ele>155</ele>
        <time>2017-01-15T09:58:46Z</time>
      </trkpt>
      <trkpt lat="47.84265" lon="-2.63502">
        <ele>155</ele>
        <time>2017-01-15T10:00:46Z</time>
      </trkpt>
      <trkpt lat="47.84259" lon="-2.63463">
        <ele>156</ele>
        <time>2017-01-15T10:02:46Z</time>
      </trkpt>
      <trkpt lat="47.84249" lon="-2.63415">
        <ele>157</ele>
        <time>2017-01-15T10:04:46Z</time>
      </trkpt>
      <trkpt lat="47.84242" lon="-2.63377">
        <ele>156</ele>
        <time>2017-01-15T10:06:46Z</time>
      </trkpt>
      <trkpt lat="47.84233" lon="-2.63349">
        <ele>156</ele>
        <time>2017-01-15T10:08:46Z</time>
      </trkpt>
      <trkpt lat="47.84229" lon="-2.63334">
        <ele>156</ele>
        <time>2017-01-15T10:10:46Z</time>
      </trkpt>
      <trkpt lat="47.84238" lon="-2.63312">
        <ele>155</ele>
        <time>2017-01-15T10:12:46Z</time>
      </trkpt>
      <trkpt lat="47.84254" lon="-2.63292">
        <ele>155</ele>
        <time>2017-01-15T10:14:46Z</time>
      </trkpt>
      <trkpt lat="47.84283" lon="-2.63259">
        <ele>153</ele>
        <time>2017-01-15T10:16:46Z</time>
      </trkpt>
      <trkpt lat="47.84294" lon="-2.63239">
        <ele>152</ele>
        <time>2017-01-15T10:18:46Z</time>
      </trkpt>
      <trkpt lat="47.84308" lon="-2.63219">
        <ele>151</ele>
        <time>2017-01-15T10:20:46Z</time>
      </trkpt>
      <trkpt lat="47.8432" lon="-2.63204">
        <ele>151</ele>
        <time>2017-01-15T10:22:46Z</time>
      </trkpt>
      <trkpt lat="47.84335" lon="-2.6317">
        <ele>150</ele>
        <time>2017-01-15T10:24:46Z</time>
      </trkpt>
      <trkpt lat="47.84347" lon="-2.6314">
        <ele>150</ele>
        <time>2017-01-15T10:26:46Z</time>
      </trkpt>
      <trkpt lat="47.84356" lon="-2.63113">
        <ele>151</ele>
        <time>2017-01-15T10:28:46Z</time>
      </trkpt>
      <trkpt lat="47.84362" lon="-2.63103">
        <ele>151</ele>
        <time>2017-01-15T10:30:46Z</time>
      </trkpt>
      <trkpt lat="47.84368" lon="-2.63088">
        <ele>152</ele>
        <time>2017-01-15T10:32:46Z</time>
      </trkpt>
      <trkpt lat="47.84378" lon="-2.63059">
        <ele>153</ele>
        <time>2017-01-15T10:34:46Z</time>
      </trkpt>
      <trkpt lat="47.84387" lon="-2.63033">
        <ele>154</ele>
        <time>2017-01-15T10:36:46Z</time>
      </trkpt>
      <trkpt lat="47.84396" lon="-2.6301">
        <ele>155</ele>
        <time>2017-01-15T10:38:46Z</time>
      </trkpt>
      <trkpt lat="47.84398" lon="-2.63004">
        <ele>155</ele>
        <time>2017-01-15T10:40:46Z</time>
      </trkpt>
      <trkpt lat="47.84411" lon="-2.62975">
        <ele>156</ele>
        <time>2017-01-15T10:42:46Z</time>
      </trkpt>
      <trkpt lat="47.84419" lon="-2.62949">
        <ele>156</ele>
        <time>2017-01-15T10:44:46Z</time>
      </trkpt>
      <trkpt lat="47.84428" lon="-2.62928">
        <ele>157</ele>
        <time>2017-01-15T10:46:46Z</time>
      </trkpt>
      <trkpt lat="47.8443" lon="-2.62924">
        <ele>157</ele>
        <time>2017-01-15T10:48:46Z</time>
      </trkpt>
      <trkpt lat="47.84435" lon="-2.62913">
        <ele>157</ele>
        <time>2017-01-15T10:50:46Z</time>
      </trkpt>
      <trkpt lat="47.84436" lon="-2.62908">
        <ele>157</ele>
        <time>2017-01-15T10:52:46Z</time>
      </trkpt>
      <trkpt lat="47.84445" lon="-2.62887">
        <ele>158</ele>
        <time>2017-01-15T10:54:46Z</time>
      </trkpt>
      <trkpt lat="47.84453" lon="-2.62859">
        <ele>158</ele>
        <time>2017-01-15T10:56:46Z</time>
      </trkpt>
      <trkpt lat="47.84462" lon="-2.62833">
        <ele>159</ele>
        <time>2017-01-15T10:58:46Z</time>
      </trkpt>
      <trkpt lat="47.84475" lon="-2.628">
        <ele>160</ele>
        <time>2017-01-15T11:00:46Z</time>
      </trkpt>
      <trkpt lat="47.84478" lon="-2.62789">
        <ele>160</ele>
        <time>2017-01-15T11:02:46Z</time>
      </trkpt>
      <trkpt lat="47.84492" lon="-2.62754">
        <ele>162</ele>
        <time>2017-01-15T11:04:46Z</time>
      </trkpt>
      <trkpt lat="47.84502" lon="-2.62719">
        <ele>163</ele>
        <time>2017-01-15T11:06:46Z</time>
      </trkpt>
      <trkpt lat="47.84512" lon="-2.62689">
        <ele>163</ele>
        <time>2017-01-15T11:08:46Z</time>
      </trkpt>
      <trkpt lat="47.84512" lon="-2.62683">
        <ele>163</ele>
        <time>2017-01-15T11:10:46Z</time>
      </trkpt>
      <trkpt lat="47.84519" lon="-2.62649">
        <ele>163</ele>
        <time>2017-01-15T11:12:46Z</time>
      </trkpt>
      <trkpt lat="47.84525" lon="-2.62623">
        <ele>162</ele>
        <time>2017-01-15T11:14:46Z</time>
      </trkpt>
      <trkpt lat="47.84527" lon="-2.62608">
        <ele>162</ele>
        <time>2017-01-15T11:16:46Z</time>
      </trkpt>
      <trkpt lat="47.84538" lon="-2.62574">
        <ele>161</ele>
        <time>2017-01-15T11:18:46Z</time>
      </trkpt>
      <trkpt lat="47.84546" lon="-2.62543">
        <ele>160</ele>
        <time>2017-01-15T11:20:46Z</time>
      </trkpt>
      <trkpt lat="47.84554" lon="-2.62523">
        <ele>159</ele>
        <time>2017-01-15T11:22:46Z</time>
      </trkpt>
      <trkpt lat="47.84565" lon="-2.62497">
        <ele>158</ele>
        <time>2017-01-15T11:24:46Z</time>
      </trkpt>
      <trkpt lat="47.8457" lon="-2.6249">
        <ele>158</ele>
        <time>2017-01-15T11:26:46Z</time>
      </trkpt>
      <trkpt lat="47.84577" lon="-2.62468">
        <ele>157</ele>
        <time>2017-01-15T11:28:46Z</time>
      </trkpt>
      <trkpt lat="47.84587" lon="-2.62448">
        <ele>157</ele>
        <time>2017-01-15T11:30:46Z</time>
      </trkpt>
      <trkpt lat="47.84589" lon="-2.62443">
        <ele>157</ele>
        <time>2017-01-15T11:32:46Z</time>
      </trkpt>
      <trkpt lat="47.84603" lon="-2.62423">
        <ele>157</ele>
        <time>2017-01-15T11:34:46Z</time>
      </trkpt>
      <trkpt lat="47.84614" lon="-2.624">
        <ele>156</ele>
        <time>2017-01-15T11:36:46Z</time>
      </trkpt>
      <trkpt lat="47.84628" lon="-2.62379">
        <ele>156</ele>
        <time>2017-01-15T11:38:46Z</time>
      </trkpt>
      <trkpt lat="47.8464" lon="-2.62358">
        <ele>155</ele>
        <time>2017-01-15T11:40:46Z</time>
      </trkpt>
      <trkpt lat="47.84656" lon="-2.62335">
        <ele>154</ele>
        <time>2017-01-15T11:42:46Z</time>
      </trkpt>
      <trkpt lat="47.84671" lon="-2.62316">
        <ele>154</ele>
        <time>2017-01-15T11:44:46Z</time>
      </trkpt>
      <trkpt lat="47.84686" lon="-2.62301">
        <ele>154</ele>
        <time>2017-01-15T11:46:46Z</time>
      </trkpt>
      <trkpt lat="47.84698" lon="-2.6229">
        <ele>154</ele>
        <time>2017-01-15T11:48:46Z</time>
      </trkpt>
      <trkpt lat="47.84704" lon="-2.62287">
        <ele>154</ele>
        <time>2017-01-15T11:50:46Z</time>
      </trkpt>
      <trkpt lat="47.84724" lon="-2.62276">
        <ele>154</ele>
        <time>2017-01-15T11:52:46Z</time>
      </trkpt>
      <trkpt lat="47.84748" lon="-2.62267">
        <ele>155</ele>
        <time>2017-01-15T11:54:46Z</time>
      </trkpt>
      <trkpt lat="47.84776" lon="-2.62264">
        <ele>156</ele>
        <time>2017-01-15T11:56:46Z</time>
      </trkpt>
      <trkpt lat="47.84797" lon="-2.62257">
        <ele>157</ele>
        <time>2017-01-15T11:58:46Z</time>
      </trkpt>
      <trkpt lat="47.84817" lon="-2.62242">
        <ele>157</ele>
        <time>2017-01-15T12:00:46Z</time>
      </trkpt>
      <trkpt lat="47.84834" lon="-2.62228">
        <ele>158</ele>
        <time>2017-01-15T12:02:46Z</time>
      </trkpt>
      <trkpt lat="47.8485" lon="-2.62211">
        <ele>158</ele>
        <time>2017-01-15T12:04:46Z</time>
      </trkpt>
      <trkpt lat="47.84869" lon="-2.62208">
        <ele>158</ele>
        <time>2017-01-15T12:06:46Z</time>
      </trkpt>
      <trkpt lat="47.84887" lon="-2.62227">
        <ele>158</ele>
        <time>2017-01-15T12:08:46Z</time>
      </trkpt>
      <trkpt lat="47.84907" lon="-2.62253">
        <ele>158</ele>
        <time>2017-01-15T12:10:46Z</time>
      </trkpt>
      <trkpt lat="47.84927" lon="-2.62265">
        <ele>158</ele>
        <time>2017-01-15T12:12:46Z</time>
      </trkpt>
      <trkpt lat="47.84944" lon="-2.62272">
        <ele>158</ele>
        <time>2017-01-15T12:14:46Z</time>
      </trkpt>
      <trkpt lat="47.84971" lon="-2.62287">
        <ele>158</ele>
        <time>2017-01-15T12:16:46Z</time>
      </trkpt>
      <trkpt lat="47.84973" lon="-2.62288">
        <ele>158</ele>
        <time>2017-01-15T12:18:46Z</time>
      </trkpt>
      <trkpt lat="47.8499" lon="-2.62289">
        <ele>158</ele>
        <time>2017-01-15T12:20:46Z</time>
      </trkpt>
      <trkpt lat="47.85015" lon="-2.62284">
        <ele>158</ele>
        <time>2017-01-15T12:22:46Z</time>
      </trkpt>
      <trkpt lat="47.85027" lon="-2.62284">
        <ele>157</ele>
        <time>2017-01-15T12:24:46Z</time>
      </trkpt>
      <trkpt lat="47.85059" lon="-2.62281">
        <ele>157</ele>
        <time>2017-01-15T12:26:46Z</time>
      </trkpt>
      <trkpt lat="47.85113" lon="-2.6228">
        <ele>157</ele>
        <time>2017-01-15T12:28:46Z</time>
      </trkpt>
      <trkpt lat="47.85127" lon="-2.62281">
        <ele>158</ele>
        <time>2017-01-15T12:30:46Z</time>
      </trkpt>
      <trkpt lat="47.85134" lon="-2.62285">
        <ele>158</ele>
        <time>2017-01-15T12:32:46Z</time>
      </trkpt>
      <trkpt lat="47.8516" lon="-2.62304">
        <ele>158</ele>
        <time>2017-01-15T12:34:46Z</time>
      </trkpt>
      <trkpt lat="47.85181" lon="-2.62319">
        <ele>159</ele>
        <time>2017-01-15T12:36:46Z</time>
      </trkpt>
      <trkpt lat="47.85189" lon="-2.62322">
        <ele>159</ele>
        <time>2017-01-15T12:38:46Z</time>
      </trkpt>
      <trkpt lat="47.85192" lon="-2.62325">
        <ele>160</ele>
        <time>2017-01-15T12:40:46Z</time>
      </trkpt>
      <trkpt lat="47.8522" lon="-2.62343">
        <ele>162</ele>
        <time>2017-01-15T12:42:46Z</time>
      </trkpt>
      <trkpt lat="47.85226" lon="-2.6235">
        <ele>162</ele>
        <time>2017-01-15T12:44:46Z</time>
      </trkpt>
      <trkpt lat="47.85249" lon="-2.62369">
        <ele>162</ele>
        <time>2017-01-15T12:46:46Z</time>
      </trkpt>
      <trkpt lat="47.85262" lon="-2.62382">
        <ele>162</ele>
        <time>2017-01-15T12:48:46Z</time>
      </trkpt>
      <trkpt lat="47.8528" lon="-2.62397">
        <ele>162</ele>
        <time>2017-01-15T12:50:46Z</time>
      </trkpt>
      <trkpt lat="47.85306" lon="-2.62422">
        <ele>162</ele>
        <time>2017-01-15T12:52:46Z</time>
      </trkpt>
      <trkpt lat="47.85356" lon="-2.62467">
        <ele>160</ele>
        <time>2017-01-15T12:54:46Z</time>
      </trkpt>
      <trkpt lat="47.85375" lon="-2.62483">
        <ele>160</ele>
        <time>2017-01-15T12:56:46Z</time>
      </trkpt>
      <trkpt lat="47.85413" lon="-2.62519">
        <ele>160</ele>
        <time>2017-01-15T12:58:46Z</time>
      </trkpt>
      <trkpt lat="47.85428" lon="-2.62532">
        <ele>160</ele>
        <time>2017-01-15T13:00:46Z</time>
      </trkpt>
      <trkpt lat="47.85436" lon="-2.62538">
        <ele>160</ele>
        <time>2017-01-15T13:02:46Z</time>
      </trkpt>
      <trkpt lat="47.85446" lon="-2.62555">
        <ele>160</ele>
        <time>2017-01-15T13:04:46Z</time>
      </trkpt>
      <trkpt lat="47.85456" lon="-2.62568">
        <ele>160</ele>
        <time>2017-01-15T13:06:46Z</time>
      </trkpt>
      <trkpt lat="47.85473" lon="-2.62592">
        <ele>160</ele>
        <time>2017-01-15T13:08:46Z</time>
      </trkpt>
      <trkpt lat="47.85476" lon="-2.62596">
        <ele>159</ele>
        <time>2017-01-15T13:10:46Z</time>
      </trkpt>
      <trkpt lat="47.85483" lon="-2.62608">
        <ele>159</ele>
        <time>2017-01-15T13:12:46Z</time>
      </trkpt>
      <trkpt lat="47.85484" lon="-2.62614">
        <ele>159</ele>
        <time>2017-01-15T13:14:46Z</time>
      </trkpt>
      <trkpt lat="47.85474" lon="-2.62639">
        <ele>159</ele>
        <time>2017-01-15T13:16:46Z</time>
      </trkpt>
      <trkpt lat="47.85456" lon="-2.62664">
        <ele>160</ele>
        <time>2017-01-15T13:18:46Z</time>
      </trkpt>
      <trkpt lat="47.85455" lon="-2.62665">
        <ele>160</ele>
        <time>2017-01-15T13:20:46Z</time>
      </trkpt>
      <trkpt lat="47.85438" lon="-2.6269">
        <ele>160</ele>
        <time>2017-01-15T13:22:46Z</time>
      </trkpt>
      <trkpt lat="47.85443" lon="-2.62705">
        <ele>160</ele>
        <time>2017-01-15T13:24:46Z</time>
      </trkpt>
      <trkpt lat="47.85448" lon="-2.62717">
        <ele>160</ele>
        <time>2017-01-15T13:26:46Z</time>
      </trkpt>
      <trkpt lat="47.85465" lon="-2.62753">
        <ele>161</ele>
        <time>2017-01-15T13:28:46Z</time>
      </trkpt>
      <trkpt lat="47.85469" lon="-2.62759">
        <ele>161</ele>
        <time>2017-01-15T13:30:46Z</time>
      </trkpt>
      <trkpt lat="47.85473" lon="-2.62768">
        <ele>161</ele>
        <time>2017-01-15T13:32:46Z</time>
      </trkpt>
      <trkpt lat="47.85489" lon="-2.62791">
        <ele>161</ele>
        <time>2017-01-15T13:34:46Z</time>
      </trkpt>
      <trkpt lat="47.85491" lon="-2.62792">
        <ele>161</ele>
        <time>2017-01-15T13:36:46Z</time>
      </trkpt>
      <trkpt lat="47.85492" lon="-2.62795">
        <ele>161</ele>
        <time>2017-01-15T13:38:46Z</time>
      </trkpt>
      <trkpt lat="47.85496" lon="-2.62803">
        <ele>161</ele>
        <time>2017-01-15T13:40:46Z</time>
      </trkpt>
      <trkpt lat="47.85513" lon="-2.62842">
        <ele>162</ele>
        <time>2017-01-15T13:42:46Z</time>
      </trkpt>
      <trkpt lat="47.85522" lon="-2.62857">
        <ele>162</ele>
        <time>2017-01-15T13:44:46Z</time>
      </trkpt>
      <trkpt lat="47.85531" lon="-2.62881">
        <ele>162</ele>
        <time>2017-01-15T13:46:46Z</time>
      </trkpt>
      <trkpt lat="47.85532" lon="-2.62884">
        <ele>162</ele>
        <time>2017-01-15T13:48:46Z</time>
      </trkpt>
      <trkpt lat="47.85533" lon="-2.62895">
        <ele>162</ele>
        <time>2017-01-15T13:50:46Z</time>
      </trkpt>
      <trkpt lat="47.85539" lon="-2.62922">
        <ele>162</ele>
        <time>2017-01-15T13:52:46Z</time>
      </trkpt>
      <trkpt lat="47.8554" lon="-2.6293">
        <ele>162</ele>
        <time>2017-01-15T13:54:46Z</time>
      </trkpt>
      <trkpt lat="47.8554" lon="-2.62939">
        <ele>162</ele>
        <time>2017-01-15T13:56:46Z</time>
      </trkpt>
      <trkpt lat="47.85556" lon="-2.62968">
        <ele>161</ele>
        <time>2017-01-15T13:58:46Z</time>
      </trkpt>
      <trkpt lat="47.85578" lon="-2.62965">
        <ele>161</ele>
        <time>2017-01-15T14:00:46Z</time>
      </trkpt>
      <trkpt lat="47.85595" lon="-2.62958">
        <ele>161</ele>
        <time>2017-01-15T14:02:46Z</time>
      </trkpt>
      <trkpt lat="47.85612" lon="-2.62948">
        <ele>161</ele>
        <time>2017-01-15T14:04:46Z</time>
      </trkpt>
      <trkpt lat="47.85619" lon="-2.62944">
        <ele>162</ele>
        <time>2017-01-15T14:06:46Z</time>
      </trkpt>
      <trkpt lat="47.85624" lon="-2.6294">
        <ele>162</ele>
        <time>2017-01-15T14:08:46Z</time>
      </trkpt>
      <trkpt lat="47.85642" lon="-2.62933">
        <ele>162</ele>
        <time>2017-01-15T14:10:46Z</time>
      </trkpt>
      <trkpt lat="47.85658" lon="-2.62925">
        <ele>163</ele>
        <time>2017-01-15T14:12:46Z</time>
      </trkpt>
      <trkpt lat="47.85662" lon="-2.62924">
        <ele>163</ele>
        <time>2017-01-15T14:14:46Z</time>
      </trkpt>
      <trkpt lat="47.85686" lon="-2.62957">
        <ele>162</ele>
        <time>2017-01-15T14:16:46Z</time>
      </trkpt>
      <trkpt lat="47.8569" lon="-2.62959">
        <ele>162</ele>
        <time>2017-01-15T14:18:46Z</time>
      </trkpt>
      <trkpt lat="47.8571" lon="-2.62946">
        <ele>162</ele>
        <time>2017-01-15T14:20:46Z</time>
      </trkpt>
      <trkpt lat="47.85727" lon="-2.62924">
        <ele>161</ele>
        <time>2017-01-15T14:22:46Z</time>
      </trkpt>
      <trkpt lat="47.8573" lon="-2.62916">
        <ele>161</ele>
        <time>2017-01-15T14:24:46Z</time>
      </trkpt>
      <trkpt lat="47.85739" lon="-2.62904">
        <ele>161</ele>
        <time>2017-01-15T14:26:46Z</time>
      </trkpt>
      <trkpt lat="47.85748" lon="-2.62891">
        <ele>162</ele>
        <time>2017-01-15T14:28:46Z</time>
      </trkpt>
      <trkpt lat="47.85757" lon="-2.62871">
        <ele>162</ele>
        <time>2017-01-15T14:30:46Z</time>
      </trkpt>
      <trkpt lat="47.85762" lon="-2.62864">
        <ele>163</ele>
        <time>2017-01-15T14:32:46Z</time>
      </trkpt>
      <trkpt lat="47.85768" lon="-2.6286">
        <ele>163</ele>
        <time>2017-01-15T14:34:46Z</time>
      </trkpt>
      <trkpt lat="47.8577" lon="-2.62866">
        <ele>163</ele>
        <time>2017-01-15T14:36:46Z</time>
      </trkpt>
      <trkpt lat="47.85779" lon="-2.62893">
        <ele>163</ele>
        <time>2017-01-15T14:38:46Z</time>
      </trkpt>
      <trkpt lat="47.85781" lon="-2.62907">
        <ele>162</ele>
        <time>2017-01-15T14:40:46Z</time>
      </trkpt>
      <trkpt lat="47.85787" lon="-2.62923">
        <ele>162</ele>
        <time>2017-01-15T14:42:46Z</time>
      </trkpt>
      <trkpt lat="47.85791" lon="-2.62939">
        <ele>162</ele>
        <time>2017-01-15T14:44:46Z</time>
      </trkpt>
      <trkpt lat="47.85798" lon="-2.6296">
        <ele>162</ele>
        <time>2017-01-15T14:46:46Z</time>
      </trkpt>
      <trkpt lat="47.85804" lon="-2.62981">
        <ele>162</ele>
        <time>2017-01-15T14:48:46Z</time>
      </trkpt>
      <trkpt lat="47.85809" lon="-2.62999">
        <ele>162</ele>
        <time>2017-01-15T14:50:46Z</time>
      </trkpt>
      <trkpt lat="47.85811" lon="-2.63009">
        <ele>162</ele>
        <time>2017-01-15T14:52:46Z</time>
      </trkpt>
      <trkpt lat="47.85829" lon="-2.63066">
        <ele>161</ele>
        <time>2017-01-15T14:54:46Z</time>
      </trkpt>
      <trkpt lat="47.85839" lon="-2.63085">
        <ele>160</ele>
        <time>2017-01-15T14:56:46Z</time>
      </trkpt>
      <trkpt lat="47.85853" lon="-2.63089">
        <ele>160</ele>
        <time>2017-01-15T14:58:46Z</time>
      </trkpt>
      <trkpt lat="47.85877" lon="-2.63085">
        <ele>161</ele>
        <time>2017-01-15T15:00:46Z</time>
      </trkpt>
      <trkpt lat="47.85886" lon="-2.63085">
        <ele>161</ele>
        <time>2017-01-15T15:02:46Z</time>
      </trkpt>
      <trkpt lat="47.85912" lon="-2.6309">
        <ele>161</ele>
        <time>2017-01-15T15:04:46Z</time>
      </trkpt>
      <trkpt lat="47.85935" lon="-2.63091">
        <ele>161</ele>
        <time>2017-01-15T15:06:46Z</time>
      </trkpt>
      <trkpt lat="47.85957" lon="-2.63097">
        <ele>160</ele>
        <time>2017-01-15T15:08:46Z</time>
      </trkpt>
      <trkpt lat="47.85978" lon="-2.63102">
        <ele>159</ele>
        <time>2017-01-15T15:10:46Z</time>
      </trkpt>
      <trkpt lat="47.86003" lon="-2.63103">
        <ele>158</ele>
        <time>2017-01-15T15:12:46Z</time>
      </trkpt>
      <trkpt lat="47.86024" lon="-2.631">
        <ele>157</ele>
        <time>2017-01-15T15:14:46Z</time>
      </trkpt>
      <trkpt lat="47.86031" lon="-2.63087">
        <ele>157</ele>
        <time>2017-01-15T15:16:46Z</time>
      </trkpt>
      <trkpt lat="47.86032" lon="-2.63076">
        <ele>158</ele>
        <time>2017-01-15T15:18:46Z</time>
      </trkpt>
      <trkpt lat="47.86036" lon="-2.63042">
        <ele>159</ele>
        <time>2017-01-15T15:20:46Z</time>
      </trkpt>
      <trkpt lat="47.86039" lon="-2.63035">
        <ele>159</ele>
        <time>2017-01-15T15:22:46Z</time>
      </trkpt>
      <trkpt lat="47.86052" lon="-2.6301">
        <ele>158</ele>
        <time>2017-01-15T15:24:46Z</time>
      </trkpt>
      <trkpt lat="47.86054" lon="-2.6301">
        <ele>158</ele>
        <time>2017-01-15T15:26:46Z</time>
      </trkpt>
      <trkpt lat="47.86075" lon="-2.63013">
        <ele>155</ele>
        <time>2017-01-15T15:28:46Z</time>
      </trkpt>
      <trkpt lat="47.86147" lon="-2.63046">
        <ele>152</ele>
        <time>2017-01-15T15:30:46Z</time>
      </trkpt>
      <trkpt lat="47.86168" lon="-2.63059">
        <ele>151</ele>
        <time>2017-01-15T15:32:46Z</time>
      </trkpt>
      <trkpt lat="47.86188" lon="-2.63073">
        <ele>152</ele>
        <time>2017-01-15T15:34:46Z</time>
      </trkpt>
      <trkpt lat="47.86205" lon="-2.63086">
        <ele>153</ele>
        <time>2017-01-15T15:36:46Z</time>
      </trkpt>
      <trkpt lat="47.86227" lon="-2.63097">
        <ele>153</ele>
        <time>2017-01-15T15:38:46Z</time>
      </trkpt>
      <trkpt lat="47.86234" lon="-2.63098">
        <ele>154</ele>
        <time>2017-01-15T15:40:46Z</time>
      </trkpt>
      <trkpt lat="47.86242" lon="-2.63103">
        <ele>154</ele>
        <time>2017-01-15T15:42:46Z</time>
      </trkpt>
      <trkpt lat="47.86256" lon="-2.6311">
        <ele>154</ele>
        <time>2017-01-15T15:44:46Z</time>
      </trkpt>
      <trkpt lat="47.86277" lon="-2.63122">
        <ele>153</ele>
        <time>2017-01-15T15:46:46Z</time>
      </trkpt>
      <trkpt lat="47.86294" lon="-2.6314">
        <ele>152</ele>
        <time>2017-01-15T15:48:46Z</time>
      </trkpt>
      <trkpt lat="47.86322" lon="-2.63145">
        <ele>151</ele>
        <time>2017-01-15T15:50:46Z</time>
      </trkpt>
      <trkpt lat="47.86371" lon="-2.63151">
        <ele>149</ele>
        <time>2017-01-15T15:52:46Z</time>
      </trkpt>
      <trkpt lat="47.86378" lon="-2.63148">
        <ele>149</ele>
        <time>2017-01-15T15:54:46Z</time>
      </trkpt>
      <trkpt lat="47.8639" lon="-2.63138">
        <ele>149</ele>
        <time>2017-01-15T15:56:46Z</time>
      </trkpt>
      <trkpt lat="47.86383" lon="-2.63148">
        <ele>149</ele>
        <time>2017-01-15T15:58:46Z</time>
      </trkpt>
      <trkpt lat="47.86379" lon="-2.63151">
        <ele>149</ele>
        <time>2017-01-15T16:00:46Z</time>
      </trkpt>
      <trkpt lat="47.86377" lon="-2.63154">
        <ele>149</ele>
        <time>2017-01-15T16:02:46Z</time>
      </trkpt>
      <trkpt lat="47.86373" lon="-2.63165">
        <ele>149</ele>
        <time>2017-01-15T16:04:46Z</time>
      </trkpt>
      <trkpt lat="47.86373" lon="-2.63168">
        <ele>149</ele>
        <time>2017-01-15T16:06:46Z</time>
      </trkpt>
      <trkpt lat="47.86397" lon="-2.63189">
        <ele>149</ele>
        <time>2017-01-15T16:08:46Z</time>
      </trkpt>
      <trkpt lat="47.86426" lon="-2.63189">
        <ele>149</ele>
        <time>2017-01-15T16:10:46Z</time>
      </trkpt>
      <trkpt lat="47.86462" lon="-2.63184">
        <ele>149</ele>
        <time>2017-01-15T16:12:46Z</time>
      </trkpt>
      <trkpt lat="47.86527" lon="-2.63178">
        <ele>150</ele>
        <time>2017-01-15T16:14:46Z</time>
      </trkpt>
      <trkpt lat="47.86585" lon="-2.63187">
        <ele>152</ele>
        <time>2017-01-15T16:16:46Z</time>
      </trkpt>
      <trkpt lat="47.86636" lon="-2.632">
        <ele>149</ele>
        <time>2017-01-15T16:18:46Z</time>
      </trkpt>
      <trkpt lat="47.86653" lon="-2.63205">
        <ele>148</ele>
        <time>2017-01-15T16:20:46Z</time>
      </trkpt>
      <trkpt lat="47.86654" lon="-2.63204">
        <ele>148</ele>
        <time>2017-01-15T16:22:46Z</time>
      </trkpt>
      <trkpt lat="47.86656" lon="-2.63204">
        <ele>148</ele>
        <time>2017-01-15T16:24:46Z</time>
      </trkpt>
      <trkpt lat="47.86678" lon="-2.63207">
        <ele>145</ele>
        <time>2017-01-15T16:26:46Z</time>
      </trkpt>
      <trkpt lat="47.86703" lon="-2.63213">
        <ele>140</ele>
        <time>2017-01-15T16:28:46Z</time>
      </trkpt>
      <trkpt lat="47.86707" lon="-2.63215">
        <ele>139</ele>
        <time>2017-01-15T16:30:46Z</time>
      </trkpt>
      <trkpt lat="47.86718" lon="-2.63225">
        <ele>137</ele>
        <time>2017-01-15T16:32:46Z</time>
      </trkpt>
      <trkpt lat="47.86725" lon="-2.63229">
        <ele>135</ele>
        <time>2017-01-15T16:34:46Z</time>
      </trkpt>
      <trkpt lat="47.86727" lon="-2.63233">
        <ele>135</ele>
        <time>2017-01-15T16:36:46Z</time>
      </trkpt>
      <trkpt lat="47.86727" lon="-2.63238">
        <ele>135</ele>
        <time>2017-01-15T16:38:46Z</time>
      </trkpt>
      <trkpt lat="47.86727" lon="-2.63243">
        <ele>135</ele>
        <time>2017-01-15T16:40:46Z</time>
      </trkpt>
      <trkpt lat="47.86727" lon="-2.63266">
        <ele>135</ele>
        <time>2017-01-15T16:42:46Z</time>
      </trkpt>
      <trkpt lat="47.86727" lon="-2.63268">
        <ele>135</ele>
        <time>2017-01-15T16:44:46Z</time>
      </trkpt>
      <trkpt lat="47.86718" lon="-2.63306">
        <ele>136</ele>
        <time>2017-01-15T16:46:46Z</time>
      </trkpt>
      <trkpt lat="47.86715" lon="-2.63342">
        <ele>136</ele>
        <time>2017-01-15T16:48:46Z</time>
      </trkpt>
      <trkpt lat="47.86718" lon="-2.63339">
        <ele>135</ele>
        <time>2017-01-15T16:50:46Z</time>
      </trkpt>
      <trkpt lat="47.86719" lon="-2.63335">
        <ele>135</ele>
        <time>2017-01-15T16:52:46Z</time>
      </trkpt>
      <trkpt lat="47.86722" lon="-2.63326">
        <ele>135</ele>
        <time>2017-01-15T16:54:46Z</time>
      </trkpt>
      <trkpt lat="47.86723" lon="-2.63321">
        <ele>135</ele>
        <time>2017-01-15T16:56:46Z</time>
      </trkpt>
      <trkpt lat="47.86738" lon="-2.63283">
        <ele>133</ele>
        <time>2017-01-15T16:58:46Z</time>
      </trkpt>
      <trkpt lat="47.86759" lon="-2.63274">
        <ele>129</ele>
        <time>2017-01-15T17:00:46Z</time>
      </trkpt>
      <trkpt lat="47.86761" lon="-2.63275">
        <ele>129</ele>
        <time>2017-01-15T17:02:46Z</time>
      </trkpt>
      <trkpt lat="47.86784" lon="-2.63297">
        <ele>126</ele>
        <time>2017-01-15T17:04:46Z</time>
      </trkpt>
      <trkpt lat="47.8681" lon="-2.63326">
        <ele>123</ele>
        <time>2017-01-15T17:06:46Z</time>
      </trkpt>
      <trkpt lat="47.86834" lon="-2.6334">
        <ele>121</ele>
        <time>2017-01-15T17:08:46Z</time>
      </trkpt>
      <trkpt lat="47.86855" lon="-2.63354">
        <ele>120</ele>
        <time>2017-01-15T17:10:46Z</time>
      </trkpt>
      <trkpt lat="47.86859" lon="-2.63353">
        <ele>120</ele>
        <time>2017-01-15T17:12:46Z</time>
      </trkpt>
      <trkpt lat="47.8686" lon="-2.63352">
        <ele>120</ele>
        <time>2017-01-15T17:14:46Z</time>
      </trkpt>
      <trkpt lat="47.86861" lon="-2.63347">
        <ele>120</ele>
        <time>2017-01-15T17:16:46Z</time>
      </trkpt>
      <trkpt lat="47.86862" lon="-2.63333">
        <ele>120</ele>
        <time>2017-01-15T17:18:46Z</time>
      </trkpt>
      <trkpt lat="47.86864" lon="-2.63329">
        <ele>120</ele>
        <time>2017-01-15T17:20:46Z</time>
      </trkpt>
      <trkpt lat="47.86866" lon="-2.6333">
        <ele>120</ele>
        <time>2017-01-15T17:22:46Z</time>
      </trkpt>
      <trkpt lat="47.86865" lon="-2.63337">
        <ele>120</ele>
        <time>2017-01-15T17:24:46Z</time>
      </trkpt>
      <trkpt lat="47.86865" lon="-2.63339">
        <ele>120</ele>
        <time>2017-01-15T17:26:46Z</time>
      </trkpt>
      <trkpt lat="47.86855" lon="-2.63377">
        <ele>120</ele>
        <time>2017-01-15T17:28:46Z</time>
      </trkpt>
      <trkpt lat="47.8685" lon="-2.63417">
        <ele>121</ele>
        <time>2017-01-15T17:30:46Z</time>
      </trkpt>
      <trkpt lat="47.86852" lon="-2.63447">
        <ele>120</ele>
        <time>2017-01-15T17:32:46Z</time>
      </trkpt>
      <trkpt lat="47.8687" lon="-2.63508">
        <ele>120</ele>
        <time>2017-01-15T17:34:46Z</time>
      </trkpt>
      <trkpt lat="47.86872" lon="-2.63537">
        <ele>120</ele>
        <time>2017-01-15T17:36:46Z</time>
      </trkpt>
      <trkpt lat="47.86866" lon="-2.63579">
        <ele>120</ele>
        <time>2017-01-15T17:38:46Z</time>
      </trkpt>
      <trkpt lat="47.86858" lon="-2.63612">
        <ele>120</ele>
        <time>2017-01-15T17:40:46Z</time>
      </trkpt>
      <trkpt lat="47.86854" lon="-2.63654">
        <ele>121</ele>
        <time>2017-01-15T17:42:46Z</time>
      </trkpt>
      <trkpt lat="47.86854" lon="-2.63688">
        <ele>121</ele>
        <time>2017-01-15T17:44:46Z</time>
      </trkpt>
      <trkpt lat="47.86857" lon="-2.63731">
        <ele>121</ele>
        <time>2017-01-15T17:46:46Z</time>
      </trkpt>
      <trkpt lat="47.8686" lon="-2.63754">
        <ele>121</ele>
        <time>2017-01-15T17:48:46Z</time>
      </trkpt>
      <trkpt lat="47.8686" lon="-2.63755">
        <ele>121</ele>
        <time>2017-01-15T17:50:46Z</time>
      </trkpt>
      <trkpt lat="47.86859" lon="-2.63757">
        <ele>121</ele>
        <time>2017-01-15T17:52:46Z</time>
      </trkpt>
      <trkpt lat="47.86858" lon="-2.6376">
        <ele>121</ele>
        <time>2017-01-15T17:54:46Z</time>
      </trkpt>
      <trkpt lat="47.86858" lon="-2.63761">
        <ele>121</ele>
        <time>2017-01-15T17:56:46Z</time>
      </trkpt>
      <trkpt lat="47.86858" lon="-2.63761">
        <ele>121</ele>
        <time>2017-01-15T17:58:46Z</time>
      </trkpt>
      <trkpt lat="47.86859" lon="-2.63775">
        <ele>121</ele>
        <time>2017-01-15T18:00:46Z</time>
      </trkpt>
      <trkpt lat="47.86858" lon="-2.63794">
        <ele>121</ele>
        <time>2017-01-15T18:02:46Z</time>
      </trkpt>
      <trkpt lat="47.86859" lon="-2.63794">
        <ele>121</ele>
        <time>2017-01-15T18:04:46Z</time>
      </trkpt>
      <trkpt lat="47.86858" lon="-2.63798">
        <ele>121</ele>
        <time>2017-01-15T18:06:46Z</time>
      </trkpt>
      <trkpt lat="47.86855" lon="-2.63874">
        <ele>121</ele>
        <time>2017-01-15T18:08:46Z</time>
      </trkpt>
      <trkpt lat="47.86853" lon="-2.63907">
        <ele>120</ele>
        <time>2017-01-15T18:10:46Z</time>
      </trkpt>
      <trkpt lat="47.86854" lon="-2.63912">
        <ele>120</ele>
        <time>2017-01-15T18:12:46Z</time>
      </trkpt>
      <trkpt lat="47.86854" lon="-2.63947">
        <ele>120</ele>
        <time>2017-01-15T18:14:46Z</time>
      </trkpt>
      <trkpt lat="47.86853" lon="-2.63976">
        <ele>119</ele>
        <time>2017-01-15T18:16:46Z</time>
      </trkpt>
      <trkpt lat="47.86847" lon="-2.64017">
        <ele>119</ele>
        <time>2017-01-15T18:18:46Z</time>
      </trkpt>
      <trkpt lat="47.8684" lon="-2.64051">
        <ele>118</ele>
        <time>2017-01-15T18:20:46Z</time>
      </trkpt>
      <trkpt lat="47.86829" lon="-2.64058">
        <ele>117</ele>
        <time>2017-01-15T18:22:46Z</time>
      </trkpt>
      <trkpt lat="47.86828" lon="-2.64058">
        <ele>117</ele>
        <time>2017-01-15T18:24:46Z</time>
      </trkpt>
      <trkpt lat="47.86822" lon="-2.64058">
        <ele>117</ele>
        <time>2017-01-15T18:26:46Z</time>
      </trkpt>
      <trkpt lat="47.86802" lon="-2.6407">
        <ele>116</ele>
        <time>2017-01-15T18:28:46Z</time>
      </trkpt>
      <trkpt lat="47.86777" lon="-2.64095">
        <ele>115</ele>
        <time>2017-01-15T18:30:46Z</time>
      </trkpt>
      <trkpt lat="47.86752" lon="-2.64093">
        <ele>114</ele>
        <time>2017-01-15T18:32:46Z</time>
      </trkpt>
      <trkpt lat="47.86726" lon="-2.64089">
        <ele>116</ele>
        <time>2017-01-15T18:34:46Z</time>
      </trkpt>
      <trkpt lat="47.867" lon="-2.64091">
        <ele>118</ele>
        <time>2017-01-15T18:36:46Z</time>
      </trkpt>
      <trkpt lat="47.86674" lon="-2.64097">
        <ele>120</ele>
        <time>2017-01-15T18:38:46Z</time>
      </trkpt>
      <trkpt lat="47.86661" lon="-2.64114">
        <ele>120</ele>
        <time>2017-01-15T18:40:46Z</time>
      </trkpt>
      <trkpt lat="47.86661" lon="-2.64142">
        <ele>119</ele>
        <time>2017-01-15T18:42:46Z</time>
      </trkpt>
      <trkpt lat="47.8666" lon="-2.64152">
        <ele>118</ele>
        <time>2017-01-15T18:44:46Z</time>
      </trkpt>
      <trkpt lat="47.86659" lon="-2.64189">
        <ele>118</ele>
        <time>2017-01-15T18:46:46Z</time>
      </trkpt>
      <trkpt lat="47.86656" lon="-2.64219">
        <ele>120</ele>
        <time>2017-01-15T18:48:46Z</time>
      </trkpt>
      <trkpt lat="47.86659" lon="-2.64255">
        <ele>120</ele>
        <time>2017-01-15T18:50:46Z</time>
      </trkpt>
      <trkpt lat="47.86662" lon="-2.64292">
        <ele>122</ele>
        <time>2017-01-15T18:52:46Z</time>
      </trkpt>
      <trkpt lat="47.8667" lon="-2.6433">
        <ele>122</ele>
        <time>2017-01-15T18:54:46Z</time>
      </trkpt>
      <trkpt lat="47.86671" lon="-2.6434">
        <ele>122</ele>
        <time>2017-01-15T18:56:46Z</time>
      </trkpt>
      <trkpt lat="47.8666" lon="-2.64391">
        <ele>123</ele>
        <time>2017-01-15T18:58:46Z</time>
      </trkpt>
      <trkpt lat="47.86648" lon="-2.6443">
        <ele>123</ele>
        <time>2017-01-15T19:00:46Z</time>
      </trkpt>
      <trkpt lat="47.86642" lon="-2.64457">
        <ele>122</ele>
        <time>2017-01-15T19:02:46Z</time>
      </trkpt>
      <trkpt lat="47.86628" lon="-2.64485">
        <ele>122</ele>
        <time>2017-01-15T19:04:46Z</time>
      </trkpt>
      <trkpt lat="47.86615" lon="-2.64509">
        <ele>123</ele>
        <time>2017-01-15T19:06:46Z</time>
      </trkpt>
      <trkpt lat="47.86594" lon="-2.64549">
        <ele>122</ele>
        <time>2017-01-15T19:08:46Z</time>
      </trkpt>
      <trkpt lat="47.8658" lon="-2.64569">
        <ele>122</ele>
        <time>2017-01-15T19:10:46Z</time>
      </trkpt>
      <trkpt lat="47.86555" lon="-2.64577">
        <ele>122</ele>
        <time>2017-01-15T19:12:46Z</time>
      </trkpt>
      <trkpt lat="47.86552" lon="-2.64578">
        <ele>122</ele>
        <time>2017-01-15T19:14:46Z</time>
      </trkpt>
      <trkpt lat="47.86551" lon="-2.64593">
        <ele>122</ele>
        <time>2017-01-15T19:16:46Z</time>
      </trkpt>
      <trkpt lat="47.86547" lon="-2.64613">
        <ele>122</ele>
        <time>2017-01-15T19:18:46Z</time>
      </trkpt>
      <trkpt lat="47.86546" lon="-2.64658">
        <ele>121</ele>
        <time>2017-01-15T19:20:46Z</time>
      </trkpt>
      <trkpt lat="47.86541" lon="-2.64677">
        <ele>121</ele>
        <time>2017-01-15T19:22:46Z</time>
      </trkpt>
      <trkpt lat="47.8654" lon="-2.64683">
        <ele>121</ele>
        <time>2017-01-15T19:24:46Z</time>
      </trkpt>
      <trkpt lat="47.86535" lon="-2.64695">
        <ele>121</ele>
        <time>2017-01-15T19:26:46Z</time>
      </trkpt>
      <trkpt lat="47.86531" lon="-2.64707">
        <ele>122</ele>
        <time>2017-01-15T19:28:46Z</time>
      </trkpt>
      <trkpt lat="47.86526" lon="-2.64721">
        <ele>122</ele>
        <time>2017-01-15T19:30:46Z</time>
      </trkpt>
      <trkpt lat="47.86525" lon="-2.64728">
        <ele>122</ele>
        <time>2017-01-15T19:32:46Z</time>
      </trkpt>
      <trkpt lat="47.86496" lon="-2.64835">
        <ele>123</ele>
        <time>2017-01-15T19:34:46Z</time>
      </trkpt>
      <trkpt lat="47.86483" lon="-2.64868">
        <ele>122</ele>
        <time>2017-01-15T19:36:46Z</time>
      </trkpt>
      <trkpt lat="47.86479" lon="-2.64869">
        <ele>122</ele>
        <time>2017-01-15T19:38:46Z</time>
      </trkpt>
      <trkpt lat="47.86475" lon="-2.64868">
        <ele>122</ele>
        <time>2017-01-15T19:40:46Z</time>
      </trkpt>
      <trkpt lat="47.86472" lon="-2.64867">
        <ele>122</ele>
        <time>2017-01-15T19:42:46Z</time>
      </trkpt>
      <trkpt lat="47.8647" lon="-2.64865">
        <ele>123</ele>
        <time>2017-01-15T19:44:46Z</time>
      </trkpt>
      <trkpt lat="47.86464" lon="-2.64861">
        <ele>123</ele>
        <time>2017-01-15T19:46:46Z</time>
      </trkpt>
      <trkpt lat="47.86419" lon="-2.64829">
        <ele>125</ele>
        <time>2017-01-15T19:48:46Z</time>
      </trkpt>
      <trkpt lat="47.86389" lon="-2.64807">
        <ele>126</ele>
        <time>2017-01-15T19:50:46Z</time>
      </trkpt>
      <trkpt lat="47.86339" lon="-2.64767">
        <ele>129</ele>
        <time>2017-01-15T19:52:46Z</time>
      </trkpt>
      <trkpt lat="47.86303" lon="-2.64739">
        <ele>132</ele>
        <time>2017-01-15T19:54:46Z</time>
      </trkpt>
      <trkpt lat="47.86281" lon="-2.64739">
        <ele>133</ele>
        <time>2017-01-15T19:56:46Z</time>
      </trkpt>
      <trkpt lat="47.86258" lon="-2.64753">
        <ele>134</ele>
        <time>2017-01-15T19:58:46Z</time>
      </trkpt>
      <trkpt lat="47.86249" lon="-2.64766">
        <ele>135</ele>
        <time>2017-01-15T20:00:46Z</time>
      </trkpt>
      <trkpt lat="47.86249" lon="-2.64769">
        <ele>135</ele>
        <time>2017-01-15T20:02:46Z</time>
      </trkpt>
      <trkpt lat="47.86253" lon="-2.64806">
        <ele>135</ele>
        <time>2017-01-15T20:04:46Z</time>
      </trkpt>
      <trkpt lat="47.86259" lon="-2.6484">
        <ele>134</ele>
        <time>2017-01-15T20:06:46Z</time>
      </trkpt>
      <trkpt lat="47.8626" lon="-2.64871">
        <ele>134</ele>
        <time>2017-01-15T20:08:46Z</time>
      </trkpt>
      <trkpt lat="47.86262" lon="-2.64904">
        <ele>134</ele>
        <time>2017-01-15T20:10:46Z</time>
      </trkpt>
      <trkpt lat="47.8626" lon="-2.64939">
        <ele>133</ele>
        <time>2017-01-15T20:12:46Z</time>
      </trkpt>
      <trkpt lat="47.86248" lon="-2.64972">
        <ele>134</ele>
        <time>2017-01-15T20:14:46Z</time>
      </trkpt>
      <trkpt lat="47.86236" lon="-2.65004">
        <ele>134</ele>
        <time>2017-01-15T20:16:46Z</time>
      </trkpt>
      <trkpt lat="47.86224" lon="-2.65042">
        <ele>134</ele>
        <time>2017-01-15T20:18:46Z</time>
      </trkpt>
      <trkpt lat="47.86211" lon="-2.65078">
        <ele>135</ele>
        <time>2017-01-15T20:20:46Z</time>
      </trkpt>
      <trkpt lat="47.86196" lon="-2.65115">
        <ele>136</ele>
        <time>2017-01-15T20:22:46Z</time>
      </trkpt>
      <trkpt lat="47.86185" lon="-2.65147">
        <ele>137</ele>
        <time>2017-01-15T20:24:46Z</time>
      </trkpt>
      <trkpt lat="47.8618" lon="-2.65183">
        <ele>136</ele>
        <time>2017-01-15T20:26:46Z</time>
      </trkpt>
      <trkpt lat="47.86172" lon="-2.65215">
        <ele>137</ele>
        <time>2017-01-15T20:28:46Z</time>
      </trkpt>
      <trkpt lat="47.8617" lon="-2.65254">
        <ele>137</ele>
        <time>2017-01-15T20:30:46Z</time>
      </trkpt>
      <trkpt lat="47.86166" lon="-2.65306">
        <ele>138</ele>
        <time>2017-01-15T20:32:46Z</time>
      </trkpt>
      <trkpt lat="47.86164" lon="-2.65328">
        <ele>139</ele>
        <time>2017-01-15T20:34:46Z</time>
      </trkpt>
      <trkpt lat="47.86156" lon="-2.65399">
        <ele>139</ele>
        <time>2017-01-15T20:36:46Z</time>
      </trkpt>
      <trkpt lat="47.8615" lon="-2.65455">
        <ele>138</ele>
        <time>2017-01-15T20:38:46Z</time>
      </trkpt>
      <trkpt lat="47.86145" lon="-2.65507">
        <ele>136</ele>
        <time>2017-01-15T20:40:46Z</time>
      </trkpt>
      <trkpt lat="47.86143" lon="-2.65557">
        <ele>133</ele>
        <time>2017-01-15T20:42:46Z</time>
      </trkpt>
      <trkpt lat="47.86145" lon="-2.6557">
        <ele>132</ele>
        <time>2017-01-15T20:44:46Z</time>
      </trkpt>
      <trkpt lat="47.86147" lon="-2.65577">
        <ele>132</ele>
        <time>2017-01-15T20:46:46Z</time>
      </trkpt>
      <trkpt lat="47.86152" lon="-2.65595">
        <ele>131</ele>
        <time>2017-01-15T20:48:46Z</time>
      </trkpt>
      <trkpt lat="47.86156" lon="-2.65615">
        <ele>130</ele>
        <time>2017-01-15T20:50:46Z</time>
      </trkpt>
      <trkpt lat="47.86158" lon="-2.65622">
        <ele>130</ele>
        <time>2017-01-15T20:52:46Z</time>
      </trkpt>
      <trkpt lat="47.86159" lon="-2.65628">
        <ele>130</ele>
        <time>2017-01-15T20:54:46Z</time>
      </trkpt>
      <trkpt lat="47.86162" lon="-2.65643">
        <ele>129</ele>
        <time>2017-01-15T20:56:46Z</time>
      </trkpt>
      <trkpt lat="47.86164" lon="-2.65658">
        <ele>129</ele>
        <time>2017-01-15T20:58:46Z</time>
      </trkpt>
      <trkpt lat="47.86165" lon="-2.65674">
        <ele>129</ele>
        <time>2017-01-15T21:00:46Z</time>
      </trkpt>
      <trkpt lat="47.86167" lon="-2.65705">
        <ele>129</ele>
        <time>2017-01-15T21:02:46Z</time>
      </trkpt>
      <trkpt lat="47.86169" lon="-2.65741">
        <ele>128</ele>
        <time>2017-01-15T21:04:46Z</time>
      </trkpt>
      <trkpt lat="47.86169" lon="-2.65748">
        <ele>128</ele>
        <time>2017-01-15T21:06:46Z</time>
      </trkpt>
      <trkpt lat="47.86171" lon="-2.65755">
        <ele>128</ele>
        <time>2017-01-15T21:08:46Z</time>
      </trkpt>
      <trkpt lat="47.86173" lon="-2.65762">
        <ele>128</ele>
        <time>2017-01-15T21:10:46Z</time>
      </trkpt>
      <trkpt lat="47.86176" lon="-2.65768">
        <ele>128</ele>
        <time>2017-01-15T21:12:46Z</time>
      </trkpt>
      <trkpt lat="47.8618" lon="-2.65773">
        <ele>128</ele>
        <time>2017-01-15T21:14:46Z</time>
      </trkpt>
      <trkpt lat="47.86184" lon="-2.65775">
        <ele>129</ele>
        <time>2017-01-15T21:16:46Z</time>
      </trkpt>
      <trkpt lat="47.86195" lon="-2.65778">
        <ele>129</ele>
        <time>2017-01-15T21:18:46Z</time>
      </trkpt>
      <trkpt lat="47.86233" lon="-2.65788">
        <ele>131</ele>
        <time>2017-01-15T21:20:46Z</time>
      </trkpt>
      <trkpt lat="47.86237" lon="-2.6579">
        <ele>131</ele>
        <time>2017-01-15T21:22:46Z</time>
      </trkpt>
      <trkpt lat="47.86271" lon="-2.65791">
        <ele>132</ele>
        <time>2017-01-15T21:24:46Z</time>
      </trkpt>
      <trkpt lat="47.86276" lon="-2.6579">
        <ele>132</ele>
        <time>2017-01-15T21:26:46Z</time>
      </trkpt>
      <trkpt lat="47.86285" lon="-2.65789">
        <ele>132</ele>
        <time>2017-01-15T21:28:46Z</time>
      </trkpt>
      <trkpt lat="47.86289" lon="-2.65788">
        <ele>132</ele>
        <time>2017-01-15T21:30:46Z</time>
      </trkpt>
      <trkpt lat="47.86322" lon="-2.65783">
        <ele>132</ele>
        <time>2017-01-15T21:32:46Z</time>
      </trkpt>
      <trkpt lat="47.86357" lon="-2.65782">
        <ele>132</ele>
        <time>2017-01-15T21:34:46Z</time>
      </trkpt>
      <trkpt lat="47.86361" lon="-2.65783">
        <ele>132</ele>
        <time>2017-01-15T21:36:46Z</time>
      </trkpt>
      <trkpt lat="47.86407" lon="-2.65794">
        <ele>131</ele>
        <time>2017-01-15T21:38:46Z</time>
      </trkpt>
      <trkpt lat="47.86411" lon="-2.65795">
        <ele>131</ele>
        <time>2017-01-15T21:40:46Z</time>
      </trkpt>
      <trkpt lat="47.86425" lon="-2.65798">
        <ele>130</ele>
        <time>2017-01-15T21:42:46Z</time>
      </trkpt>
      <trkpt lat="47.86429" lon="-2.65799">
        <ele>130</ele>
        <time>2017-01-15T21:44:46Z</time>
      </trkpt>
      <trkpt lat="47.86469" lon="-2.65809">
        <ele>130</ele>
        <time>2017-01-15T21:46:46Z</time>
      </trkpt>
      <trkpt lat="47.86468" lon="-2.6581">
        <ele>130</ele>
        <time>2017-01-15T21:48:46Z</time>
      </trkpt>
      <trkpt lat="47.86468" lon="-2.65813">
        <ele>130</ele>
        <time>2017-01-15T21:50:46Z</time>
      </trkpt>
      <trkpt lat="47.86469" lon="-2.65815">
        <ele>130</ele>
        <time>2017-01-15T21:52:46Z</time>
      </trkpt>
      <trkpt lat="47.86468" lon="-2.65848">
        <ele>130</ele>
        <time>2017-01-15T21:54:46Z</time>
      </trkpt>
      <trkpt lat="47.86466" lon="-2.65944">
        <ele>129</ele>
        <time>2017-01-15T21:56:46Z</time>
      </trkpt>
      <trkpt lat="47.86462" lon="-2.66029">
        <ele>128</ele>
        <time>2017-01-15T21:58:46Z</time>
      </trkpt>
      <trkpt lat="47.86462" lon="-2.66065">
        <ele>128</ele>
        <time>2017-01-15T22:00:46Z</time>
      </trkpt>
      <trkpt lat="47.86463" lon="-2.66112">
        <ele>128</ele>
        <time>2017-01-15T22:02:46Z</time>
      </trkpt>
      <trkpt lat="47.8646" lon="-2.66188">
        <ele>127</ele>
        <time>2017-01-15T22:04:46Z</time>
      </trkpt>
      <trkpt lat="47.86453" lon="-2.66242">
        <ele>126</ele>
        <time>2017-01-15T22:06:46Z</time>
      </trkpt>
      <trkpt lat="47.8645" lon="-2.66253">
        <ele>126</ele>
        <time>2017-01-15T22:08:46Z</time>
      </trkpt>
      <trkpt lat="47.86441" lon="-2.66312">
        <ele>126</ele>
        <time>2017-01-15T22:10:46Z</time>
      </trkpt>
      <trkpt lat="47.8644" lon="-2.66317">
        <ele>126</ele>
        <time>2017-01-15T22:12:46Z</time>
      </trkpt>
      <trkpt lat="47.86436" lon="-2.66365">
        <ele>125</ele>
        <time>2017-01-15T22:14:46Z</time>
      </trkpt>
      <trkpt lat="47.86431" lon="-2.66412">
        <ele>123</ele>
        <time>2017-01-15T22:16:46Z</time>
      </trkpt>
      <trkpt lat="47.86434" lon="-2.66438">
        <ele>123</ele>
        <time>2017-01-15T22:18:46Z</time>
      </trkpt>
      <trkpt lat="47.86466" lon="-2.66462">
        <ele>123</ele>
        <time>2017-01-15T22:20:46Z</time>
      </trkpt>
      <trkpt lat="47.86501" lon="-2.66486">
        <ele>123</ele>
        <time>2017-01-15T22:22:46Z</time>
      </trkpt>
      <trkpt lat="47.86519" lon="-2.66501">
        <ele>123</ele>
        <time>2017-01-15T22:24:46Z</time>
      </trkpt>
      <trkpt lat="47.86542" lon="-2.66519">
        <ele>124</ele>
        <time>2017-01-15T22:26:46Z</time>
      </trkpt>
      <trkpt lat="47.86566" lon="-2.66539">
        <ele>124</ele>
        <time>2017-01-15T22:28:46Z</time>
      </trkpt>
      <trkpt lat="47.86575" lon="-2.66548">
        <ele>124</ele>
        <time>2017-01-15T22:30:46Z</time>
      </trkpt>
      <trkpt lat="47.86578" lon="-2.6655">
        <ele>124</ele>
        <time>2017-01-15T22:32:46Z</time>
      </trkpt>
      <trkpt lat="47.86581" lon="-2.66554">
        <ele>124</ele>
        <time>2017-01-15T22:34:46Z</time>
      </trkpt>
      <trkpt lat="47.86582" lon="-2.66555">
        <ele>124</ele>
        <time>2017-01-15T22:36:46Z</time>
      </trkpt>
      <trkpt lat="47.86601" lon="-2.6658">
        <ele>124</ele>
        <time>2017-01-15T22:38:46Z</time>
      </trkpt>
      <trkpt lat="47.86618" lon="-2.6661">
        <ele>124</ele>
        <time>2017-01-15T22:40:46Z</time>
      </trkpt>
      <trkpt lat="47.86626" lon="-2.66621">
        <ele>124</ele>
        <time>2017-01-15T22:42:46Z</time>
      </trkpt>
      <trkpt lat="47.8663" lon="-2.66625">
        <ele>124</ele>
        <time>2017-01-15T22:44:46Z</time>
      </trkpt>
      <trkpt lat="47.86635" lon="-2.66637">
        <ele>125</ele>
        <time>2017-01-15T22:46:46Z</time>
      </trkpt>
      <trkpt lat="47.86636" lon="-2.66647">
        <ele>125</ele>
        <time>2017-01-15T22:48:46Z</time>
      </trkpt>
      <trkpt lat="47.86578" lon="-2.66667">
        <ele>123</ele>
        <time>2017-01-15T22:50:46Z</time>
      </trkpt>
      <trkpt lat="47.86534" lon="-2.66763">
        <ele>119</ele>
        <time>2017-01-15T22:52:46Z</time>
      </trkpt>
      <trkpt lat="47.86532" lon="-2.66816">
        <ele>119</ele>
        <time>2017-01-15T22:54:46Z</time>
      </trkpt>
      <trkpt lat="47.86521" lon="-2.66906">
        <ele>118</ele>
        <time>2017-01-15T22:56:46Z</time>
      </trkpt>
      <trkpt lat="47.86515" lon="-2.66916">
        <ele>118</ele>
        <time>2017-01-15T22:58:46Z</time>
      </trkpt>
      <trkpt lat="47.86496" lon="-2.66944">
        <ele>118</ele>
        <time>2017-01-15T23:00:46Z</time>
      </trkpt>
      <trkpt lat="47.86481" lon="-2.66972">
        <ele>118</ele>
        <time>2017-01-15T23:02:46Z</time>
      </trkpt>
      <trkpt lat="47.86467" lon="-2.67">
        <ele>118</ele>
        <time>2017-01-15T23:04:46Z</time>
      </trkpt>
      <trkpt lat="47.86465" lon="-2.67005">
        <ele>118</ele>
        <time>2017-01-15T23:06:46Z</time>
      </trkpt>
      <trkpt lat="47.86462" lon="-2.6701">
        <ele>118</ele>
        <time>2017-01-15T23:08:46Z</time>
      </trkpt>
      <trkpt lat="47.8646" lon="-2.67015">
        <ele>118</ele>
        <time>2017-01-15T23:10:46Z</time>
      </trkpt>
      <trkpt lat="47.8645" lon="-2.67033">
        <ele>118</ele>
        <time>2017-01-15T23:12:46Z</time>
      </trkpt>
      <trkpt lat="47.86442" lon="-2.67046">
        <ele>118</ele>
        <time>2017-01-15T23:14:46Z</time>
      </trkpt>
      <trkpt lat="47.86437" lon="-2.67054">
        <ele>118</ele>
        <time>2017-01-15T23:16:46Z</time>
      </trkpt>
      <trkpt lat="47.86418" lon="-2.67074">
        <ele>117</ele>
        <time>2017-01-15T23:18:46Z</time>
      </trkpt>
      <trkpt lat="47.86401" lon="-2.67099">
        <ele>117</ele>
        <time>2017-01-15T23:20:46Z</time>
      </trkpt>
      <trkpt lat="47.86398" lon="-2.67144">
        <ele>118</ele>
        <time>2017-01-15T23:22:46Z</time>
      </trkpt>
      <trkpt lat="47.86403" lon="-2.67181">
        <ele>119</ele>
        <time>2017-01-15T23:24:46Z</time>
      </trkpt>
      <trkpt lat="47.86407" lon="-2.67203">
        <ele>120</ele>
        <time>2017-01-15T23:26:46Z</time>
      </trkpt>
      <trkpt lat="47.8643" lon="-2.67222">
        <ele>123</ele>
        <time>2017-01-15T23:28:46Z</time>
      </trkpt>
      <trkpt lat="47.86451" lon="-2.67242">
        <ele>125</ele>
        <time>2017-01-15T23:30:46Z</time>
      </trkpt>
      <trkpt lat="47.8648" lon="-2.67271">
        <ele>127</ele>
        <time>2017-01-15T23:32:46Z</time>
      </trkpt>
      <trkpt lat="47.86499" lon="-2.67305">
        <ele>128</ele>
        <time>2017-01-15T23:34:46Z</time>
      </trkpt>
      <trkpt lat="47.86504" lon="-2.67321">
        <ele>128</ele>
        <time>2017-01-15T23:36:46Z</time>
      </trkpt>
      <trkpt lat="47.86513" lon="-2.67357">
        <ele>128</ele>
        <time>2017-01-15T23:38:46Z</time>
      </trkpt>
      <trkpt lat="47.86524" lon="-2.67392">
        <ele>128</ele>
        <time>2017-01-15T23:40:46Z</time>
      </trkpt>
      <trkpt lat="47.8653" lon="-2.67415">
        <ele>128</ele>
        <time>2017-01-15T23:42:46Z</time>
      </trkpt>
      <trkpt lat="47.86531" lon="-2.67416">
        <ele>128</ele>
        <time>2017-01-15T23:44:46Z</time>
      </trkpt>
      <trkpt lat="47.86535" lon="-2.67417">
        <ele>128</ele>
        <time>2017-01-15T23:46:46Z</time>
      </trkpt>
      <trkpt lat="47.86537" lon="-2.67417">
        <ele>128</ele>
        <time>2017-01-15T23:48:46Z</time>
      </trkpt>
      <trkpt lat="47.86542" lon="-2.67415">
        <ele>129</ele>
        <time>2017-01-15T23:50:46Z</time>
      </trkpt>
      <trkpt lat="47.86546" lon="-2.67414">
        <ele>129</ele>
        <time>2017-01-15T23:52:46Z</time>
      </trkpt>
      <trkpt lat="47.86576" lon="-2.67412">
        <ele>131</ele>
        <time>2017-01-15T23:54:46Z</time>
      </trkpt>
      <trkpt lat="47.86602" lon="-2.67414">
        <ele>132</ele>
        <time>2017-01-15T23:56:46Z</time>
      </trkpt>
      <trkpt lat="47.86607" lon="-2.67405">
        <ele>132</ele>
        <time>2017-01-15T23:58:46Z</time>
      </trkpt>
      <trkpt lat="47.86611" lon="-2.67405">
        <ele>132</ele>
        <time>2017-01-16T00:00:46Z</time>
      </trkpt>
      <trkpt lat="47.86617" lon="-2.67406">
        <ele>133</ele>
        <time>2017-01-16T00:02:46Z</time>
      </trkpt>
      <trkpt lat="47.86619" lon="-2.67407">
        <ele>133</ele>
        <time>2017-01-16T00:04:46Z</time>
      </trkpt>
      <trkpt lat="47.86627" lon="-2.67408">
        <ele>133</ele>
        <time>2017-01-16T00:06:46Z</time>
      </trkpt>
      <trkpt lat="47.86646" lon="-2.67412">
        <ele>133</ele>
        <time>2017-01-16T00:08:46Z</time>
      </trkpt>
      <trkpt lat="47.86648" lon="-2.67412">
        <ele>133</ele>
        <time>2017-01-16T00:10:46Z</time>
      </trkpt>
      <trkpt lat="47.86652" lon="-2.67412">
        <ele>133</ele>
        <time>2017-01-16T00:12:46Z</time>
      </trkpt>
      <trkpt lat="47.86654" lon="-2.67413">
        <ele>133</ele>
        <time>2017-01-16T00:14:46Z</time>
      </trkpt>
      <trkpt lat="47.86661" lon="-2.67415">
        <ele>133</ele>
        <time>2017-01-16T00:16:46Z</time>
      </trkpt>
      <trkpt lat="47.86662" lon="-2.67416">
        <ele>133</ele>
        <time>2017-01-16T00:18:46Z</time>
      </trkpt>
      <trkpt lat="47.86674" lon="-2.67423">
        <ele>133</ele>
        <time>2017-01-16T00:20:46Z</time>
      </trkpt>
      <trkpt lat="47.86678" lon="-2.67426">
        <ele>133</ele>
        <time>2017-01-16T00:22:46Z</time>
      </trkpt>
      <trkpt lat="47.86701" lon="-2.67434">
        <ele>134</ele>
        <time>2017-01-16T00:24:46Z</time>
      </trkpt>
      <trkpt lat="47.86727" lon="-2.67442">
        <ele>134</ele>
        <time>2017-01-16T00:26:46Z</time>
      </trkpt>
      <trkpt lat="47.86747" lon="-2.67449">
        <ele>134</ele>
        <time>2017-01-16T00:28:46Z</time>
      </trkpt>
      <trkpt lat="47.86779" lon="-2.67456">
        <ele>136</ele>
        <time>2017-01-16T00:30:46Z</time>
      </trkpt>
      <trkpt lat="47.86802" lon="-2.67463">
        <ele>138</ele>
        <time>2017-01-16T00:32:46Z</time>
      </trkpt>
      <trkpt lat="47.86814" lon="-2.67495">
        <ele>138</ele>
        <time>2017-01-16T00:34:46Z</time>
      </trkpt>
      <trkpt lat="47.86824" lon="-2.67544">
        <ele>137</ele>
        <time>2017-01-16T00:36:46Z</time>
      </trkpt>
      <trkpt lat="47.86829" lon="-2.67591">
        <ele>136</ele>
        <time>2017-01-16T00:38:46Z</time>
      </trkpt>
      <trkpt lat="47.8683" lon="-2.67601">
        <ele>136</ele>
        <time>2017-01-16T00:40:46Z</time>
      </trkpt>
      <trkpt lat="47.86829" lon="-2.67612">
        <ele>136</ele>
        <time>2017-01-16T00:42:46Z</time>
      </trkpt>
      <trkpt lat="47.86829" lon="-2.67615">
        <ele>136</ele>
        <time>2017-01-16T00:44:46Z</time>
      </trkpt>
      <trkpt lat="47.86831" lon="-2.67621">
        <ele>136</ele>
        <time>2017-01-16T00:46:46Z</time>
      </trkpt>
      <trkpt lat="47.86832" lon="-2.67623">
        <ele>136</ele>
        <time>2017-01-16T00:48:46Z</time>
      </trkpt>
      <trkpt lat="47.86833" lon="-2.67625">
        <ele>136</ele>
        <time>2017-01-16T00:50:46Z</time>
      </trkpt>
      <trkpt lat="47.86841" lon="-2.67658">
        <ele>137</ele>
        <time>2017-01-16T00:52:46Z</time>
      </trkpt>
      <trkpt lat="47.86852" lon="-2.67715">
        <ele>138</ele>
        <time>2017-01-16T00:54:46Z</time>
      </trkpt>
      <trkpt lat="47.86859" lon="-2.67741">
        <ele>139</ele>
        <time>2017-01-16T00:56:46Z</time>
      </trkpt>
      <trkpt lat="47.8686" lon="-2.67744">
        <ele>139</ele>
        <time>2017-01-16T00:58:46Z</time>
      </trkpt>
      <trkpt lat="47.8686" lon="-2.67747">
        <ele>139</ele>
        <time>2017-01-16T01:00:46Z</time>
      </trkpt>
      <trkpt lat="47.86861" lon="-2.67753">
        <ele>139</ele>
        <time>2017-01-16T01:02:46Z</time>
      </trkpt>
      <trkpt lat="47.86872" lon="-2.67777">
        <ele>139</ele>
        <time>2017-01-16T01:04:46Z</time>
      </trkpt>
      <trkpt lat="47.86873" lon="-2.67782">
        <ele>139</ele>
        <time>2017-01-16T01:06:46Z</time>
      </trkpt>
      <trkpt lat="47.86875" lon="-2.67785">
        <ele>139</ele>
        <time>2017-01-16T01:08:46Z</time>
      </trkpt>
      <trkpt lat="47.86896" lon="-2.67803">
        <ele>139</ele>
        <time>2017-01-16T01:10:46Z</time>
      </trkpt>
      <trkpt lat="47.86946" lon="-2.67828">
        <ele>140</ele>
        <time>2017-01-16T01:12:46Z</time>
      </trkpt>
      <trkpt lat="47.86968" lon="-2.67846">
        <ele>140</ele>
        <time>2017-01-16T01:14:46Z</time>
      </trkpt>
      <trkpt lat="47.86972" lon="-2.67854">
        <ele>139</ele>
        <time>2017-01-16T01:16:46Z</time>
      </trkpt>
      <trkpt lat="47.86973" lon="-2.67861">
        <ele>139</ele>
        <time>2017-01-16T01:18:46Z</time>
      </trkpt>
      <trkpt lat="47.86971" lon="-2.67875">
        <ele>139</ele>
        <time>2017-01-16T01:20:46Z</time>
      </trkpt>
      <trkpt lat="47.86968" lon="-2.67878">
        <ele>138</ele>
        <time>2017-01-16T01:22:46Z</time>
      </trkpt>
      <trkpt lat="47.86968" lon="-2.67879">
        <ele>138</ele>
        <time>2017-01-16T01:24:46Z</time>
      </trkpt>
      <trkpt lat="47.86966" lon="-2.6788">
        <ele>138</ele>
        <time>2017-01-16T01:26:46Z</time>
      </trkpt>
      <trkpt lat="47.86955" lon="-2.67884">
        <ele>137</ele>
        <time>2017-01-16T01:28:46Z</time>
      </trkpt>
      <trkpt lat="47.8694" lon="-2.67893">
        <ele>136</ele>
        <time>2017-01-16T01:30:46Z</time>
      </trkpt>
      <trkpt lat="47.86935" lon="-2.67892">
        <ele>136</ele>
        <time>2017-01-16T01:32:46Z</time>
      </trkpt>
      <trkpt lat="47.86933" lon="-2.67892">
        <ele>136</ele>
        <time>2017-01-16T01:34:46Z</time>
      </trkpt>
      <trkpt lat="47.86905" lon="-2.67895">
        <ele>134</ele>
        <time>2017-01-16T01:36:46Z</time>
      </trkpt>
      <trkpt lat="47.86875" lon="-2.67912">
        <ele>131</ele>
        <time>2017-01-16T01:38:46Z</time>
      </trkpt>
      <trkpt lat="47.86867" lon="-2.67922">
        <ele>130</ele>
        <time>2017-01-16T01:40:46Z</time>
      </trkpt>
      <trkpt lat="47.86866" lon="-2.67924">
        <ele>130</ele>
        <time>2017-01-16T01:42:46Z</time>
      </trkpt>
      <trkpt lat="47.86863" lon="-2.67927">
        <ele>130</ele>
        <time>2017-01-16T01:44:46Z</time>
      </trkpt>
      <trkpt lat="47.86858" lon="-2.6793">
        <ele>129</ele>
        <time>2017-01-16T01:46:46Z</time>
      </trkpt>
      <trkpt lat="47.86855" lon="-2.67931">
        <ele>129</ele>
        <time>2017-01-16T01:48:46Z</time>
      </trkpt>
      <trkpt lat="47.86836" lon="-2.6794">
        <ele>127</ele>
        <time>2017-01-16T01:50:46Z</time>
      </trkpt>
      <trkpt lat="47.86782" lon="-2.6794">
        <ele>123</ele>
        <time>2017-01-16T01:52:46Z</time>
      </trkpt>
      <trkpt lat="47.86756" lon="-2.67919">
        <ele>120</ele>
        <time>2017-01-16T01:54:46Z</time>
      </trkpt>
      <trkpt lat="47.86752" lon="-2.67912">
        <ele>119</ele>
        <time>2017-01-16T01:56:46Z</time>
      </trkpt>
      <trkpt lat="47.86745" lon="-2.67903">
        <ele>118</ele>
        <time>2017-01-16T01:58:46Z</time>
      </trkpt>
      <trkpt lat="47.86739" lon="-2.67897">
        <ele>118</ele>
        <time>2017-01-16T02:00:46Z</time>
      </trkpt>
      <trkpt lat="47.86705" lon="-2.67885">
        <ele>114</ele>
        <time>2017-01-16T02:02:46Z</time>
      </trkpt>
      <trkpt lat="47.86683" lon="-2.67896">
        <ele>112</ele>
        <time>2017-01-16T02:04:46Z</time>
      </trkpt>
      <trkpt lat="47.86683" lon="-2.67904">
        <ele>112</ele>
        <time>2017-01-16T02:06:46Z</time>
      </trkpt>
      <trkpt lat="47.86683" lon="-2.67906">
        <ele>112</ele>
        <time>2017-01-16T02:08:46Z</time>
      </trkpt>
      <trkpt lat="47.86679" lon="-2.67956">
        <ele>114</ele>
        <time>2017-01-16T02:10:46Z</time>
      </trkpt>
      <trkpt lat="47.86667" lon="-2.68007">
        <ele>116</ele>
        <time>2017-01-16T02:12:46Z</time>
      </trkpt>
      <trkpt lat="47.86651" lon="-2.68033">
        <ele>118</ele>
        <time>2017-01-16T02:14:46Z</time>
      </trkpt>
      <trkpt lat="47.8663" lon="-2.68045">
        <ele>120</ele>
        <time>2017-01-16T02:16:46Z</time>
      </trkpt>
      <trkpt lat="47.86614" lon="-2.68051">
        <ele>121</ele>
        <time>2017-01-16T02:18:46Z</time>
      </trkpt>
      <trkpt lat="47.86611" lon="-2.6805">
        <ele>121</ele>
        <time>2017-01-16T02:20:46Z</time>
      </trkpt>
      <trkpt lat="47.8661" lon="-2.6805">
        <ele>121</ele>
        <time>2017-01-16T02:22:46Z</time>
      </trkpt>
      <trkpt lat="47.86609" lon="-2.6805">
        <ele>121</ele>
        <time>2017-01-16T02:24:46Z</time>
      </trkpt>
      <trkpt lat="47.86593" lon="-2.68051">
        <ele>121</ele>
        <time>2017-01-16T02:26:46Z</time>
      </trkpt>
      <trkpt lat="47.86568" lon="-2.68043">
        <ele>121</ele>
        <time>2017-01-16T02:28:46Z</time>
      </trkpt>
      <trkpt lat="47.86552" lon="-2.68039">
        <ele>121</ele>
        <time>2017-01-16T02:30:46Z</time>
      </trkpt>
      <trkpt lat="47.86529" lon="-2.68041">
        <ele>122</ele>
        <time>2017-01-16T02:32:46Z</time>
      </trkpt>
      <trkpt lat="47.86526" lon="-2.68039">
        <ele>122</ele>
        <time>2017-01-16T02:34:46Z</time>
      </trkpt>
      <trkpt lat="47.86523" lon="-2.68039">
        <ele>122</ele>
        <time>2017-01-16T02:36:46Z</time>
      </trkpt>
      <trkpt lat="47.86519" lon="-2.68035">
        <ele>122</ele>
        <time>2017-01-16T02:38:46Z</time>
      </trkpt>
      <trkpt lat="47.86519" lon="-2.68035">
        <ele>122</ele>
        <time>2017-01-16T02:40:46Z</time>
      </trkpt>
      <trkpt lat="47.86518" lon="-2.68034">
        <ele>122</ele>
        <time>2017-01-16T02:42:46Z</time>
      </trkpt>
      <trkpt lat="47.86515" lon="-2.68032">
        <ele>121</ele>
        <time>2017-01-16T02:44:46Z</time>
      </trkpt>
      <trkpt lat="47.86515" lon="-2.68034">
        <ele>122</ele>
        <time>2017-01-16T02:46:46Z</time>
      </trkpt>
      <trkpt lat="47.86516" lon="-2.68035">
        <ele>122</ele>
        <time>2017-01-16T02:48:46Z</time>
      </trkpt>
      <trkpt lat="47.86515" lon="-2.68035">
        <ele>122</ele>
        <time>2017-01-16T02:50:46Z</time>
      </trkpt>
      <trkpt lat="47.86512" lon="-2.68031">
        <ele>121</ele>
        <time>2017-01-16T02:52:46Z</time>
      </trkpt>
      <trkpt lat="47.86511" lon="-2.6803">
        <ele>121</ele>
        <time>2017-01-16T02:54:46Z</time>
      </trkpt>
      <trkpt lat="47.865" lon="-2.68026">
        <ele>122</ele>
        <time>2017-01-16T02:56:46Z</time>
      </trkpt>
      <trkpt lat="47.86498" lon="-2.68023">
        <ele>121</ele>
        <time>2017-01-16T02:58:46Z</time>
      </trkpt>
      <trkpt lat="47.86491" lon="-2.6802">
        <ele>121</ele>
        <time>2017-01-16T03:00:46Z</time>
      </trkpt>
      <trkpt lat="47.86472" lon="-2.68009">
        <ele>121</ele>
        <time>2017-01-16T03:02:46Z</time>
      </trkpt>
      <trkpt lat="47.8645" lon="-2.67998">
        <ele>120</ele>
        <time>2017-01-16T03:04:46Z</time>
      </trkpt>
      <trkpt lat="47.86428" lon="-2.67984">
        <ele>119</ele>
        <time>2017-01-16T03:06:46Z</time>
      </trkpt>
      <trkpt lat="47.86407" lon="-2.6797">
        <ele>118</ele>
        <time>2017-01-16T03:08:46Z</time>
      </trkpt>
      <trkpt lat="47.86394" lon="-2.67962">
        <ele>117</ele>
        <time>2017-01-16T03:10:46Z</time>
      </trkpt>
      <trkpt lat="47.86358" lon="-2.6795">
        <ele>117</ele>
        <time>2017-01-16T03:12:46Z</time>
      </trkpt>
      <trkpt lat="47.86329" lon="-2.67934">
        <ele>117</ele>
        <time>2017-01-16T03:14:46Z</time>
      </trkpt>
      <trkpt lat="47.86291" lon="-2.67915">
        <ele>115</ele>
        <time>2017-01-16T03:16:46Z</time>
      </trkpt>
      <trkpt lat="47.8628" lon="-2.67908">
        <ele>115</ele>
        <time>2017-01-16T03:18:46Z</time>
      </trkpt>
      <trkpt lat="47.86268" lon="-2.679">
        <ele>114</ele>
        <time>2017-01-16T03:20:46Z</time>
      </trkpt>
      <trkpt lat="47.86235" lon="-2.67882">
        <ele>113</ele>
        <time>2017-01-16T03:22:46Z</time>
      </trkpt>
      <trkpt lat="47.86228" lon="-2.67879">
        <ele>112</ele>
        <time>2017-01-16T03:24:46Z</time>
      </trkpt>
      <trkpt lat="47.8622" lon="-2.67877">
        <ele>112</ele>
        <time>2017-01-16T03:26:46Z</time>
      </trkpt>
      <trkpt lat="47.86216" lon="-2.67878">
        <ele>111</ele>
        <time>2017-01-16T03:28:46Z</time>
      </trkpt>
      <trkpt lat="47.86213" lon="-2.67881">
        <ele>111</ele>
        <time>2017-01-16T03:30:46Z</time>
      </trkpt>
      <trkpt lat="47.8621" lon="-2.67886">
        <ele>111</ele>
        <time>2017-01-16T03:32:46Z</time>
      </trkpt>
      <trkpt lat="47.86208" lon="-2.67891">
        <ele>112</ele>
        <time>2017-01-16T03:34:46Z</time>
      </trkpt>
      <trkpt lat="47.86203" lon="-2.67908">
        <ele>112</ele>
        <time>2017-01-16T03:36:46Z</time>
      </trkpt>
      <trkpt lat="47.86167" lon="-2.68009">
        <ele>110</ele>
        <time>2017-01-16T03:38:46Z</time>
      </trkpt>
      <trkpt lat="47.86165" lon="-2.68014">
        <ele>110</ele>
        <time>2017-01-16T03:40:46Z</time>
      </trkpt>
      <trkpt lat="47.86153" lon="-2.68045">
        <ele>109</ele>
        <time>2017-01-16T03:42:46Z</time>
      </trkpt>
      <trkpt lat="47.86149" lon="-2.68059">
        <ele>109</ele>
        <time>2017-01-16T03:44:46Z</time>
      </trkpt>
      <trkpt lat="47.86145" lon="-2.6807">
        <ele>109</ele>
        <time>2017-01-16T03:46:46Z</time>
      </trkpt>
      <trkpt lat="47.86143" lon="-2.68076">
        <ele>109</ele>
        <time>2017-01-16T03:48:46Z</time>
      </trkpt>
      <trkpt lat="47.86135" lon="-2.68106">
        <ele>109</ele>
        <time>2017-01-16T03:50:46Z</time>
      </trkpt>
      <trkpt lat="47.86124" lon="-2.68137">
        <ele>109</ele>
        <time>2017-01-16T03:52:46Z</time>
      </trkpt>
      <trkpt lat="47.86095" lon="-2.68181">
        <ele>107</ele>
        <time>2017-01-16T03:54:46Z</time>
      </trkpt>
      <trkpt lat="47.86088" lon="-2.68194">
        <ele>106</ele>
        <time>2017-01-16T03:56:46Z</time>
      </trkpt>
      <trkpt lat="47.86081" lon="-2.68205">
        <ele>106</ele>
        <time>2017-01-16T03:58:46Z</time>
      </trkpt>
      <trkpt lat="47.86068" lon="-2.68237">
        <ele>105</ele>
        <time>2017-01-16T04:00:46Z</time>
      </trkpt>
      <trkpt lat="47.86067" lon="-2.68243">
        <ele>105</ele>
        <time>2017-01-16T04:02:46Z</time>
      </trkpt>
      <trkpt lat="47.86062" lon="-2.68273">
        <ele>106</ele>
        <time>2017-01-16T04:04:46Z</time>
      </trkpt>
      <trkpt lat="47.86061" lon="-2.6828">
        <ele>106</ele>
        <time>2017-01-16T04:06:46Z</time>
      </trkpt>
      <trkpt lat="47.8606" lon="-2.68288">
        <ele>106</ele>
        <time>2017-01-16T04:08:46Z</time>
      </trkpt>
      <trkpt lat="47.86058" lon="-2.68323">
        <ele>107</ele>
        <time>2017-01-16T04:10:46Z</time>
      </trkpt>
      <trkpt lat="47.86059" lon="-2.68331">
        <ele>107</ele>
        <time>2017-01-16T04:12:46Z</time>
      </trkpt>
      <trkpt lat="47.86062" lon="-2.68363">
        <ele>108</ele>
        <time>2017-01-16T04:14:46Z</time>
      </trkpt>
      <trkpt lat="47.86065" lon="-2.6838">
        <ele>109</ele>
        <time>2017-01-16T04:16:46Z</time>
      </trkpt>
      <trkpt lat="47.86068" lon="-2.68395">
        <ele>109</ele>
        <time>2017-01-16T04:18:46Z</time>
      </trkpt>
      <trkpt lat="47.86079" lon="-2.68422">
        <ele>111</ele>
        <time>2017-01-16T04:20:46Z</time>
      </trkpt>
      <trkpt lat="47.86083" lon="-2.68446">
        <ele>112</ele>
        <time>2017-01-16T04:22:46Z</time>
      </trkpt>
      <trkpt lat="47.86084" lon="-2.68454">
        <ele>112</ele>
        <time>2017-01-16T04:24:46Z</time>
      </trkpt>
      <trkpt lat="47.86089" lon="-2.68489">
        <ele>113</ele>
        <time>2017-01-16T04:26:46Z</time>
      </trkpt>
      <trkpt lat="47.86089" lon="-2.68499">
        <ele>113</ele>
        <time>2017-01-16T04:28:46Z</time>
      </trkpt>
      <trkpt lat="47.86089" lon="-2.68507">
        <ele>114</ele>
        <time>2017-01-16T04:30:46Z</time>
      </trkpt>
      <trkpt lat="47.86085" lon="-2.68576">
        <ele>115</ele>
        <time>2017-01-16T04:32:46Z</time>
      </trkpt>
      <trkpt lat="47.86078" lon="-2.68632">
        <ele>115</ele>
        <time>2017-01-16T04:34:46Z</time>
      </trkpt>
      <trkpt lat="47.86074" lon="-2.68666">
        <ele>116</ele>
        <time>2017-01-16T04:36:46Z</time>
      </trkpt>
      <trkpt lat="47.86068" lon="-2.68689">
        <ele>116</ele>
        <time>2017-01-16T04:38:46Z</time>
      </trkpt>
      <trkpt lat="47.86065" lon="-2.68691">
        <ele>116</ele>
        <time>2017-01-16T04:40:46Z</time>
      </trkpt>
      <trkpt lat="47.86064" lon="-2.68691">
        <ele>116</ele>
        <time>2017-01-16T04:42:46Z</time>
      </trkpt>
      <trkpt lat="47.86063" lon="-2.68691">
        <ele>116</ele>
        <time>2017-01-16T04:44:46Z</time>
      </trkpt>
      <trkpt lat="47.86062" lon="-2.6869">
        <ele>116</ele>
        <time>2017-01-16T04:46:46Z</time>
      </trkpt>
      <trkpt lat="47.86058" lon="-2.68688">
        <ele>116</ele>
        <time>2017-01-16T04:48:46Z</time>
      </trkpt>
      <trkpt lat="47.86038" lon="-2.68668">
        <ele>114</ele>
        <time>2017-01-16T04:50:46Z</time>
      </trkpt>
      <trkpt lat="47.86025" lon="-2.68651">
        <ele>113</ele>
        <time>2017-01-16T04:52:46Z</time>
      </trkpt>
      <trkpt lat="47.86025" lon="-2.68649">
        <ele>113</ele>
        <time>2017-01-16T04:54:46Z</time>
      </trkpt>
      <trkpt lat="47.86022" lon="-2.68644">
        <ele>113</ele>
        <time>2017-01-16T04:56:46Z</time>
      </trkpt>
      <trkpt lat="47.86002" lon="-2.6862">
        <ele>112</ele>
        <time>2017-01-16T04:58:46Z</time>
      </trkpt>
      <trkpt lat="47.85983" lon="-2.686">
        <ele>110</ele>
        <time>2017-01-16T05:00:46Z</time>
      </trkpt>
      <trkpt lat="47.85979" lon="-2.68595">
        <ele>110</ele>
        <time>2017-01-16T05:02:46Z</time>
      </trkpt>
      <trkpt lat="47.85957" lon="-2.68572">
        <ele>107</ele>
        <time>2017-01-16T05:04:46Z</time>
      </trkpt>
      <trkpt lat="47.85938" lon="-2.6855">
        <ele>105</ele>
        <time>2017-01-16T05:06:46Z</time>
      </trkpt>
      <trkpt lat="47.85915" lon="-2.68523">
        <ele>103</ele>
        <time>2017-01-16T05:08:46Z</time>
      </trkpt>
      <trkpt lat="47.85895" lon="-2.6852">
        <ele>102</ele>
        <time>2017-01-16T05:10:46Z</time>
      </trkpt>
      <trkpt lat="47.85891" lon="-2.68525">
        <ele>102</ele>
        <time>2017-01-16T05:12:46Z</time>
      </trkpt>
      <trkpt lat="47.85889" lon="-2.68527">
        <ele>102</ele>
        <time>2017-01-16T05:14:46Z</time>
      </trkpt>
      <trkpt lat="47.85882" lon="-2.68535">
        <ele>102</ele>
        <time>2017-01-16T05:16:46Z</time>
      </trkpt>
      <trkpt lat="47.85881" lon="-2.68539">
        <ele>102</ele>
        <time>2017-01-16T05:18:46Z</time>
      </trkpt>
      <trkpt lat="47.85864" lon="-2.68556">
        <ele>102</ele>
        <time>2017-01-16T05:20:46Z</time>
      </trkpt>
      <trkpt lat="47.85852" lon="-2.68574">
        <ele>101</ele>
        <time>2017-01-16T05:22:46Z</time>
      </trkpt>
      <trkpt lat="47.85835" lon="-2.68596">
        <ele>102</ele>
        <time>2017-01-16T05:24:46Z</time>
      </trkpt>
      <trkpt lat="47.85814" lon="-2.68621">
        <ele>102</ele>
        <time>2017-01-16T05:26:46Z</time>
      </trkpt>
      <trkpt lat="47.85796" lon="-2.68649">
        <ele>102</ele>
        <time>2017-01-16T05:28:46Z</time>
      </trkpt>
      <trkpt lat="47.85781" lon="-2.68674">
        <ele>102</ele>
        <time>2017-01-16T05:30:46Z</time>
      </trkpt>
      <trkpt lat="47.85769" lon="-2.68703">
        <ele>101</ele>
        <time>2017-01-16T05:32:46Z</time>
      </trkpt>
      <trkpt lat="47.85764" lon="-2.68717">
        <ele>101</ele>
        <time>2017-01-16T05:34:46Z</time>
      </trkpt>
      <trkpt lat="47.8576" lon="-2.68725">
        <ele>101</ele>
        <time>2017-01-16T05:36:46Z</time>
      </trkpt>
      <trkpt lat="47.8575" lon="-2.68753">
        <ele>101</ele>
        <time>2017-01-16T05:38:46Z</time>
      </trkpt>
      <trkpt lat="47.85737" lon="-2.68782">
        <ele>100</ele>
        <time>2017-01-16T05:40:46Z</time>
      </trkpt>
      <trkpt lat="47.8573" lon="-2.68794">
        <ele>100</ele>
        <time>2017-01-16T05:42:46Z</time>
      </trkpt>
      <trkpt lat="47.85722" lon="-2.68811">
        <ele>100</ele>
        <time>2017-01-16T05:44:46Z</time>
      </trkpt>
      <trkpt lat="47.85716" lon="-2.68821">
        <ele>99</ele>
        <time>2017-01-16T05:46:46Z</time>
      </trkpt>
      <trkpt lat="47.85697" lon="-2.68826">
        <ele>98</ele>
        <time>2017-01-16T05:48:46Z</time>
      </trkpt>
      <trkpt lat="47.8569" lon="-2.68837">
        <ele>98</ele>
        <time>2017-01-16T05:50:46Z</time>
      </trkpt>
      <trkpt lat="47.85682" lon="-2.68848">
        <ele>98</ele>
        <time>2017-01-16T05:52:46Z</time>
      </trkpt>
      <trkpt lat="47.85669" lon="-2.6888">
        <ele>98</ele>
        <time>2017-01-16T05:54:46Z</time>
      </trkpt>
      <trkpt lat="47.85655" lon="-2.68911">
        <ele>98</ele>
        <time>2017-01-16T05:56:46Z</time>
      </trkpt>
      <trkpt lat="47.85647" lon="-2.68942">
        <ele>98</ele>
        <time>2017-01-16T05:58:46Z</time>
      </trkpt>
      <trkpt lat="47.85646" lon="-2.68984">
        <ele>98</ele>
        <time>2017-01-16T06:00:46Z</time>
      </trkpt>
      <trkpt lat="47.85646" lon="-2.69025">
        <ele>97</ele>
        <time>2017-01-16T06:02:46Z</time>
      </trkpt>
      <trkpt lat="47.85645" lon="-2.6903">
        <ele>97</ele>
        <time>2017-01-16T06:04:46Z</time>
      </trkpt>
      <trkpt lat="47.8566" lon="-2.69051">
        <ele>98</ele>
        <time>2017-01-16T06:06:46Z</time>
      </trkpt>
      <trkpt lat="47.85655" lon="-2.69062">
        <ele>97</ele>
        <time>2017-01-16T06:08:46Z</time>
      </trkpt>
      <trkpt lat="47.85651" lon="-2.69061">
        <ele>97</ele>
        <time>2017-01-16T06:10:46Z</time>
      </trkpt>
      <trkpt lat="47.85639" lon="-2.69061">
        <ele>96</ele>
        <time>2017-01-16T06:12:46Z</time>
      </trkpt>
      <trkpt lat="47.85638" lon="-2.69063">
        <ele>96</ele>
        <time>2017-01-16T06:14:46Z</time>
      </trkpt>
      <trkpt lat="47.85633" lon="-2.69081">
        <ele>96</ele>
        <time>2017-01-16T06:16:46Z</time>
      </trkpt>
      <trkpt lat="47.85625" lon="-2.69088">
        <ele>96</ele>
        <time>2017-01-16T06:18:46Z</time>
      </trkpt>
      <trkpt lat="47.85624" lon="-2.69095">
        <ele>96</ele>
        <time>2017-01-16T06:20:46Z</time>
      </trkpt>
      <trkpt lat="47.85627" lon="-2.69113">
        <ele>96</ele>
        <time>2017-01-16T06:22:46Z</time>
      </trkpt>
      <trkpt lat="47.85629" lon="-2.69159">
        <ele>98</ele>
        <time>2017-01-16T06:24:46Z</time>
      </trkpt>
      <trkpt lat="47.85627" lon="-2.69199">
        <ele>99</ele>
        <time>2017-01-16T06:26:46Z</time>
      </trkpt>
      <trkpt lat="47.85622" lon="-2.69227">
        <ele>99</ele>
        <time>2017-01-16T06:28:46Z</time>
      </trkpt>
      <trkpt lat="47.85612" lon="-2.6925">
        <ele>99</ele>
        <time>2017-01-16T06:30:46Z</time>
      </trkpt>
      <trkpt lat="47.85602" lon="-2.69259">
        <ele>98</ele>
        <time>2017-01-16T06:32:46Z</time>
      </trkpt>
      <trkpt lat="47.85594" lon="-2.693">
        <ele>98</ele>
        <time>2017-01-16T06:34:46Z</time>
      </trkpt>
      <trkpt lat="47.85593" lon="-2.69323">
        <ele>98</ele>
        <time>2017-01-16T06:36:46Z</time>
      </trkpt>
      <trkpt lat="47.85581" lon="-2.69357">
        <ele>98</ele>
        <time>2017-01-16T06:38:46Z</time>
      </trkpt>
      <trkpt lat="47.85572" lon="-2.69385">
        <ele>98</ele>
        <time>2017-01-16T06:40:46Z</time>
      </trkpt>
      <trkpt lat="47.85562" lon="-2.69412">
        <ele>98</ele>
        <time>2017-01-16T06:42:46Z</time>
      </trkpt>
      <trkpt lat="47.85557" lon="-2.69426">
        <ele>98</ele>
        <time>2017-01-16T06:44:46Z</time>
      </trkpt>
      <trkpt lat="47.85548" lon="-2.69428">
        <ele>98</ele>
        <time>2017-01-16T06:46:46Z</time>
      </trkpt>
      <trkpt lat="47.85544" lon="-2.69426">
        <ele>97</ele>
        <time>2017-01-16T06:48:46Z</time>
      </trkpt>
      <trkpt lat="47.85525" lon="-2.69442">
        <ele>97</ele>
        <time>2017-01-16T06:50:46Z</time>
      </trkpt>
      <trkpt lat="47.8551" lon="-2.69457">
        <ele>96</ele>
        <time>2017-01-16T06:52:46Z</time>
      </trkpt>
      <trkpt lat="47.85501" lon="-2.69488">
        <ele>96</ele>
        <time>2017-01-16T06:54:46Z</time>
      </trkpt>
      <trkpt lat="47.85493" lon="-2.69516">
        <ele>96</ele>
        <time>2017-01-16T06:56:46Z</time>
      </trkpt>
      <trkpt lat="47.85495" lon="-2.69546">
        <ele>96</ele>
        <time>2017-01-16T06:58:46Z</time>
      </trkpt>
      <trkpt lat="47.85496" lon="-2.69554">
        <ele>96</ele>
        <time>2017-01-16T07:00:46Z</time>
      </trkpt>
      <trkpt lat="47.85496" lon="-2.69565">
        <ele>96</ele>
        <time>2017-01-16T07:02:46Z</time>
      </trkpt>
      <trkpt lat="47.855" lon="-2.69587">
        <ele>96</ele>
        <time>2017-01-16T07:04:46Z</time>
      </trkpt>
      <trkpt lat="47.85494" lon="-2.69608">
        <ele>95</ele>
        <time>2017-01-16T07:06:46Z</time>
      </trkpt>
      <trkpt lat="47.85478" lon="-2.69639">
        <ele>95</ele>
        <time>2017-01-16T07:08:46Z</time>
      </trkpt>
      <trkpt lat="47.85473" lon="-2.69651">
        <ele>95</ele>
        <time>2017-01-16T07:10:46Z</time>
      </trkpt>
      <trkpt lat="47.85466" lon="-2.69665">
        <ele>94</ele>
        <time>2017-01-16T07:12:46Z</time>
      </trkpt>
      <trkpt lat="47.85455" lon="-2.69688">
        <ele>95</ele>
        <time>2017-01-16T07:14:46Z</time>
      </trkpt>
      <trkpt lat="47.85453" lon="-2.69689">
        <ele>95</ele>
        <time>2017-01-16T07:16:46Z</time>
      </trkpt>
      <trkpt lat="47.8545" lon="-2.69697">
        <ele>95</ele>
        <time>2017-01-16T07:18:46Z</time>
      </trkpt>
      <trkpt lat="47.85439" lon="-2.69717">
        <ele>95</ele>
        <time>2017-01-16T07:20:46Z</time>
      </trkpt>
      <trkpt lat="47.85437" lon="-2.69722">
        <ele>95</ele>
        <time>2017-01-16T07:22:46Z</time>
      </trkpt>
      <trkpt lat="47.85431" lon="-2.6973">
        <ele>95</ele>
        <time>2017-01-16T07:24:46Z</time>
      </trkpt>
      <trkpt lat="47.85421" lon="-2.69729">
        <ele>95</ele>
        <time>2017-01-16T07:26:46Z</time>
      </trkpt>
      <trkpt lat="47.85402" lon="-2.69717">
        <ele>96</ele>
        <time>2017-01-16T07:28:46Z</time>
      </trkpt>
      <trkpt lat="47.85385" lon="-2.69742">
        <ele>96</ele>
        <time>2017-01-16T07:30:46Z</time>
      </trkpt>
      <trkpt lat="47.8537" lon="-2.69782">
        <ele>95</ele>
        <time>2017-01-16T07:32:46Z</time>
      </trkpt>
      <trkpt lat="47.85358" lon="-2.6981">
        <ele>95</ele>
        <time>2017-01-16T07:34:46Z</time>
      </trkpt>
      <trkpt lat="47.85342" lon="-2.69839">
        <ele>94</ele>
        <time>2017-01-16T07:36:46Z</time>
      </trkpt>
      <trkpt lat="47.85333" lon="-2.6987">
        <ele>94</ele>
        <time>2017-01-16T07:38:46Z</time>
      </trkpt>
      <trkpt lat="47.85322" lon="-2.69898">
        <ele>94</ele>
        <time>2017-01-16T07:40:46Z</time>
      </trkpt>
      <trkpt lat="47.85319" lon="-2.69903">
        <ele>94</ele>
        <time>2017-01-16T07:42:46Z</time>
      </trkpt>
      <trkpt lat="47.85314" lon="-2.69917">
        <ele>94</ele>
        <time>2017-01-16T07:44:46Z</time>
      </trkpt>
      <trkpt lat="47.85302" lon="-2.69951">
        <ele>94</ele>
        <time>2017-01-16T07:46:46Z</time>
      </trkpt>
      <trkpt lat="47.85278" lon="-2.70014">
        <ele>93</ele>
        <time>2017-01-16T07:48:46Z</time>
      </trkpt>
      <trkpt lat="47.85268" lon="-2.70042">
        <ele>92</ele>
        <time>2017-01-16T07:50:46Z</time>
      </trkpt>
      <trkpt lat="47.85256" lon="-2.70068">
        <ele>92</ele>
        <time>2017-01-16T07:52:46Z</time>
      </trkpt>
      <trkpt lat="47.85229" lon="-2.70104">
        <ele>92</ele>
        <time>2017-01-16T07:54:46Z</time>
      </trkpt>
      <trkpt lat="47.85212" lon="-2.70124">
        <ele>92</ele>
        <time>2017-01-16T07:56:46Z</time>
      </trkpt>
      <trkpt lat="47.85188" lon="-2.70146">
        <ele>92</ele>
        <time>2017-01-16T07:58:46Z</time>
      </trkpt>
      <trkpt lat="47.85152" lon="-2.70181">
        <ele>92</ele>
        <time>2017-01-16T08:00:46Z</time>
      </trkpt>
      <trkpt lat="47.85126" lon="-2.70213">
        <ele>95</ele>
        <time>2017-01-16T08:02:46Z</time>
      </trkpt>
      <trkpt lat="47.85117" lon="-2.70224">
        <ele>96</ele>
        <time>2017-01-16T08:04:46Z</time>
      </trkpt>
      <trkpt lat="47.85106" lon="-2.70232">
        <ele>97</ele>
        <time>2017-01-16T08:06:46Z</time>
      </trkpt>
      <trkpt lat="47.85101" lon="-2.70233">
        <ele>97</ele>
        <time>2017-01-16T08:08:46Z</time>
      </trkpt>
      <trkpt lat="47.85095" lon="-2.70234">
        <ele>98</ele>
        <time>2017-01-16T08:10:46Z</time>
      </trkpt>
      <trkpt lat="47.8509" lon="-2.70233">
        <ele>99</ele>
        <time>2017-01-16T08:12:46Z</time>
      </trkpt>
      <trkpt lat="47.85078" lon="-2.7023">
        <ele>100</ele>
        <time>2017-01-16T08:14:46Z</time>
      </trkpt>
      <trkpt lat="47.85048" lon="-2.70217">
        <ele>102</ele>
        <time>2017-01-16T08:16:46Z</time>
      </trkpt>
      <trkpt lat="47.8503" lon="-2.70207">
        <ele>104</ele>
        <time>2017-01-16T08:18:46Z</time>
      </trkpt>
      <trkpt lat="47.85006" lon="-2.70192">
        <ele>106</ele>
        <time>2017-01-16T08:20:46Z</time>
      </trkpt>
      <trkpt lat="47.84994" lon="-2.70187">
        <ele>106</ele>
        <time>2017-01-16T08:22:46Z</time>
      </trkpt>
      <trkpt lat="47.84966" lon="-2.70172">
        <ele>106</ele>
        <time>2017-01-16T08:24:46Z</time>
      </trkpt>
      <trkpt lat="47.84961" lon="-2.70168">
        <ele>106</ele>
        <time>2017-01-16T08:26:46Z</time>
      </trkpt>
      <trkpt lat="47.84957" lon="-2.70166">
        <ele>106</ele>
        <time>2017-01-16T08:28:46Z</time>
      </trkpt>
      <trkpt lat="47.84949" lon="-2.70161">
        <ele>106</ele>
        <time>2017-01-16T08:30:46Z</time>
      </trkpt>
      <trkpt lat="47.84945" lon="-2.70159">
        <ele>106</ele>
        <time>2017-01-16T08:32:46Z</time>
      </trkpt>
      <trkpt lat="47.84942" lon="-2.70157">
        <ele>106</ele>
        <time>2017-01-16T08:34:46Z</time>
      </trkpt>
      <trkpt lat="47.8492" lon="-2.7015">
        <ele>106</ele>
        <time>2017-01-16T08:36:46Z</time>
      </trkpt>
      <trkpt lat="47.8491" lon="-2.70157">
        <ele>106</ele>
        <time>2017-01-16T08:38:46Z</time>
      </trkpt>
      <trkpt lat="47.84908" lon="-2.7016">
        <ele>106</ele>
        <time>2017-01-16T08:40:46Z</time>
      </trkpt>
      <trkpt lat="47.84905" lon="-2.70164">
        <ele>106</ele>
        <time>2017-01-16T08:42:46Z</time>
      </trkpt>
      <trkpt lat="47.84901" lon="-2.70165">
        <ele>105</ele>
        <time>2017-01-16T08:44:46Z</time>
      </trkpt>
      <trkpt lat="47.84896" lon="-2.70168">
        <ele>105</ele>
        <time>2017-01-16T08:46:46Z</time>
      </trkpt>
      <trkpt lat="47.84892" lon="-2.70173">
        <ele>105</ele>
        <time>2017-01-16T08:48:46Z</time>
      </trkpt>
      <trkpt lat="47.84871" lon="-2.7018">
        <ele>104</ele>
        <time>2017-01-16T08:50:46Z</time>
      </trkpt>
      <trkpt lat="47.84863" lon="-2.70174">
        <ele>104</ele>
        <time>2017-01-16T08:52:46Z</time>
      </trkpt>
      <trkpt lat="47.84844" lon="-2.70143">
        <ele>104</ele>
        <time>2017-01-16T08:54:46Z</time>
      </trkpt>
      <trkpt lat="47.84844" lon="-2.7014">
        <ele>104</ele>
        <time>2017-01-16T08:56:46Z</time>
      </trkpt>
      <trkpt lat="47.84846" lon="-2.70132">
        <ele>104</ele>
        <time>2017-01-16T08:58:46Z</time>
      </trkpt>
      <trkpt lat="47.84847" lon="-2.7013">
        <ele>104</ele>
        <time>2017-01-16T09:00:46Z</time>
      </trkpt>
      <trkpt lat="47.84847" lon="-2.70102">
        <ele>104</ele>
        <time>2017-01-16T09:02:46Z</time>
      </trkpt>
      <trkpt lat="47.8484" lon="-2.70084">
        <ele>104</ele>
        <time>2017-01-16T09:04:46Z</time>
      </trkpt>
      <trkpt lat="47.84813" lon="-2.7007">
        <ele>104</ele>
        <time>2017-01-16T09:06:46Z</time>
      </trkpt>
      <trkpt lat="47.84794" lon="-2.70062">
        <ele>103</ele>
        <time>2017-01-16T09:08:46Z</time>
      </trkpt>
      <trkpt lat="47.84789" lon="-2.70064">
        <ele>103</ele>
        <time>2017-01-16T09:10:46Z</time>
      </trkpt>
      <trkpt lat="47.84781" lon="-2.70083">
        <ele>103</ele>
        <time>2017-01-16T09:12:46Z</time>
      </trkpt>
      <trkpt lat="47.84771" lon="-2.70121">
        <ele>102</ele>
        <time>2017-01-16T09:14:46Z</time>
      </trkpt>
      <trkpt lat="47.84762" lon="-2.70157">
        <ele>101</ele>
        <time>2017-01-16T09:16:46Z</time>
      </trkpt>
      <trkpt lat="47.84756" lon="-2.70184">
        <ele>100</ele>
        <time>2017-01-16T09:18:46Z</time>
      </trkpt>
      <trkpt lat="47.84753" lon="-2.70197">
        <ele>99</ele>
        <time>2017-01-16T09:20:46Z</time>
      </trkpt>
      <trkpt lat="47.84746" lon="-2.70215">
        <ele>99</ele>
        <time>2017-01-16T09:22:46Z</time>
      </trkpt>
      <trkpt lat="47.84745" lon="-2.70225">
        <ele>99</ele>
        <time>2017-01-16T09:24:46Z</time>
      </trkpt>
      <trkpt lat="47.84732" lon="-2.70271">
        <ele>99</ele>
        <time>2017-01-16T09:26:46Z</time>
      </trkpt>
      <trkpt lat="47.84728" lon="-2.70303">
        <ele>99</ele>
        <time>2017-01-16T09:28:46Z</time>
      </trkpt>
      <trkpt lat="47.84714" lon="-2.70362">
        <ele>101</ele>
        <time>2017-01-16T09:30:46Z</time>
      </trkpt>
      <trkpt lat="47.8471" lon="-2.70389">
        <ele>102</ele>
        <time>2017-01-16T09:32:46Z</time>
      </trkpt>
      <trkpt lat="47.84724" lon="-2.70414">
        <ele>103</ele>
        <time>2017-01-16T09:34:46Z</time>
      </trkpt>
      <trkpt lat="47.84763" lon="-2.70425">
        <ele>102</ele>
        <time>2017-01-16T09:36:46Z</time>
      </trkpt>
      <trkpt lat="47.84772" lon="-2.70427">
        <ele>102</ele>
        <time>2017-01-16T09:38:46Z</time>
      </trkpt>
      <trkpt lat="47.84789" lon="-2.70434">
        <ele>103</ele>
        <time>2017-01-16T09:40:46Z</time>
      </trkpt>
      <trkpt lat="47.8479" lon="-2.70488">
        <ele>106</ele>
        <time>2017-01-16T09:42:46Z</time>
      </trkpt>
      <trkpt lat="47.84787" lon="-2.70506">
        <ele>107</ele>
        <time>2017-01-16T09:44:46Z</time>
      </trkpt>
      <trkpt lat="47.84785" lon="-2.70531">
        <ele>107</ele>
        <time>2017-01-16T09:46:46Z</time>
      </trkpt>
      <trkpt lat="47.84783" lon="-2.70559">
        <ele>108</ele>
        <time>2017-01-16T09:48:46Z</time>
      </trkpt>
      <trkpt lat="47.84777" lon="-2.70628">
        <ele>110</ele>
        <time>2017-01-16T09:50:46Z</time>
      </trkpt>
      <trkpt lat="47.84776" lon="-2.70653">
        <ele>110</ele>
        <time>2017-01-16T09:52:46Z</time>
      </trkpt>
      <trkpt lat="47.84774" lon="-2.70661">
        <ele>110</ele>
        <time>2017-01-16T09:54:46Z</time>
      </trkpt>
      <trkpt lat="47.8477" lon="-2.70696">
        <ele>111</ele>
        <time>2017-01-16T09:56:46Z</time>
      </trkpt>
      <trkpt lat="47.84767" lon="-2.70731">
        <ele>112</ele>
        <time>2017-01-16T09:58:46Z</time>
      </trkpt>
      <trkpt lat="47.84762" lon="-2.70764">
        <ele>112</ele>
        <time>2017-01-16T10:00:46Z</time>
      </trkpt>
      <trkpt lat="47.84758" lon="-2.70798">
        <ele>112</ele>
        <time>2017-01-16T10:02:46Z</time>
      </trkpt>
      <trkpt lat="47.84755" lon="-2.70802">
        <ele>112</ele>
        <time>2017-01-16T10:04:46Z</time>
      </trkpt>
      <trkpt lat="47.84728" lon="-2.70803">
        <ele>113</ele>
        <time>2017-01-16T10:06:46Z</time>
      </trkpt>
      <trkpt lat="47.84727" lon="-2.70804">
        <ele>113</ele>
        <time>2017-01-16T10:08:46Z</time>
      </trkpt>
      <trkpt lat="47.84726" lon="-2.70814">
        <ele>113</ele>
        <time>2017-01-16T10:10:46Z</time>
      </trkpt>
      <trkpt lat="47.84726" lon="-2.70838">
        <ele>113</ele>
        <time>2017-01-16T10:12:46Z</time>
      </trkpt>
      <trkpt lat="47.84726" lon="-2.70872">
        <ele>112</ele>
        <time>2017-01-16T10:14:46Z</time>
      </trkpt>
      <trkpt lat="47.84727" lon="-2.70905">
        <ele>111</ele>
        <time>2017-01-16T10:16:46Z</time>
      </trkpt>
      <trkpt lat="47.84726" lon="-2.70938">
        <ele>111</ele>
        <time>2017-01-16T10:18:46Z</time>
      </trkpt>
      <trkpt lat="47.84726" lon="-2.70973">
        <ele>110</ele>
        <time>2017-01-16T10:20:46Z</time>
      </trkpt>
      <trkpt lat="47.84727" lon="-2.71032">
        <ele>108</ele>
        <time>2017-01-16T10:22:46Z</time>
      </trkpt>
      <trkpt lat="47.84727" lon="-2.71066">
        <ele>106</ele>
        <time>2017-01-16T10:24:46Z</time>
      </trkpt>
      <trkpt lat="47.84718" lon="-2.71093">
        <ele>106</ele>
        <time>2017-01-16T10:26:46Z</time>
      </trkpt>
      <trkpt lat="47.84696" lon="-2.71109">
        <ele>106</ele>
        <time>2017-01-16T10:28:46Z</time>
      </trkpt>
      <trkpt lat="47.84669" lon="-2.71107">
        <ele>106</ele>
        <time>2017-01-16T10:30:46Z</time>
      </trkpt>
      <trkpt lat="47.8464" lon="-2.71099">
        <ele>108</ele>
        <time>2017-01-16T10:32:46Z</time>
      </trkpt>
      <trkpt lat="47.84615" lon="-2.71096">
        <ele>109</ele>
        <time>2017-01-16T10:34:46Z</time>
      </trkpt>
      <trkpt lat="47.84591" lon="-2.71096">
        <ele>110</ele>
        <time>2017-01-16T10:36:46Z</time>
      </trkpt>
      <trkpt lat="47.84567" lon="-2.71096">
        <ele>112</ele>
        <time>2017-01-16T10:38:46Z</time>
      </trkpt>
      <trkpt lat="47.84549" lon="-2.711">
        <ele>113</ele>
        <time>2017-01-16T10:40:46Z</time>
      </trkpt>
      <trkpt lat="47.84545" lon="-2.71107">
        <ele>113</ele>
        <time>2017-01-16T10:42:46Z</time>
      </trkpt>
      <trkpt lat="47.84533" lon="-2.71161">
        <ele>112</ele>
        <time>2017-01-16T10:44:46Z</time>
      </trkpt>
      <trkpt lat="47.84531" lon="-2.71195">
        <ele>112</ele>
        <time>2017-01-16T10:46:46Z</time>
      </trkpt>
      <trkpt lat="47.84528" lon="-2.71233">
        <ele>111</ele>
        <time>2017-01-16T10:48:46Z</time>
      </trkpt>
      <trkpt lat="47.84526" lon="-2.71267">
        <ele>110</ele>
        <time>2017-01-16T10:50:46Z</time>
      </trkpt>
      <trkpt lat="47.84524" lon="-2.71289">
        <ele>110</ele>
        <time>2017-01-16T10:52:46Z</time>
      </trkpt>
      <trkpt lat="47.84521" lon="-2.71311">
        <ele>109</ele>
        <time>2017-01-16T10:54:46Z</time>
      </trkpt>
      <trkpt lat="47.84517" lon="-2.71341">
        <ele>109</ele>
        <time>2017-01-16T10:56:46Z</time>
      </trkpt>
      <trkpt lat="47.84512" lon="-2.71374">
        <ele>109</ele>
        <time>2017-01-16T10:58:46Z</time>
      </trkpt>
      <trkpt lat="47.84505" lon="-2.71409">
        <ele>109</ele>
        <time>2017-01-16T11:00:46Z</time>
      </trkpt>
      <trkpt lat="47.84507" lon="-2.71422">
        <ele>109</ele>
        <time>2017-01-16T11:02:46Z</time>
      </trkpt>
      <trkpt lat="47.8452" lon="-2.71459">
        <ele>109</ele>
        <time>2017-01-16T11:04:46Z</time>
      </trkpt>
      <trkpt lat="47.8452" lon="-2.71476">
        <ele>109</ele>
        <time>2017-01-16T11:06:46Z</time>
      </trkpt>
      <trkpt lat="47.84523" lon="-2.71508">
        <ele>109</ele>
        <time>2017-01-16T11:08:46Z</time>
      </trkpt>
      <trkpt lat="47.84519" lon="-2.71537">
        <ele>110</ele>
        <time>2017-01-16T11:10:46Z</time>
      </trkpt>
      <trkpt lat="47.84521" lon="-2.71576">
        <ele>111</ele>
        <time>2017-01-16T11:12:46Z</time>
      </trkpt>
      <trkpt lat="47.8452" lon="-2.7162">
        <ele>112</ele>
        <time>2017-01-16T11:14:46Z</time>
      </trkpt>
      <trkpt lat="47.8452" lon="-2.71653">
        <ele>112</ele>
        <time>2017-01-16T11:16:46Z</time>
      </trkpt>
      <trkpt lat="47.8452" lon="-2.7168">
        <ele>113</ele>
        <time>2017-01-16T11:18:46Z</time>
      </trkpt>
      <trkpt lat="47.84519" lon="-2.71709">
        <ele>113</ele>
        <time>2017-01-16T11:20:46Z</time>
      </trkpt>
      <trkpt lat="47.84518" lon="-2.71743">
        <ele>113</ele>
        <time>2017-01-16T11:22:46Z</time>
      </trkpt>
      <trkpt lat="47.84517" lon="-2.71783">
        <ele>112</ele>
        <time>2017-01-16T11:24:46Z</time>
      </trkpt>
      <trkpt lat="47.84518" lon="-2.71792">
        <ele>112</ele>
        <time>2017-01-16T11:26:46Z</time>
      </trkpt>
      <trkpt lat="47.84527" lon="-2.71798">
        <ele>112</ele>
        <time>2017-01-16T11:28:46Z</time>
      </trkpt>
      <trkpt lat="47.84548" lon="-2.71801">
        <ele>111</ele>
        <time>2017-01-16T11:30:46Z</time>
      </trkpt>
      <trkpt lat="47.84571" lon="-2.718">
        <ele>110</ele>
        <time>2017-01-16T11:32:46Z</time>
      </trkpt>
      <trkpt lat="47.84592" lon="-2.71817">
        <ele>108</ele>
        <time>2017-01-16T11:34:46Z</time>
      </trkpt>
      <trkpt lat="47.84595" lon="-2.71844">
        <ele>107</ele>
        <time>2017-01-16T11:36:46Z</time>
      </trkpt>
      <trkpt lat="47.84586" lon="-2.71876">
        <ele>106</ele>
        <time>2017-01-16T11:38:46Z</time>
      </trkpt>
      <trkpt lat="47.84585" lon="-2.71909">
        <ele>105</ele>
        <time>2017-01-16T11:40:46Z</time>
      </trkpt>
      <trkpt lat="47.84606" lon="-2.71933">
        <ele>103</ele>
        <time>2017-01-16T11:42:46Z</time>
      </trkpt>
      <trkpt lat="47.84618" lon="-2.71941">
        <ele>103</ele>
        <time>2017-01-16T11:44:46Z</time>
      </trkpt>
      <trkpt lat="47.84626" lon="-2.71941">
        <ele>102</ele>
        <time>2017-01-16T11:46:46Z</time>
      </trkpt>
      <trkpt lat="47.84629" lon="-2.71942">
        <ele>102</ele>
        <time>2017-01-16T11:48:46Z</time>
      </trkpt>
      <trkpt lat="47.84634" lon="-2.71946">
        <ele>102</ele>
        <time>2017-01-16T11:50:46Z</time>
      </trkpt>
      <trkpt lat="47.84633" lon="-2.7198">
        <ele>101</ele>
        <time>2017-01-16T11:52:46Z</time>
      </trkpt>
      <trkpt lat="47.84629" lon="-2.72012">
        <ele>101</ele>
        <time>2017-01-16T11:54:46Z</time>
      </trkpt>
      <trkpt lat="47.84625" lon="-2.72051">
        <ele>101</ele>
        <time>2017-01-16T11:56:46Z</time>
      </trkpt>
      <trkpt lat="47.84618" lon="-2.72093">
        <ele>101</ele>
        <time>2017-01-16T11:58:46Z</time>
      </trkpt>
      <trkpt lat="47.84608" lon="-2.72128">
        <ele>101</ele>
        <time>2017-01-16T12:00:46Z</time>
      </trkpt>
      <trkpt lat="47.84594" lon="-2.72162">
        <ele>100</ele>
        <time>2017-01-16T12:02:46Z</time>
      </trkpt>
      <trkpt lat="47.84571" lon="-2.72197">
        <ele>102</ele>
        <time>2017-01-16T12:04:46Z</time>
      </trkpt>
      <trkpt lat="47.84557" lon="-2.72216">
        <ele>102</ele>
        <time>2017-01-16T12:06:46Z</time>
      </trkpt>
      <trkpt lat="47.84543" lon="-2.72247">
        <ele>103</ele>
        <time>2017-01-16T12:08:46Z</time>
      </trkpt>
      <trkpt lat="47.84545" lon="-2.72276">
        <ele>101</ele>
        <time>2017-01-16T12:10:46Z</time>
      </trkpt>
      <trkpt lat="47.84543" lon="-2.72313">
        <ele>99</ele>
        <time>2017-01-16T12:12:46Z</time>
      </trkpt>
      <trkpt lat="47.84542" lon="-2.72323">
        <ele>99</ele>
        <time>2017-01-16T12:14:46Z</time>
      </trkpt>
      <trkpt lat="47.84535" lon="-2.72363">
        <ele>99</ele>
        <time>2017-01-16T12:16:46Z</time>
      </trkpt>
      <trkpt lat="47.84542" lon="-2.7239">
        <ele>98</ele>
        <time>2017-01-16T12:18:46Z</time>
      </trkpt>
      <trkpt lat="47.84544" lon="-2.72392">
        <ele>98</ele>
        <time>2017-01-16T12:20:46Z</time>
      </trkpt>
      <trkpt lat="47.84556" lon="-2.72419">
        <ele>97</ele>
        <time>2017-01-16T12:22:46Z</time>
      </trkpt>
      <trkpt lat="47.84567" lon="-2.72431">
        <ele>96</ele>
        <time>2017-01-16T12:24:46Z</time>
      </trkpt>
      <trkpt lat="47.84575" lon="-2.72443">
        <ele>95</ele>
        <time>2017-01-16T12:26:46Z</time>
      </trkpt>
      <trkpt lat="47.84588" lon="-2.72469">
        <ele>95</ele>
        <time>2017-01-16T12:28:46Z</time>
      </trkpt>
      <trkpt lat="47.84594" lon="-2.72484">
        <ele>95</ele>
        <time>2017-01-16T12:30:46Z</time>
      </trkpt>
      <trkpt lat="47.84582" lon="-2.72497">
        <ele>95</ele>
        <time>2017-01-16T12:32:46Z</time>
      </trkpt>
      <trkpt lat="47.84565" lon="-2.72498">
        <ele>96</ele>
        <time>2017-01-16T12:34:46Z</time>
      </trkpt>
      <trkpt lat="47.84557" lon="-2.7254">
        <ele>98</ele>
        <time>2017-01-16T12:36:46Z</time>
      </trkpt>
      <trkpt lat="47.84554" lon="-2.72578">
        <ele>101</ele>
        <time>2017-01-16T12:38:46Z</time>
      </trkpt>
      <trkpt lat="47.8454" lon="-2.72653">
        <ele>103</ele>
        <time>2017-01-16T12:40:46Z</time>
      </trkpt>
      <trkpt lat="47.84531" lon="-2.72697">
        <ele>104</ele>
        <time>2017-01-16T12:42:46Z</time>
      </trkpt>
      <trkpt lat="47.84523" lon="-2.72732">
        <ele>105</ele>
        <time>2017-01-16T12:44:46Z</time>
      </trkpt>
      <trkpt lat="47.84517" lon="-2.72765">
        <ele>105</ele>
        <time>2017-01-16T12:46:46Z</time>
      </trkpt>
      <trkpt lat="47.84511" lon="-2.72803">
        <ele>105</ele>
        <time>2017-01-16T12:48:46Z</time>
      </trkpt>
      <trkpt lat="47.84505" lon="-2.72848">
        <ele>105</ele>
        <time>2017-01-16T12:50:46Z</time>
      </trkpt>
      <trkpt lat="47.84505" lon="-2.72887">
        <ele>104</ele>
        <time>2017-01-16T12:52:46Z</time>
      </trkpt>
      <trkpt lat="47.84502" lon="-2.72923">
        <ele>104</ele>
        <time>2017-01-16T12:54:46Z</time>
      </trkpt>
      <trkpt lat="47.84501" lon="-2.72961">
        <ele>102</ele>
        <time>2017-01-16T12:56:46Z</time>
      </trkpt>
      <trkpt lat="47.845" lon="-2.7299">
        <ele>101</ele>
        <time>2017-01-16T12:58:46Z</time>
      </trkpt>
      <trkpt lat="47.84497" lon="-2.73032">
        <ele>100</ele>
        <time>2017-01-16T13:00:46Z</time>
      </trkpt>
      <trkpt lat="47.84496" lon="-2.73068">
        <ele>99</ele>
        <time>2017-01-16T13:02:46Z</time>
      </trkpt>
      <trkpt lat="47.84491" lon="-2.73147">
        <ele>96</ele>
        <time>2017-01-16T13:04:46Z</time>
      </trkpt>
      <trkpt lat="47.84488" lon="-2.73215">
        <ele>95</ele>
        <time>2017-01-16T13:06:46Z</time>
      </trkpt>
      <trkpt lat="47.84488" lon="-2.73229">
        <ele>94</ele>
        <time>2017-01-16T13:08:46Z</time>
      </trkpt>
      <trkpt lat="47.84482" lon="-2.73307">
        <ele>93</ele>
        <time>2017-01-16T13:10:46Z</time>
      </trkpt>
      <trkpt lat="47.84481" lon="-2.73342">
        <ele>93</ele>
        <time>2017-01-16T13:12:46Z</time>
      </trkpt>
      <trkpt lat="47.84481" lon="-2.73348">
        <ele>93</ele>
        <time>2017-01-16T13:14:46Z</time>
      </trkpt>
      <trkpt lat="47.84483" lon="-2.73387">
        <ele>92</ele>
        <time>2017-01-16T13:16:46Z</time>
      </trkpt>
      <trkpt lat="47.84481" lon="-2.73431">
        <ele>93</ele>
        <time>2017-01-16T13:18:46Z</time>
      </trkpt>
      <trkpt lat="47.84473" lon="-2.73507">
        <ele>94</ele>
        <time>2017-01-16T13:20:46Z</time>
      </trkpt>
      <trkpt lat="47.8447" lon="-2.73552">
        <ele>95</ele>
        <time>2017-01-16T13:22:46Z</time>
      </trkpt>
      <trkpt lat="47.84472" lon="-2.73596">
        <ele>95</ele>
        <time>2017-01-16T13:24:46Z</time>
      </trkpt>
      <trkpt lat="47.84472" lon="-2.73597">
        <ele>95</ele>
        <time>2017-01-16T13:26:46Z</time>
      </trkpt>
      <trkpt lat="47.84473" lon="-2.73601">
        <ele>95</ele>
        <time>2017-01-16T13:28:46Z</time>
      </trkpt>
      <trkpt lat="47.84473" lon="-2.73603">
        <ele>95</ele>
        <time>2017-01-16T13:30:46Z</time>
      </trkpt>
      <trkpt lat="47.84472" lon="-2.73603">
        <ele>95</ele>
        <time>2017-01-16T13:32:46Z</time>
      </trkpt>
      <trkpt lat="47.8448" lon="-2.73606">
        <ele>95</ele>
        <time>2017-01-16T13:34:46Z</time>
      </trkpt>
      <trkpt lat="47.84501" lon="-2.73606">
        <ele>94</ele>
        <time>2017-01-16T13:36:46Z</time>
      </trkpt>
      <trkpt lat="47.8453" lon="-2.73603">
        <ele>92</ele>
        <time>2017-01-16T13:38:46Z</time>
      </trkpt>
      <trkpt lat="47.84587" lon="-2.73594">
        <ele>90</ele>
        <time>2017-01-16T13:40:46Z</time>
      </trkpt>
      <trkpt lat="47.84611" lon="-2.73591">
        <ele>90</ele>
        <time>2017-01-16T13:42:46Z</time>
      </trkpt>
      <trkpt lat="47.84636" lon="-2.73588">
        <ele>89</ele>
        <time>2017-01-16T13:44:46Z</time>
      </trkpt>
      <trkpt lat="47.84666" lon="-2.73588">
        <ele>88</ele>
        <time>2017-01-16T13:46:46Z</time>
      </trkpt>
      <trkpt lat="47.84695" lon="-2.73584">
        <ele>85</ele>
        <time>2017-01-16T13:48:46Z</time>
      </trkpt>
      <trkpt lat="47.84717" lon="-2.73581">
        <ele>82</ele>
        <time>2017-01-16T13:50:46Z</time>
      </trkpt>
      <trkpt lat="47.84741" lon="-2.73582">
        <ele>79</ele>
        <time>2017-01-16T13:52:46Z</time>
      </trkpt>
      <trkpt lat="47.84757" lon="-2.73603">
        <ele>78</ele>
        <time>2017-01-16T13:54:46Z</time>
      </trkpt>
      <trkpt lat="47.84768" lon="-2.73631">
        <ele>79</ele>
        <time>2017-01-16T13:56:46Z</time>
      </trkpt>
      <trkpt lat="47.84778" lon="-2.73661">
        <ele>78</ele>
        <time>2017-01-16T13:58:46Z</time>
      </trkpt>
      <trkpt lat="47.84778" lon="-2.73728">
        <ele>80</ele>
        <time>2017-01-16T14:00:46Z</time>
      </trkpt>
      <trkpt lat="47.84786" lon="-2.73756">
        <ele>80</ele>
        <time>2017-01-16T14:02:46Z</time>
      </trkpt>
      <trkpt lat="47.84811" lon="-2.73759">
        <ele>75</ele>
        <time>2017-01-16T14:04:46Z</time>
      </trkpt>
      <trkpt lat="47.84836" lon="-2.73755">
        <ele>71</ele>
        <time>2017-01-16T14:06:46Z</time>
      </trkpt>
      <trkpt lat="47.84871" lon="-2.73757">
        <ele>70</ele>
        <time>2017-01-16T14:08:46Z</time>
      </trkpt>
      <trkpt lat="47.84914" lon="-2.73751">
        <ele>69</ele>
        <time>2017-01-16T14:10:46Z</time>
      </trkpt>
      <trkpt lat="47.84945" lon="-2.73749">
        <ele>71</ele>
        <time>2017-01-16T14:12:46Z</time>
      </trkpt>
      <trkpt lat="47.85036" lon="-2.73748">
        <ele>77</ele>
        <time>2017-01-16T14:14:46Z</time>
      </trkpt>
      <trkpt lat="47.85087" lon="-2.73746">
        <ele>80</ele>
        <time>2017-01-16T14:16:46Z</time>
      </trkpt>
      <trkpt lat="47.85133" lon="-2.73746">
        <ele>82</ele>
        <time>2017-01-16T14:18:46Z</time>
      </trkpt>
      <trkpt lat="47.85171" lon="-2.73745">
        <ele>83</ele>
        <time>2017-01-16T14:20:46Z</time>
      </trkpt>
      <trkpt lat="47.85194" lon="-2.73743">
        <ele>84</ele>
        <time>2017-01-16T14:22:46Z</time>
      </trkpt>
      <trkpt lat="47.85217" lon="-2.73746">
        <ele>85</ele>
        <time>2017-01-16T14:24:46Z</time>
      </trkpt>
      <trkpt lat="47.85256" lon="-2.73746">
        <ele>86</ele>
        <time>2017-01-16T14:26:46Z</time>
      </trkpt>
      <trkpt lat="47.85271" lon="-2.73747">
        <ele>86</ele>
        <time>2017-01-16T14:28:46Z</time>
      </trkpt>
      <trkpt lat="47.8531" lon="-2.73751">
        <ele>86</ele>
        <time>2017-01-16T14:30:46Z</time>
      </trkpt>
      <trkpt lat="47.85353" lon="-2.73751">
        <ele>86</ele>
        <time>2017-01-16T14:32:46Z</time>
      </trkpt>
      <trkpt lat="47.85389" lon="-2.73754">
        <ele>85</ele>
        <time>2017-01-16T14:34:46Z</time>
      </trkpt>
      <trkpt lat="47.8544" lon="-2.73754">
        <ele>85</ele>
        <time>2017-01-16T14:36:46Z</time>
      </trkpt>
      <trkpt lat="47.8548" lon="-2.73755">
        <ele>86</ele>
        <time>2017-01-16T14:38:46Z</time>
      </trkpt>
      <trkpt lat="47.85489" lon="-2.73753">
        <ele>86</ele>
        <time>2017-01-16T14:40:46Z</time>
      </trkpt>
      <trkpt lat="47.85499" lon="-2.73771">
        <ele>86</ele>
        <time>2017-01-16T14:42:46Z</time>
      </trkpt>
      <trkpt lat="47.85501" lon="-2.73782">
        <ele>86</ele>
        <time>2017-01-16T14:44:46Z</time>
      </trkpt>
      <trkpt lat="47.85502" lon="-2.73792">
        <ele>85</ele>
        <time>2017-01-16T14:46:46Z</time>
      </trkpt>
      <trkpt lat="47.85503" lon="-2.73797">
        <ele>85</ele>
        <time>2017-01-16T14:48:46Z</time>
      </trkpt>
      <trkpt lat="47.85503" lon="-2.73807">
        <ele>85</ele>
        <time>2017-01-16T14:50:46Z</time>
      </trkpt>
      <trkpt lat="47.85504" lon="-2.73818">
        <ele>85</ele>
        <time>2017-01-16T14:52:46Z</time>
      </trkpt>
      <trkpt lat="47.85516" lon="-2.7389">
        <ele>84</ele>
        <time>2017-01-16T14:54:46Z</time>
      </trkpt>
      <trkpt lat="47.85522" lon="-2.73937">
        <ele>85</ele>
        <time>2017-01-16T14:56:46Z</time>
      </trkpt>
      <trkpt lat="47.85524" lon="-2.73948">
        <ele>85</ele>
        <time>2017-01-16T14:58:46Z</time>
      </trkpt>
      <trkpt lat="47.85524" lon="-2.73959">
        <ele>85</ele>
        <time>2017-01-16T15:00:46Z</time>
      </trkpt>
      <trkpt lat="47.85538" lon="-2.74074">
        <ele>85</ele>
        <time>2017-01-16T15:02:46Z</time>
      </trkpt>
      <trkpt lat="47.8555" lon="-2.74157">
        <ele>88</ele>
        <time>2017-01-16T15:04:46Z</time>
      </trkpt>
      <trkpt lat="47.85561" lon="-2.7424">
        <ele>89</ele>
        <time>2017-01-16T15:06:46Z</time>
      </trkpt>
      <trkpt lat="47.85571" lon="-2.74305">
        <ele>89</ele>
        <time>2017-01-16T15:08:46Z</time>
      </trkpt>
      <trkpt lat="47.85583" lon="-2.74381">
        <ele>89</ele>
        <time>2017-01-16T15:10:46Z</time>
      </trkpt>
      <trkpt lat="47.85595" lon="-2.74486">
        <ele>89</ele>
        <time>2017-01-16T15:12:46Z</time>
      </trkpt>
      <trkpt lat="47.85596" lon="-2.74498">
        <ele>88</ele>
        <time>2017-01-16T15:14:46Z</time>
      </trkpt>
      <trkpt lat="47.85597" lon="-2.74503">
        <ele>88</ele>
        <time>2017-01-16T15:16:46Z</time>
      </trkpt>
      <trkpt lat="47.85599" lon="-2.74515">
        <ele>88</ele>
        <time>2017-01-16T15:18:46Z</time>
      </trkpt>
      <trkpt lat="47.856" lon="-2.74526">
        <ele>88</ele>
        <time>2017-01-16T15:20:46Z</time>
      </trkpt>
      <trkpt lat="47.85609" lon="-2.74604">
        <ele>86</ele>
        <time>2017-01-16T15:22:46Z</time>
      </trkpt>
      <trkpt lat="47.85614" lon="-2.74644">
        <ele>86</ele>
        <time>2017-01-16T15:24:46Z</time>
      </trkpt>
      <trkpt lat="47.85616" lon="-2.74648">
        <ele>86</ele>
        <time>2017-01-16T15:26:46Z</time>
      </trkpt>
      <trkpt lat="47.85616" lon="-2.74651">
        <ele>86</ele>
        <time>2017-01-16T15:28:46Z</time>
      </trkpt>
      <trkpt lat="47.85622" lon="-2.74694">
        <ele>86</ele>
        <time>2017-01-16T15:30:46Z</time>
      </trkpt>
      <trkpt lat="47.85627" lon="-2.74726">
        <ele>87</ele>
        <time>2017-01-16T15:32:46Z</time>
      </trkpt>
      <trkpt lat="47.85627" lon="-2.74725">
        <ele>87</ele>
        <time>2017-01-16T15:34:46Z</time>
      </trkpt>
      <trkpt lat="47.85627" lon="-2.74726">
        <ele>87</ele>
        <time>2017-01-16T15:36:46Z</time>
      </trkpt>
      <trkpt lat="47.85627" lon="-2.74724">
        <ele>87</ele>
        <time>2017-01-16T15:38:46Z</time>
      </trkpt>
      <trkpt lat="47.85626" lon="-2.74718">
        <ele>87</ele>
        <time>2017-01-16T15:40:46Z</time>
      </trkpt>
      <trkpt lat="47.85625" lon="-2.74713">
        <ele>87</ele>
        <time>2017-01-16T15:42:46Z</time>
      </trkpt>
      <trkpt lat="47.85625" lon="-2.74703">
        <ele>87</ele>
        <time>2017-01-16T15:44:46Z</time>
      </trkpt>
      <trkpt lat="47.85623" lon="-2.74697">
        <ele>87</ele>
        <time>2017-01-16T15:46:46Z</time>
      </trkpt>
      <trkpt lat="47.85624" lon="-2.74703">
        <ele>87</ele>
        <time>2017-01-16T15:48:46Z</time>
      </trkpt>
      <trkpt lat="47.85625" lon="-2.74711">
        <ele>87</ele>
        <time>2017-01-16T15:50:46Z</time>
      </trkpt>
      <trkpt lat="47.85626" lon="-2.74715">
        <ele>87</ele>
        <time>2017-01-16T15:52:46Z</time>
      </trkpt>
      <trkpt lat="47.85626" lon="-2.74721">
        <ele>87</ele>
        <time>2017-01-16T15:54:46Z</time>
      </trkpt>
      <trkpt lat="47.85628" lon="-2.74734">
        <ele>87</ele>
        <time>2017-01-16T15:56:46Z</time>
      </trkpt>
      <trkpt lat="47.85628" lon="-2.74736">
        <ele>87</ele>
        <time>2017-01-16T15:58:46Z</time>
      </trkpt>
      <trkpt lat="47.85631" lon="-2.74757">
        <ele>88</ele>
        <time>2017-01-16T16:00:46Z</time>
      </trkpt>
      <trkpt lat="47.85637" lon="-2.74793">
        <ele>91</ele>
        <time>2017-01-16T16:02:46Z</time>
      </trkpt>
      <trkpt lat="47.85637" lon="-2.74798">
        <ele>91</ele>
        <time>2017-01-16T16:04:46Z</time>
      </trkpt>
      <trkpt lat="47.85638" lon="-2.74802">
        <ele>91</ele>
        <time>2017-01-16T16:06:46Z</time>
      </trkpt>
      <trkpt lat="47.8564" lon="-2.74822">
        <ele>93</ele>
        <time>2017-01-16T16:08:46Z</time>
      </trkpt>
      <trkpt lat="47.85642" lon="-2.74846">
        <ele>94</ele>
        <time>2017-01-16T16:10:46Z</time>
      </trkpt>
      <trkpt lat="47.85644" lon="-2.74854">
        <ele>95</ele>
        <time>2017-01-16T16:12:46Z</time>
      </trkpt>
      <trkpt lat="47.85645" lon="-2.74873">
        <ele>95</ele>
        <time>2017-01-16T16:14:46Z</time>
      </trkpt>
      <trkpt lat="47.85647" lon="-2.7488">
        <ele>96</ele>
        <time>2017-01-16T16:16:46Z</time>
      </trkpt>
      <trkpt lat="47.85661" lon="-2.74889">
        <ele>98</ele>
        <time>2017-01-16T16:18:46Z</time>
      </trkpt>
      <trkpt lat="47.85668" lon="-2.74888">
        <ele>98</ele>
        <time>2017-01-16T16:20:46Z</time>
      </trkpt>
      <trkpt lat="47.85684" lon="-2.74881">
        <ele>98</ele>
        <time>2017-01-16T16:22:46Z</time>
      </trkpt>
      <trkpt lat="47.85704" lon="-2.74874">
        <ele>98</ele>
        <time>2017-01-16T16:24:46Z</time>
      </trkpt>
      <trkpt lat="47.85709" lon="-2.74873">
        <ele>97</ele>
        <time>2017-01-16T16:26:46Z</time>
      </trkpt>
      <trkpt lat="47.85723" lon="-2.74868">
        <ele>97</ele>
        <time>2017-01-16T16:28:46Z</time>
      </trkpt>
      <trkpt lat="47.85725" lon="-2.74867">
        <ele>97</ele>
        <time>2017-01-16T16:30:46Z</time>
      </trkpt>
      <trkpt lat="47.85726" lon="-2.74865">
        <ele>97</ele>
        <time>2017-01-16T16:32:46Z</time>
      </trkpt>
      <trkpt lat="47.85749" lon="-2.74857">
        <ele>97</ele>
        <time>2017-01-16T16:34:46Z</time>
      </trkpt>
      <trkpt lat="47.85766" lon="-2.7485">
        <ele>97</ele>
        <time>2017-01-16T16:36:46Z</time>
      </trkpt>
      <trkpt lat="47.858" lon="-2.74838">
        <ele>97</ele>
        <time>2017-01-16T16:38:46Z</time>
      </trkpt>
      <trkpt lat="47.85818" lon="-2.74832">
        <ele>96</ele>
        <time>2017-01-16T16:40:46Z</time>
      </trkpt>
      <trkpt lat="47.85827" lon="-2.74829">
        <ele>96</ele>
        <time>2017-01-16T16:42:46Z</time>
      </trkpt>
      <trkpt lat="47.85831" lon="-2.74826">
        <ele>96</ele>
        <time>2017-01-16T16:44:46Z</time>
      </trkpt>
      <trkpt lat="47.85831" lon="-2.74827">
        <ele>96</ele>
        <time>2017-01-16T16:46:46Z</time>
      </trkpt>
      <trkpt lat="47.85838" lon="-2.7483">
        <ele>96</ele>
        <time>2017-01-16T16:48:46Z</time>
      </trkpt>
      <trkpt lat="47.85839" lon="-2.74829">
        <ele>96</ele>
        <time>2017-01-16T16:50:46Z</time>
      </trkpt>
      <trkpt lat="47.8584" lon="-2.74829">
        <ele>96</ele>
        <time>2017-01-16T16:52:46Z</time>
      </trkpt>
      <trkpt lat="47.85846" lon="-2.74821">
        <ele>96</ele>
        <time>2017-01-16T16:54:46Z</time>
      </trkpt>
      <trkpt lat="47.85852" lon="-2.74819">
        <ele>96</ele>
        <time>2017-01-16T16:56:46Z</time>
      </trkpt>
      <trkpt lat="47.85874" lon="-2.74837">
        <ele>96</ele>
        <time>2017-01-16T16:58:46Z</time>
      </trkpt>
      <trkpt lat="47.85874" lon="-2.74868">
        <ele>96</ele>
        <time>2017-01-16T17:00:46Z</time>
      </trkpt>
      <trkpt lat="47.85873" lon="-2.74899">
        <ele>95</ele>
        <time>2017-01-16T17:02:46Z</time>
      </trkpt>
      <trkpt lat="47.85874" lon="-2.74928">
        <ele>94</ele>
        <time>2017-01-16T17:04:46Z</time>
      </trkpt>
      <trkpt lat="47.85875" lon="-2.74929">
        <ele>94</ele>
        <time>2017-01-16T17:06:46Z</time>
      </trkpt>
      <trkpt lat="47.85875" lon="-2.74966">
        <ele>92</ele>
        <time>2017-01-16T17:08:46Z</time>
      </trkpt>
      <trkpt lat="47.85875" lon="-2.75009">
        <ele>90</ele>
        <time>2017-01-16T17:10:46Z</time>
      </trkpt>
      <trkpt lat="47.85876" lon="-2.75028">
        <ele>89</ele>
        <time>2017-01-16T17:12:46Z</time>
      </trkpt>
      <trkpt lat="47.85876" lon="-2.75066">
        <ele>87</ele>
        <time>2017-01-16T17:14:46Z</time>
      </trkpt>
      <trkpt lat="47.85876" lon="-2.751">
        <ele>85</ele>
        <time>2017-01-16T17:16:46Z</time>
      </trkpt>
      <trkpt lat="47.85876" lon="-2.75101">
        <ele>85</ele>
        <time>2017-01-16T17:18:46Z</time>
      </trkpt>
      <trkpt lat="47.85877" lon="-2.75102">
        <ele>85</ele>
        <time>2017-01-16T17:20:46Z</time>
      </trkpt>
      <trkpt lat="47.85876" lon="-2.75103">
        <ele>85</ele>
        <time>2017-01-16T17:22:46Z</time>
      </trkpt>
      <trkpt lat="47.85877" lon="-2.75112">
        <ele>84</ele>
        <time>2017-01-16T17:24:46Z</time>
      </trkpt>
      <trkpt lat="47.85876" lon="-2.75174">
        <ele>81</ele>
        <time>2017-01-16T17:26:46Z</time>
      </trkpt>
      <trkpt lat="47.85876" lon="-2.75195">
        <ele>80</ele>
        <time>2017-01-16T17:28:46Z</time>
      </trkpt>
      <trkpt lat="47.85876" lon="-2.75223">
        <ele>79</ele>
        <time>2017-01-16T17:30:46Z</time>
      </trkpt>
      <trkpt lat="47.85875" lon="-2.75247">
        <ele>78</ele>
        <time>2017-01-16T17:32:46Z</time>
      </trkpt>
      <trkpt lat="47.85876" lon="-2.75281">
        <ele>77</ele>
        <time>2017-01-16T17:34:46Z</time>
      </trkpt>
      <trkpt lat="47.85877" lon="-2.75299">
        <ele>76</ele>
        <time>2017-01-16T17:36:46Z</time>
      </trkpt>
      <trkpt lat="47.85876" lon="-2.7533">
        <ele>75</ele>
        <time>2017-01-16T17:38:46Z</time>
      </trkpt>
      <trkpt lat="47.8588" lon="-2.75344">
        <ele>74</ele>
        <time>2017-01-16T17:40:46Z</time>
      </trkpt>
      <trkpt lat="47.85881" lon="-2.75355">
        <ele>73</ele>
        <time>2017-01-16T17:42:46Z</time>
      </trkpt>
      <trkpt lat="47.85891" lon="-2.75385">
        <ele>72</ele>
        <time>2017-01-16T17:44:46Z</time>
      </trkpt>
      <trkpt lat="47.85911" lon="-2.75412">
        <ele>71</ele>
        <time>2017-01-16T17:46:46Z</time>
      </trkpt>
      <trkpt lat="47.85933" lon="-2.75428">
        <ele>70</ele>
        <time>2017-01-16T17:48:46Z</time>
      </trkpt>
      <trkpt lat="47.85958" lon="-2.75439">
        <ele>69</ele>
        <time>2017-01-16T17:50:46Z</time>
      </trkpt>
      <trkpt lat="47.85981" lon="-2.75454">
        <ele>68</ele>
        <time>2017-01-16T17:52:46Z</time>
      </trkpt>
      <trkpt lat="47.86007" lon="-2.75465">
        <ele>68</ele>
        <time>2017-01-16T17:54:46Z</time>
      </trkpt>
      <trkpt lat="47.8603" lon="-2.75475">
        <ele>70</ele>
        <time>2017-01-16T17:56:46Z</time>
      </trkpt>
      <trkpt lat="47.86051" lon="-2.75514">
        <ele>72</ele>
        <time>2017-01-16T17:58:46Z</time>
      </trkpt>
      <trkpt lat="47.86075" lon="-2.75525">
        <ele>75</ele>
        <time>2017-01-16T18:00:46Z</time>
      </trkpt>
      <trkpt lat="47.86099" lon="-2.75539">
        <ele>78</ele>
        <time>2017-01-16T18:02:46Z</time>
      </trkpt>
      <trkpt lat="47.86122" lon="-2.75546">
        <ele>81</ele>
        <time>2017-01-16T18:04:46Z</time>
      </trkpt>
      <trkpt lat="47.86143" lon="-2.75549">
        <ele>84</ele>
        <time>2017-01-16T18:06:46Z</time>
      </trkpt>
      <trkpt lat="47.86166" lon="-2.75548">
        <ele>86</ele>
        <time>2017-01-16T18:08:46Z</time>
      </trkpt>
      <trkpt lat="47.86191" lon="-2.75546">
        <ele>88</ele>
        <time>2017-01-16T18:10:46Z</time>
      </trkpt>
      <trkpt lat="47.86206" lon="-2.7554">
        <ele>89</ele>
        <time>2017-01-16T18:12:46Z</time>
      </trkpt>
      <trkpt lat="47.86208" lon="-2.75538">
        <ele>89</ele>
        <time>2017-01-16T18:14:46Z</time>
      </trkpt>
      <trkpt lat="47.86246" lon="-2.75525">
        <ele>92</ele>
        <time>2017-01-16T18:16:46Z</time>
      </trkpt>
      <trkpt lat="47.86262" lon="-2.75517">
        <ele>92</ele>
        <time>2017-01-16T18:18:46Z</time>
      </trkpt>
      <trkpt lat="47.86265" lon="-2.75505">
        <ele>92</ele>
        <time>2017-01-16T18:20:46Z</time>
      </trkpt>
      <trkpt lat="47.86264" lon="-2.75504">
        <ele>92</ele>
        <time>2017-01-16T18:22:46Z</time>
      </trkpt>
      <trkpt lat="47.86277" lon="-2.75512">
        <ele>93</ele>
        <time>2017-01-16T18:24:46Z</time>
      </trkpt>
      <trkpt lat="47.86283" lon="-2.75514">
        <ele>93</ele>
        <time>2017-01-16T18:26:46Z</time>
      </trkpt>
      <trkpt lat="47.86303" lon="-2.75526">
        <ele>94</ele>
        <time>2017-01-16T18:28:46Z</time>
      </trkpt>
      <trkpt lat="47.86323" lon="-2.75534">
        <ele>94</ele>
        <time>2017-01-16T18:30:46Z</time>
      </trkpt>
      <trkpt lat="47.86348" lon="-2.75535">
        <ele>94</ele>
        <time>2017-01-16T18:32:46Z</time>
      </trkpt>
      <trkpt lat="47.86377" lon="-2.7553">
        <ele>94</ele>
        <time>2017-01-16T18:34:46Z</time>
      </trkpt>
      <trkpt lat="47.86394" lon="-2.75546">
        <ele>95</ele>
        <time>2017-01-16T18:36:46Z</time>
      </trkpt>
      <trkpt lat="47.86396" lon="-2.75552">
        <ele>95</ele>
        <time>2017-01-16T18:38:46Z</time>
      </trkpt>
      <trkpt lat="47.86395" lon="-2.75588">
        <ele>95</ele>
        <time>2017-01-16T18:40:46Z</time>
      </trkpt>
      <trkpt lat="47.86396" lon="-2.75627">
        <ele>96</ele>
        <time>2017-01-16T18:42:46Z</time>
      </trkpt>
      <trkpt lat="47.86399" lon="-2.75658">
        <ele>96</ele>
        <time>2017-01-16T18:44:46Z</time>
      </trkpt>
      <trkpt lat="47.86402" lon="-2.75679">
        <ele>96</ele>
        <time>2017-01-16T18:46:46Z</time>
      </trkpt>
      <trkpt lat="47.86407" lon="-2.75695">
        <ele>97</ele>
        <time>2017-01-16T18:48:46Z</time>
      </trkpt>
      <trkpt lat="47.86412" lon="-2.75713">
        <ele>97</ele>
        <time>2017-01-16T18:50:46Z</time>
      </trkpt>
      <trkpt lat="47.86417" lon="-2.75724">
        <ele>97</ele>
        <time>2017-01-16T18:52:46Z</time>
      </trkpt>
      <trkpt lat="47.86418" lon="-2.7573">
        <ele>98</ele>
        <time>2017-01-16T18:54:46Z</time>
      </trkpt>
      <trkpt lat="47.86425" lon="-2.75755">
        <ele>98</ele>
        <time>2017-01-16T18:56:46Z</time>
      </trkpt>
      <trkpt lat="47.86429" lon="-2.75763">
        <ele>98</ele>
        <time>2017-01-16T18:58:46Z</time>
      </trkpt>
      <trkpt lat="47.86432" lon="-2.75773">
        <ele>98</ele>
        <time>2017-01-16T19:00:46Z</time>
      </trkpt>
      <trkpt lat="47.86435" lon="-2.75783">
        <ele>98</ele>
        <time>2017-01-16T19:02:46Z</time>
      </trkpt>
      <trkpt lat="47.86433" lon="-2.75788">
        <ele>98</ele>
        <time>2017-01-16T19:04:46Z</time>
      </trkpt>
      <trkpt lat="47.86439" lon="-2.75806">
        <ele>98</ele>
        <time>2017-01-16T19:06:46Z</time>
      </trkpt>
      <trkpt lat="47.86443" lon="-2.75815">
        <ele>98</ele>
        <time>2017-01-16T19:08:46Z</time>
      </trkpt>
      <trkpt lat="47.86444" lon="-2.75822">
        <ele>98</ele>
        <time>2017-01-16T19:10:46Z</time>
      </trkpt>
      <trkpt lat="47.86446" lon="-2.75832">
        <ele>98</ele>
        <time>2017-01-16T19:12:46Z</time>
      </trkpt>
      <trkpt lat="47.86452" lon="-2.75842">
        <ele>98</ele>
        <time>2017-01-16T19:14:46Z</time>
      </trkpt>
      <trkpt lat="47.86458" lon="-2.75865">
        <ele>99</ele>
        <time>2017-01-16T19:16:46Z</time>
      </trkpt>
      <trkpt lat="47.8648" lon="-2.75928">
        <ele>99</ele>
        <time>2017-01-16T19:18:46Z</time>
      </trkpt>
      <trkpt lat="47.8649" lon="-2.75962">
        <ele>98</ele>
        <time>2017-01-16T19:20:46Z</time>
      </trkpt>
      <trkpt lat="47.86493" lon="-2.75982">
        <ele>97</ele>
        <time>2017-01-16T19:22:46Z</time>
      </trkpt>
      <trkpt lat="47.86493" lon="-2.75998">
        <ele>97</ele>
        <time>2017-01-16T19:24:46Z</time>
      </trkpt>
      <trkpt lat="47.86502" lon="-2.76054">
        <ele>94</ele>
        <time>2017-01-16T19:26:46Z</time>
      </trkpt>
      <trkpt lat="47.86504" lon="-2.76084">
        <ele>93</ele>
        <time>2017-01-16T19:28:46Z</time>
      </trkpt>
      <trkpt lat="47.86505" lon="-2.761">
        <ele>93</ele>
        <time>2017-01-16T19:30:46Z</time>
      </trkpt>
      <trkpt lat="47.86508" lon="-2.76121">
        <ele>92</ele>
        <time>2017-01-16T19:32:46Z</time>
      </trkpt>
      <trkpt lat="47.86509" lon="-2.76129">
        <ele>92</ele>
        <time>2017-01-16T19:34:46Z</time>
      </trkpt>
      <trkpt lat="47.86513" lon="-2.76158">
        <ele>92</ele>
        <time>2017-01-16T19:36:46Z</time>
      </trkpt>
      <trkpt lat="47.86518" lon="-2.76197">
        <ele>91</ele>
        <time>2017-01-16T19:38:46Z</time>
      </trkpt>
      <trkpt lat="47.86531" lon="-2.76235">
        <ele>90</ele>
        <time>2017-01-16T19:40:46Z</time>
      </trkpt>
      <trkpt lat="47.86546" lon="-2.76246">
        <ele>90</ele>
        <time>2017-01-16T19:42:46Z</time>
      </trkpt>
      <trkpt lat="47.86576" lon="-2.76261">
        <ele>90</ele>
        <time>2017-01-16T19:44:46Z</time>
      </trkpt>
      <trkpt lat="47.86583" lon="-2.76282">
        <ele>91</ele>
        <time>2017-01-16T19:46:46Z</time>
      </trkpt>
      <trkpt lat="47.86591" lon="-2.76338">
        <ele>96</ele>
        <time>2017-01-16T19:48:46Z</time>
      </trkpt>
      <trkpt lat="47.86596" lon="-2.76373">
        <ele>100</ele>
        <time>2017-01-16T19:50:46Z</time>
      </trkpt>
      <trkpt lat="47.86598" lon="-2.76402">
        <ele>103</ele>
        <time>2017-01-16T19:52:46Z</time>
      </trkpt>
      <trkpt lat="47.86601" lon="-2.76431">
        <ele>107</ele>
        <time>2017-01-16T19:54:46Z</time>
      </trkpt>
      <trkpt lat="47.866" lon="-2.76452">
        <ele>110</ele>
        <time>2017-01-16T19:56:46Z</time>
      </trkpt>
      <trkpt lat="47.866" lon="-2.76462">
        <ele>111</ele>
        <time>2017-01-16T19:58:46Z</time>
      </trkpt>
      <trkpt lat="47.86598" lon="-2.76465">
        <ele>111</ele>
        <time>2017-01-16T20:00:46Z</time>
      </trkpt>
      <trkpt lat="47.86595" lon="-2.76468">
        <ele>112</ele>
        <time>2017-01-16T20:02:46Z</time>
      </trkpt>
      <trkpt lat="47.86566" lon="-2.76476">
        <ele>115</ele>
        <time>2017-01-16T20:04:46Z</time>
      </trkpt>
      <trkpt lat="47.86561" lon="-2.76478">
        <ele>116</ele>
        <time>2017-01-16T20:06:46Z</time>
      </trkpt>
      <trkpt lat="47.86556" lon="-2.76481">
        <ele>117</ele>
        <time>2017-01-16T20:08:46Z</time>
      </trkpt>
      <trkpt lat="47.86553" lon="-2.76486">
        <ele>118</ele>
        <time>2017-01-16T20:10:46Z</time>
      </trkpt>
      <trkpt lat="47.86551" lon="-2.76493">
        <ele>119</ele>
        <time>2017-01-16T20:12:46Z</time>
      </trkpt>
      <trkpt lat="47.86549" lon="-2.765">
        <ele>120</ele>
        <time>2017-01-16T20:14:46Z</time>
      </trkpt>
      <trkpt lat="47.86548" lon="-2.76534">
        <ele>123</ele>
        <time>2017-01-16T20:16:46Z</time>
      </trkpt>
      <trkpt lat="47.86546" lon="-2.76569">
        <ele>127</ele>
        <time>2017-01-16T20:18:46Z</time>
      </trkpt>
      <trkpt lat="47.86542" lon="-2.76614">
        <ele>131</ele>
        <time>2017-01-16T20:20:46Z</time>
      </trkpt>
      <trkpt lat="47.86538" lon="-2.76646">
        <ele>134</ele>
        <time>2017-01-16T20:22:46Z</time>
      </trkpt>
      <trkpt lat="47.86536" lon="-2.76653">
        <ele>135</ele>
        <time>2017-01-16T20:24:46Z</time>
      </trkpt>
      <trkpt lat="47.86508" lon="-2.76663">
        <ele>139</ele>
        <time>2017-01-16T20:26:46Z</time>
      </trkpt>
      <trkpt lat="47.86458" lon="-2.76644">
        <ele>137</ele>
        <time>2017-01-16T20:28:46Z</time>
      </trkpt>
      <trkpt lat="47.86436" lon="-2.76638">
        <ele>136</ele>
        <time>2017-01-16T20:30:46Z</time>
      </trkpt>
      <trkpt lat="47.86413" lon="-2.76632">
        <ele>135</ele>
        <time>2017-01-16T20:32:46Z</time>
      </trkpt>
      <trkpt lat="47.86408" lon="-2.76629">
        <ele>134</ele>
        <time>2017-01-16T20:34:46Z</time>
      </trkpt>
      <trkpt lat="47.86387" lon="-2.76623">
        <ele>133</ele>
        <time>2017-01-16T20:36:46Z</time>
      </trkpt>
      <trkpt lat="47.8637" lon="-2.76621">
        <ele>132</ele>
        <time>2017-01-16T20:38:46Z</time>
      </trkpt>
      <trkpt lat="47.86342" lon="-2.76627">
        <ele>132</ele>
        <time>2017-01-16T20:40:46Z</time>
      </trkpt>
      <trkpt lat="47.86333" lon="-2.76627">
        <ele>131</ele>
        <time>2017-01-16T20:42:46Z</time>
      </trkpt>
      <trkpt lat="47.86311" lon="-2.76631">
        <ele>131</ele>
        <time>2017-01-16T20:44:46Z</time>
      </trkpt>
      <trkpt lat="47.86283" lon="-2.76629">
        <ele>129</ele>
        <time>2017-01-16T20:46:46Z</time>
      </trkpt>
      <trkpt lat="47.86275" lon="-2.76631">
        <ele>129</ele>
        <time>2017-01-16T20:48:46Z</time>
      </trkpt>
      <trkpt lat="47.86257" lon="-2.76657">
        <ele>131</ele>
        <time>2017-01-16T20:50:46Z</time>
      </trkpt>
      <trkpt lat="47.86254" lon="-2.76659">
        <ele>131</ele>
        <time>2017-01-16T20:52:46Z</time>
      </trkpt>
      <trkpt lat="47.86255" lon="-2.76678">
        <ele>133</ele>
        <time>2017-01-16T20:54:46Z</time>
      </trkpt>
      <trkpt lat="47.86255" lon="-2.76686">
        <ele>134</ele>
        <time>2017-01-16T20:56:46Z</time>
      </trkpt>
      <trkpt lat="47.86256" lon="-2.76691">
        <ele>134</ele>
        <time>2017-01-16T20:58:46Z</time>
      </trkpt>
      <trkpt lat="47.86254" lon="-2.76705">
        <ele>135</ele>
        <time>2017-01-16T21:00:46Z</time>
      </trkpt>
      <trkpt lat="47.8624" lon="-2.76725">
        <ele>136</ele>
        <time>2017-01-16T21:02:46Z</time>
      </trkpt>
      <trkpt lat="47.86243" lon="-2.76741">
        <ele>138</ele>
        <time>2017-01-16T21:04:46Z</time>
      </trkpt>
      <trkpt lat="47.86271" lon="-2.76796">
        <ele>142</ele>
        <time>2017-01-16T21:06:46Z</time>
      </trkpt>
      <trkpt lat="47.86269" lon="-2.76803">
        <ele>142</ele>
        <time>2017-01-16T21:08:46Z</time>
      </trkpt>
      <trkpt lat="47.86266" lon="-2.76808">
        <ele>142</ele>
        <time>2017-01-16T21:10:46Z</time>
      </trkpt>
      <trkpt lat="47.86255" lon="-2.7681">
        <ele>142</ele>
        <time>2017-01-16T21:12:46Z</time>
      </trkpt>
      <trkpt lat="47.86245" lon="-2.76808">
        <ele>142</ele>
        <time>2017-01-16T21:14:46Z</time>
      </trkpt>
      <trkpt lat="47.86223" lon="-2.76801">
        <ele>141</ele>
        <time>2017-01-16T21:16:46Z</time>
      </trkpt>
      <trkpt lat="47.86196" lon="-2.76804">
        <ele>140</ele>
        <time>2017-01-16T21:18:46Z</time>
      </trkpt>
      <trkpt lat="47.86193" lon="-2.76805">
        <ele>140</ele>
        <time>2017-01-16T21:20:46Z</time>
      </trkpt>
      <trkpt lat="47.8617" lon="-2.76798">
        <ele>139</ele>
        <time>2017-01-16T21:22:46Z</time>
      </trkpt>
      <trkpt lat="47.86137" lon="-2.76819">
        <ele>139</ele>
        <time>2017-01-16T21:24:46Z</time>
      </trkpt>
      <trkpt lat="47.86114" lon="-2.76839">
        <ele>139</ele>
        <time>2017-01-16T21:26:46Z</time>
      </trkpt>
      <trkpt lat="47.86092" lon="-2.76856">
        <ele>139</ele>
        <time>2017-01-16T21:28:46Z</time>
      </trkpt>
      <trkpt lat="47.86047" lon="-2.76891">
        <ele>137</ele>
        <time>2017-01-16T21:30:46Z</time>
      </trkpt>
      <trkpt lat="47.86032" lon="-2.76902">
        <ele>136</ele>
        <time>2017-01-16T21:32:46Z</time>
      </trkpt>
      <trkpt lat="47.86027" lon="-2.76906">
        <ele>135</ele>
        <time>2017-01-16T21:34:46Z</time>
      </trkpt>
      <trkpt lat="47.86016" lon="-2.7691">
        <ele>134</ele>
        <time>2017-01-16T21:36:46Z</time>
      </trkpt>
      <trkpt lat="47.85996" lon="-2.76911">
        <ele>131</ele>
        <time>2017-01-16T21:38:46Z</time>
      </trkpt>
      <trkpt lat="47.85976" lon="-2.76908">
        <ele>128</ele>
        <time>2017-01-16T21:40:46Z</time>
      </trkpt>
      <trkpt lat="47.85965" lon="-2.76906">
        <ele>127</ele>
        <time>2017-01-16T21:42:46Z</time>
      </trkpt>
      <trkpt lat="47.85959" lon="-2.76906">
        <ele>126</ele>
        <time>2017-01-16T21:44:46Z</time>
      </trkpt>
      <trkpt lat="47.85943" lon="-2.76897">
        <ele>123</ele>
        <time>2017-01-16T21:46:46Z</time>
      </trkpt>
      <trkpt lat="47.85919" lon="-2.7687">
        <ele>118</ele>
        <time>2017-01-16T21:48:46Z</time>
      </trkpt>
      <trkpt lat="47.859" lon="-2.76854">
        <ele>115</ele>
        <time>2017-01-16T21:50:46Z</time>
      </trkpt>
      <trkpt lat="47.85892" lon="-2.76867">
        <ele>114</ele>
        <time>2017-01-16T21:52:46Z</time>
      </trkpt>
      <trkpt lat="47.85894" lon="-2.76929">
        <ele>118</ele>
        <time>2017-01-16T21:54:46Z</time>
      </trkpt>
      <trkpt lat="47.85896" lon="-2.7695">
        <ele>119</ele>
        <time>2017-01-16T21:56:46Z</time>
      </trkpt>
      <trkpt lat="47.85892" lon="-2.76952">
        <ele>119</ele>
        <time>2017-01-16T21:58:46Z</time>
      </trkpt>
      <trkpt lat="47.85872" lon="-2.76958">
        <ele>116</ele>
        <time>2017-01-16T22:00:46Z</time>
      </trkpt>
      <trkpt lat="47.85865" lon="-2.76962">
        <ele>116</ele>
        <time>2017-01-16T22:02:46Z</time>
      </trkpt>
      <trkpt lat="47.8585" lon="-2.76991">
        <ele>115</ele>
        <time>2017-01-16T22:04:46Z</time>
      </trkpt>
      <trkpt lat="47.85846" lon="-2.77005">
        <ele>116</ele>
        <time>2017-01-16T22:06:46Z</time>
      </trkpt>
      <trkpt lat="47.85842" lon="-2.77011">
        <ele>115</ele>
        <time>2017-01-16T22:08:46Z</time>
      </trkpt>
      <trkpt lat="47.85838" lon="-2.77044">
        <ele>116</ele>
        <time>2017-01-16T22:10:46Z</time>
      </trkpt>
      <trkpt lat="47.85838" lon="-2.77065">
        <ele>117</ele>
        <time>2017-01-16T22:12:46Z</time>
      </trkpt>
      <trkpt lat="47.85832" lon="-2.7708">
        <ele>117</ele>
        <time>2017-01-16T22:14:46Z</time>
      </trkpt>
      <trkpt lat="47.8582" lon="-2.77112">
        <ele>114</ele>
        <time>2017-01-16T22:16:46Z</time>
      </trkpt>
      <trkpt lat="47.85818" lon="-2.77128">
        <ele>113</ele>
        <time>2017-01-16T22:18:46Z</time>
      </trkpt>
      <trkpt lat="47.85816" lon="-2.77137">
        <ele>112</ele>
        <time>2017-01-16T22:20:46Z</time>
      </trkpt>
      <trkpt lat="47.85816" lon="-2.77144">
        <ele>112</ele>
        <time>2017-01-16T22:22:46Z</time>
      </trkpt>
      <trkpt lat="47.85814" lon="-2.77167">
        <ele>111</ele>
        <time>2017-01-16T22:24:46Z</time>
      </trkpt>
      <trkpt lat="47.85814" lon="-2.77184">
        <ele>108</ele>
        <time>2017-01-16T22:26:46Z</time>
      </trkpt>
      <trkpt lat="47.85825" lon="-2.7721">
        <ele>105</ele>
        <time>2017-01-16T22:28:46Z</time>
      </trkpt>
      <trkpt lat="47.85824" lon="-2.77213">
        <ele>105</ele>
        <time>2017-01-16T22:30:46Z</time>
      </trkpt>
      <trkpt lat="47.85817" lon="-2.7722">
        <ele>102</ele>
        <time>2017-01-16T22:32:46Z</time>
      </trkpt>
      <trkpt lat="47.85815" lon="-2.77223">
        <ele>101</ele>
        <time>2017-01-16T22:34:46Z</time>
      </trkpt>
      <trkpt lat="47.85797" lon="-2.77247">
        <ele>95</ele>
        <time>2017-01-16T22:36:46Z</time>
      </trkpt>
      <trkpt lat="47.85794" lon="-2.77258">
        <ele>94</ele>
        <time>2017-01-16T22:38:46Z</time>
      </trkpt>
      <trkpt lat="47.8578" lon="-2.7726">
        <ele>92</ele>
        <time>2017-01-16T22:40:46Z</time>
      </trkpt>
      <trkpt lat="47.85776" lon="-2.77263">
        <ele>91</ele>
        <time>2017-01-16T22:42:46Z</time>
      </trkpt>
      <trkpt lat="47.85774" lon="-2.77294">
        <ele>89</ele>
        <time>2017-01-16T22:44:46Z</time>
      </trkpt>
      <trkpt lat="47.85766" lon="-2.77337">
        <ele>85</ele>
        <time>2017-01-16T22:46:46Z</time>
      </trkpt>
      <trkpt lat="47.85752" lon="-2.77356">
        <ele>85</ele>
        <time>2017-01-16T22:48:46Z</time>
      </trkpt>
      <trkpt lat="47.8575" lon="-2.77359">
        <ele>85</ele>
        <time>2017-01-16T22:50:46Z</time>
      </trkpt>
      <trkpt lat="47.85741" lon="-2.77369">
        <ele>85</ele>
        <time>2017-01-16T22:52:46Z</time>
      </trkpt>
      <trkpt lat="47.85737" lon="-2.7737">
        <ele>85</ele>
        <time>2017-01-16T22:54:46Z</time>
      </trkpt>
      <trkpt lat="47.85726" lon="-2.77376">
        <ele>85</ele>
        <time>2017-01-16T22:56:46Z</time>
      </trkpt>
      <trkpt lat="47.85705" lon="-2.77373">
        <ele>85</ele>
        <time>2017-01-16T22:58:46Z</time>
      </trkpt>
      <trkpt lat="47.8568" lon="-2.77362">
        <ele>85</ele>
        <time>2017-01-16T23:00:46Z</time>
      </trkpt>
      <trkpt lat="47.85672" lon="-2.77364">
        <ele>85</ele>
        <time>2017-01-16T23:02:46Z</time>
      </trkpt>
      <trkpt lat="47.85666" lon="-2.77366">
        <ele>85</ele>
        <time>2017-01-16T23:04:46Z</time>
      </trkpt>
      <trkpt lat="47.85665" lon="-2.77367">
        <ele>85</ele>
        <time>2017-01-16T23:06:46Z</time>
      </trkpt>
      <trkpt lat="47.85659" lon="-2.77374">
        <ele>86</ele>
        <time>2017-01-16T23:08:46Z</time>
      </trkpt>
      <trkpt lat="47.85642" lon="-2.77409">
        <ele>87</ele>
        <time>2017-01-16T23:10:46Z</time>
      </trkpt>
      <trkpt lat="47.85632" lon="-2.77432">
        <ele>88</ele>
        <time>2017-01-16T23:12:46Z</time>
      </trkpt>
      <trkpt lat="47.85629" lon="-2.77439">
        <ele>89</ele>
        <time>2017-01-16T23:14:46Z</time>
      </trkpt>
      <trkpt lat="47.85626" lon="-2.77446">
        <ele>89</ele>
        <time>2017-01-16T23:16:46Z</time>
      </trkpt>
      <trkpt lat="47.85625" lon="-2.7745">
        <ele>89</ele>
        <time>2017-01-16T23:18:46Z</time>
      </trkpt>
      <trkpt lat="47.85611" lon="-2.77484">
        <ele>91</ele>
        <time>2017-01-16T23:20:46Z</time>
      </trkpt>
      <trkpt lat="47.85598" lon="-2.77512">
        <ele>93</ele>
        <time>2017-01-16T23:22:46Z</time>
      </trkpt>
      <trkpt lat="47.85584" lon="-2.77538">
        <ele>94</ele>
        <time>2017-01-16T23:24:46Z</time>
      </trkpt>
      <trkpt lat="47.85572" lon="-2.77572">
        <ele>96</ele>
        <time>2017-01-16T23:26:46Z</time>
      </trkpt>
      <trkpt lat="47.85565" lon="-2.77598">
        <ele>97</ele>
        <time>2017-01-16T23:28:46Z</time>
      </trkpt>
      <trkpt lat="47.85556" lon="-2.7766">
        <ele>100</ele>
        <time>2017-01-16T23:30:46Z</time>
      </trkpt>
      <trkpt lat="47.85555" lon="-2.77698">
        <ele>100</ele>
        <time>2017-01-16T23:32:46Z</time>
      </trkpt>
      <trkpt lat="47.85552" lon="-2.77729">
        <ele>100</ele>
        <time>2017-01-16T23:34:46Z</time>
      </trkpt>
      <trkpt lat="47.85557" lon="-2.77734">
        <ele>101</ele>
        <time>2017-01-16T23:36:46Z</time>
      </trkpt>
      <trkpt lat="47.85587" lon="-2.7774">
        <ele>101</ele>
        <time>2017-01-16T23:38:46Z</time>
      </trkpt>
      <trkpt lat="47.85611" lon="-2.7774">
        <ele>100</ele>
        <time>2017-01-16T23:40:46Z</time>
      </trkpt>
      <trkpt lat="47.85642" lon="-2.77747">
        <ele>99</ele>
        <time>2017-01-16T23:42:46Z</time>
      </trkpt>
      <trkpt lat="47.85665" lon="-2.77755">
        <ele>99</ele>
        <time>2017-01-16T23:44:46Z</time>
      </trkpt>
      <trkpt lat="47.85717" lon="-2.77771">
        <ele>103</ele>
        <time>2017-01-16T23:46:46Z</time>
      </trkpt>
      <trkpt lat="47.8574" lon="-2.77781">
        <ele>105</ele>
        <time>2017-01-16T23:48:46Z</time>
      </trkpt>
      <trkpt lat="47.8576" lon="-2.77784">
        <ele>106</ele>
        <time>2017-01-16T23:50:46Z</time>
      </trkpt>
      <trkpt lat="47.85768" lon="-2.7779">
        <ele>107</ele>
        <time>2017-01-16T23:52:46Z</time>
      </trkpt>
      <trkpt lat="47.85771" lon="-2.77799">
        <ele>109</ele>
        <time>2017-01-16T23:54:46Z</time>
      </trkpt>
      <trkpt lat="47.85768" lon="-2.77809">
        <ele>111</ele>
        <time>2017-01-16T23:56:46Z</time>
      </trkpt>
      <trkpt lat="47.85755" lon="-2.77832">
        <ele>113</ele>
        <time>2017-01-16T23:58:46Z</time>
      </trkpt>
      <trkpt lat="47.85752" lon="-2.77835">
        <ele>114</ele>
        <time>2017-01-17T00:00:46Z</time>
      </trkpt>
      <trkpt lat="47.85751" lon="-2.7784">
        <ele>114</ele>
        <time>2017-01-17T00:02:46Z</time>
      </trkpt>
      <trkpt lat="47.85748" lon="-2.77845">
        <ele>115</ele>
        <time>2017-01-17T00:04:46Z</time>
      </trkpt>
      <trkpt lat="47.85733" lon="-2.77849">
        <ele>116</ele>
        <time>2017-01-17T00:06:46Z</time>
      </trkpt>
      <trkpt lat="47.85725" lon="-2.77855">
        <ele>117</ele>
        <time>2017-01-17T00:08:46Z</time>
      </trkpt>
      <trkpt lat="47.85699" lon="-2.77864">
        <ele>119</ele>
        <time>2017-01-17T00:10:46Z</time>
      </trkpt>
      <trkpt lat="47.85676" lon="-2.77879">
        <ele>121</ele>
        <time>2017-01-17T00:12:46Z</time>
      </trkpt>
      <trkpt lat="47.85655" lon="-2.77891">
        <ele>122</ele>
        <time>2017-01-17T00:14:46Z</time>
      </trkpt>
      <trkpt lat="47.85633" lon="-2.7791">
        <ele>123</ele>
        <time>2017-01-17T00:16:46Z</time>
      </trkpt>
      <trkpt lat="47.85612" lon="-2.77931">
        <ele>124</ele>
        <time>2017-01-17T00:18:46Z</time>
      </trkpt>
      <trkpt lat="47.85579" lon="-2.77971">
        <ele>125</ele>
        <time>2017-01-17T00:20:46Z</time>
      </trkpt>
      <trkpt lat="47.85571" lon="-2.77978">
        <ele>125</ele>
        <time>2017-01-17T00:22:46Z</time>
      </trkpt>
      <trkpt lat="47.85558" lon="-2.78009">
        <ele>126</ele>
        <time>2017-01-17T00:24:46Z</time>
      </trkpt>
      <trkpt lat="47.85545" lon="-2.7803">
        <ele>125</ele>
        <time>2017-01-17T00:26:46Z</time>
      </trkpt>
      <trkpt lat="47.85531" lon="-2.78084">
        <ele>125</ele>
        <time>2017-01-17T00:28:46Z</time>
      </trkpt>
      <trkpt lat="47.85524" lon="-2.78111">
        <ele>125</ele>
        <time>2017-01-17T00:30:46Z</time>
      </trkpt>
      <trkpt lat="47.85515" lon="-2.7814">
        <ele>124</ele>
        <time>2017-01-17T00:32:46Z</time>
      </trkpt>
      <trkpt lat="47.855" lon="-2.78171">
        <ele>122</ele>
        <time>2017-01-17T00:34:46Z</time>
      </trkpt>
      <trkpt lat="47.8549" lon="-2.78197">
        <ele>121</ele>
        <time>2017-01-17T00:36:46Z</time>
      </trkpt>
      <trkpt lat="47.85478" lon="-2.78225">
        <ele>119</ele>
        <time>2017-01-17T00:38:46Z</time>
      </trkpt>
      <trkpt lat="47.85477" lon="-2.78234">
        <ele>120</ele>
        <time>2017-01-17T00:40:46Z</time>
      </trkpt>
      <trkpt lat="47.85477" lon="-2.78262">
        <ele>121</ele>
        <time>2017-01-17T00:42:46Z</time>
      </trkpt>
      <trkpt lat="47.85468" lon="-2.78277">
        <ele>119</ele>
        <time>2017-01-17T00:44:46Z</time>
      </trkpt>
      <trkpt lat="47.85466" lon="-2.78301">
        <ele>120</ele>
        <time>2017-01-17T00:46:46Z</time>
      </trkpt>
      <trkpt lat="47.85466" lon="-2.78306">
        <ele>120</ele>
        <time>2017-01-17T00:48:46Z</time>
      </trkpt>
      <trkpt lat="47.85461" lon="-2.78329">
        <ele>120</ele>
        <time>2017-01-17T00:50:46Z</time>
      </trkpt>
      <trkpt lat="47.85461" lon="-2.7834">
        <ele>121</ele>
        <time>2017-01-17T00:52:46Z</time>
      </trkpt>
      <trkpt lat="47.85462" lon="-2.78364">
        <ele>123</ele>
        <time>2017-01-17T00:54:46Z</time>
      </trkpt>
      <trkpt lat="47.85462" lon="-2.78378">
        <ele>125</ele>
        <time>2017-01-17T00:56:46Z</time>
      </trkpt>
      <trkpt lat="47.85458" lon="-2.78386">
        <ele>124</ele>
        <time>2017-01-17T00:58:46Z</time>
      </trkpt>
      <trkpt lat="47.85432" lon="-2.78458">
        <ele>124</ele>
        <time>2017-01-17T01:00:46Z</time>
      </trkpt>
      <trkpt lat="47.8543" lon="-2.7847">
        <ele>124</ele>
        <time>2017-01-17T01:02:46Z</time>
      </trkpt>
      <trkpt lat="47.85433" lon="-2.78492">
        <ele>127</ele>
        <time>2017-01-17T01:04:46Z</time>
      </trkpt>
      <trkpt lat="47.85435" lon="-2.78496">
        <ele>128</ele>
        <time>2017-01-17T01:06:46Z</time>
      </trkpt>
      <trkpt lat="47.85437" lon="-2.78505">
        <ele>128</ele>
        <time>2017-01-17T01:08:46Z</time>
      </trkpt>
      <trkpt lat="47.85435" lon="-2.78516">
        <ele>128</ele>
        <time>2017-01-17T01:10:46Z</time>
      </trkpt>
      <trkpt lat="47.85432" lon="-2.78529">
        <ele>127</ele>
        <time>2017-01-17T01:12:46Z</time>
      </trkpt>
      <trkpt lat="47.85426" lon="-2.78562">
        <ele>126</ele>
        <time>2017-01-17T01:14:46Z</time>
      </trkpt>
      <trkpt lat="47.85422" lon="-2.78584">
        <ele>126</ele>
        <time>2017-01-17T01:16:46Z</time>
      </trkpt>
      <trkpt lat="47.85415" lon="-2.78608">
        <ele>125</ele>
        <time>2017-01-17T01:18:46Z</time>
      </trkpt>
      <trkpt lat="47.85415" lon="-2.78624">
        <ele>127</ele>
        <time>2017-01-17T01:20:46Z</time>
      </trkpt>
      <trkpt lat="47.85413" lon="-2.7864">
        <ele>127</ele>
        <time>2017-01-17T01:22:46Z</time>
      </trkpt>
      <trkpt lat="47.85417" lon="-2.78647">
        <ele>129</ele>
        <time>2017-01-17T01:24:46Z</time>
      </trkpt>
      <trkpt lat="47.85414" lon="-2.78655">
        <ele>129</ele>
        <time>2017-01-17T01:26:46Z</time>
      </trkpt>
      <trkpt lat="47.85404" lon="-2.78693">
        <ele>129</ele>
        <time>2017-01-17T01:28:46Z</time>
      </trkpt>
      <trkpt lat="47.85402" lon="-2.78698">
        <ele>129</ele>
        <time>2017-01-17T01:30:46Z</time>
      </trkpt>
      <trkpt lat="47.85394" lon="-2.7873">
        <ele>130</ele>
        <time>2017-01-17T01:32:46Z</time>
      </trkpt>
      <trkpt lat="47.85387" lon="-2.78753">
        <ele>130</ele>
        <time>2017-01-17T01:34:46Z</time>
      </trkpt>
      <trkpt lat="47.85379" lon="-2.78772">
        <ele>129</ele>
        <time>2017-01-17T01:36:46Z</time>
      </trkpt>
      <trkpt lat="47.85363" lon="-2.78787">
        <ele>126</ele>
        <time>2017-01-17T01:38:46Z</time>
      </trkpt>
      <trkpt lat="47.85343" lon="-2.78802">
        <ele>122</ele>
        <time>2017-01-17T01:40:46Z</time>
      </trkpt>
      <trkpt lat="47.85338" lon="-2.78805">
        <ele>121</ele>
        <time>2017-01-17T01:42:46Z</time>
      </trkpt>
      <trkpt lat="47.85324" lon="-2.78823">
        <ele>120</ele>
        <time>2017-01-17T01:44:46Z</time>
      </trkpt>
      <trkpt lat="47.85323" lon="-2.78823">
        <ele>120</ele>
        <time>2017-01-17T01:46:46Z</time>
      </trkpt>
      <trkpt lat="47.85318" lon="-2.78828">
        <ele>119</ele>
        <time>2017-01-17T01:48:46Z</time>
      </trkpt>
      <trkpt lat="47.85306" lon="-2.78846">
        <ele>118</ele>
        <time>2017-01-17T01:50:46Z</time>
      </trkpt>
      <trkpt lat="47.85301" lon="-2.7885">
        <ele>117</ele>
        <time>2017-01-17T01:52:46Z</time>
      </trkpt>
      <trkpt lat="47.85275" lon="-2.7887">
        <ele>113</ele>
        <time>2017-01-17T01:54:46Z</time>
      </trkpt>
      <trkpt lat="47.8526" lon="-2.78873">
        <ele>111</ele>
        <time>2017-01-17T01:56:46Z</time>
      </trkpt>
      <trkpt lat="47.85242" lon="-2.78873">
        <ele>108</ele>
        <time>2017-01-17T01:58:46Z</time>
      </trkpt>
      <trkpt lat="47.85221" lon="-2.78873">
        <ele>107</ele>
        <time>2017-01-17T02:00:46Z</time>
      </trkpt>
      <trkpt lat="47.85206" lon="-2.78875">
        <ele>106</ele>
        <time>2017-01-17T02:02:46Z</time>
      </trkpt>
      <trkpt lat="47.85198" lon="-2.78883">
        <ele>105</ele>
        <time>2017-01-17T02:04:46Z</time>
      </trkpt>
      <trkpt lat="47.85196" lon="-2.789">
        <ele>105</ele>
        <time>2017-01-17T02:06:46Z</time>
      </trkpt>
      <trkpt lat="47.85197" lon="-2.78903">
        <ele>105</ele>
        <time>2017-01-17T02:08:46Z</time>
      </trkpt>
      <trkpt lat="47.85196" lon="-2.78928">
        <ele>105</ele>
        <time>2017-01-17T02:10:46Z</time>
      </trkpt>
      <trkpt lat="47.85196" lon="-2.78956">
        <ele>104</ele>
        <time>2017-01-17T02:12:46Z</time>
      </trkpt>
      <trkpt lat="47.85198" lon="-2.78983">
        <ele>104</ele>
        <time>2017-01-17T02:14:46Z</time>
      </trkpt>
      <trkpt lat="47.852" lon="-2.7901">
        <ele>104</ele>
        <time>2017-01-17T02:16:46Z</time>
      </trkpt>
      <trkpt lat="47.85201" lon="-2.79016">
        <ele>104</ele>
        <time>2017-01-17T02:18:46Z</time>
      </trkpt>
      <trkpt lat="47.85205" lon="-2.79021">
        <ele>104</ele>
        <time>2017-01-17T02:20:46Z</time>
      </trkpt>
      <trkpt lat="47.85213" lon="-2.79037">
        <ele>105</ele>
        <time>2017-01-17T02:22:46Z</time>
      </trkpt>
      <trkpt lat="47.85215" lon="-2.7904">
        <ele>105</ele>
        <time>2017-01-17T02:24:46Z</time>
      </trkpt>
    </trkseg>
  </trk>
</gpx>